     2.10           OBSERVATION DATA    G (GPS)             RINEX VERSION / TYPE
teqc 2003Nov3 GPS Data Processor 20031211 22:47:06UTC       PGM / RUN BY / DATE
Solaris 2.7|Ultra 2|cc SC5.0|=+-|*Sparc                     COMMENT
2 OBSERVATION DATA                                          COMMENT
ASHTORIN USGS 15 - SEP - 92 14:51                           COMMENT
                                                            COMMENT
ster Sterling_USCGS_unstamped                               MARKER NAME
                                                            MARKER NUMBER
JMS USGS                                                    OBSERVER / AGENCY
765 ASHTECH L-XII 7A24                                      REC # / TYPE / VERS
1058 ASH700228D NONE                                        ANT # / TYPE
 -2577763.0000 -3986545.0000  4248515.0000                  APPROX POSITION XYZ
        1.2271        0.0000        0.0000                  ANTENNA: DELTA H/E/N
HI is vertical height to base of antenna                    COMMENT
     1     1                                                WAVELENGTH FACT L1/2
     3    L1    L2    C1                                    # / TYPES OF OBSERV
    30.0000                                                 INTERVAL
                                                            COMMENT
Receiver type modified to reflect codeless receiver         COMMENT
Original receiver designation: ASHTECH LM-XII3              COMMENT
                                                            COMMENT
                                                            COMMENT
  1992     8    28    20    39    0.0000000     GPS         TIME OF FIRST OBS
                                                            END OF HEADER
 92  8 28 20 39  0.0000000  0  2G16G17
  -1906715.52917     50739.06132  21668853.615
  -2022781.82417   -158451.81034  22096530.011
 92  8 28 20 39 30.0000000  0  3G 3G16G17
   1727372.18518   -140799.32431  21409837.968
  -1883090.134 7     69148.55925  21673348.313
  -2105776.906 7   -223123.24525  22080740.691
 92  8 28 20 40  0.0000000  0  3G 3G16G17
   1671251.933 8   -184537.56221  21399158.041
  -1859338.945 7     87655.96225  21677869.094
  -2188965.374 7   -287945.36825  22064905.624
 92  8 28 20 40 30.0000000  0  3G 3G16G17
   1615063.337 8   -228320.11125  21388466.273
  -1835283.100 7    106400.73826  21682446.685
  -2272138.766 7   -352755.76425  22049081.648
 92  8 28 20 41  0.0000000  0  5G20G 3G24G16G17
    160595.79918    135075.79331  21347496.935
   1558914.056 7   -272072.79125  21377780.860
  21054343.44616    181615.76931  24535908.714
  -1810835.656 7    125450.66826  21687098.444
  -2355189.271 7   -417470.38326  22033272.183
 92  8 28 20 41 30.0000000  0  5G20G 3G24G16G17
    222527.878 8    183339.03422  21359282.886
   1502913.325 8   -315709.71426  21367125.127
  21137387.484 5    246325.33722  24551700.611
  -1785906.262 7    144876.15426  21691841.341
  -2437997.753 7   -481996.42526  22017520.668
 92  8 28 20 42  0.0000000  0  5G20G 3G24G16G17
    285037.552 7    232047.99425  21371176.372
   1447210.018 8   -359114.88126  21356524.046
  21220524.951 5    311107.77423  24567524.167
  -1760338.376 7    164799.14027  21696706.882
  -2520401.615 7   -546207.17526  22001839.513
 92  8 28 20 42 30.0000000  0  5G20G 3G24G16G17
    348239.215 7    281295.99426  21383204.166
   1391921.603 8   -402196.74426  21346003.160
  21303883.103 5    376062.03223  24583384.837
  -1734010.931 7    185314.00327  21701719.862
  -2602282.648 7   -610010.53926  21986258.700
 92  8 28 20 43  0.0000000  0  5G20G 3G24G16G17
    412165.335 7    331108.49026  21395368.515
   1337083.680 8   -444927.59526  21335569.932
  21387481.513 5    441203.53024  24599288.017
  -1706888.646 7    206448.21127  21706881.718
  -2683609.889 7   -673382.36526  21970780.535
 92  8 28 20 43 30.0000000  0  5G20G 3G24G16G17
    476847.798 7    381510.34926  21407678.023
   1282731.265 8   -487280.11126  21325224.274
  21471360.293 5    506563.58224  24615255.833
  -1678935.687 7    228229.71027  21712198.088
  -2764343.388 7   -736291.54226  21955413.384
 92  8 28 20 44  0.0000000  0  5G20G 3G24G16G17
    542279.120 7    432495.74127  21420130.622
   1228860.407 8   -529257.38827  21314974.340
  21555530.163 5    572150.36324  24631272.125
  -1650137.842 7    250669.57827  21717678.654
  -2844490.433 7   -798743.72126  21940167.168
 92  8 28 20 44 30.0000000  0  5G20G 3G24G16G17
    608562.806 7    484145.30627  21432745.439
   1175578.225 8   -570775.96627  21304833.351
  21640115.419 5    638060.91924  24647372.629
  -1620393.177 7    273847.20027  21723338.676
  -2923956.784 7   -860665.53026  21925044.468
 92  8 28 20 45  0.0000000  0  5G20G 3G24G16G17
    675566.292 7    536355.75427  21445490.606
   1122755.592 8   -611936.44427  21294784.817
  21724977.602 5    704187.21524  24663512.406
  -1589833.295 7    297660.07927  21729152.761
  -3002878.025 7   -922162.53426  21910025.225
 92  8 28 20 45 30.0000000  0  5G20G 3G24G16G17
    743276.735 7    589117.07927  21458375.626
   1070383.161 8   -652746.10727  21284816.598
  21810118.043 5    770530.31824  24679720.085
  -1558469.327 7    322099.49527  21735123.547
  -3081268.813 7   -983246.20926  21895109.561
 92  8 28 20 46  0.0000000  0  5G20G 3G24G16G17
    811682.617 7    642420.30627  21471393.723
   1018452.402 8   -693211.63027  21274935.529
  21895520.353 5    837077.52024  24695972.134
  -1526307.110 7    347160.94327  21741241.052
  -3159144.300 7  -1043928.36526  21880286.143
 92  8 28 20 46 30.0000000  0  5G20G 3G24G16G17
    880760.819 7    696247.42427  21484537.254
    966944.250 8   -733347.87727  21265132.255
  21981145.807 5    903798.55224  24712264.086
  -1493368.590 7    372827.29027  21747511.631
  -3236527.723 7  -1104227.08926  21865564.894
 92  8 28 20 47  0.0000000  0  5G20G 3G24G16G17
    950516.448 7    750602.39027  21497810.715
    915866.860 8   -773148.40027  21255411.335
  22066985.510 5    970686.53624  24728596.869
  -1459662.149 7    399092.03427  21753927.729
  -3313416.959 7  -1164140.72526  21850932.474
 92  8 28 20 47 30.0000000  0  5G20G 3G24G16G17
   1020993.405 7    805519.43627  21511226.997
    865267.514 8   -812576.45127  21245783.770
  22153083.220 6   1037775.63724  24744981.456
  -1425139.161 7    425993.03627  21760495.343
  -3389765.868 7  -1223633.31526  21836403.033
 92  8 28 20 48  0.0000000  0  5G20G 3G24G16G17
   1092212.234 7    861014.57827  21524775.488
    815170.312 8   -851613.22227  21236252.558
  22239461.378 5   1105083.18824  24761420.815
  -1389772.170 7    453551.70127  21767226.673
  -3465540.393 7  -1282678.36326  21821985.084
 92  8 28 20 48 30.0000000  0  5G20G 3G24G16G17
   1164152.874 7    917072.15927  21538465.451
    765559.210 8   -890271.21627  21226812.034
  22326100.418 6   1172594.08924  24777908.321
  -1353583.369 7    481750.74827  21774110.627
  -3540756.818 7  -1341288.51726  21807671.553
 92  8 28 20 49  0.0000000  0  5G20G 3G24G16G17
   1236788.362 7    973671.17327  21552290.140
    716410.463 8   -928568.94327  21217457.490
  22412972.153 6   1240286.26824  24794435.639
  -1316605.471 7    510564.65727  21781148.794
  -3615428.797 7  -1399474.42726  21793459.562
 92  8 28 20 49 30.0000000  0  4G20G 3G16G17
   1310090.336 7   1030789.54327  21566239.273
    667699.373 8   -966525.62727  21208187.577
  -1278841.103 7    539991.41727  21788333.531
  -3689552.266 7  -1457232.91626  21779357.085
 92  8 28 20 50  0.0000000  0  4G20G 3G16G17
   1384036.171 7   1088409.61227  21580310.482
    619406.688 8  -1004156.27127  21198999.718
  -1240313.952 7    570012.55327  21795664.955
  -3763140.831 7  -1514574.62826  21765353.599
 92  8 28 20 50 30.0000000  0  4G20G 3G16G17
   1458595.544 7   1146507.75627  21594499.569
    571506.174 8  -1041481.33327  21189879.791
  -1201054.995 7    600603.91327  21803136.413
  -3836225.516 7  -1571523.69626  21751444.578
 92  8 28 20 51  0.0000000  0  5G20G 3G23G16G17
   1533749.749 7   1205069.42227  21608799.609
    523982.829 8  -1078512.49827  21180841.289
  -1063366.29115   -836120.17635  24858376.694
  -1161088.237 7    631746.83627  21810741.518
  -3908822.117 7  -1628092.42626  21737628.463
 92  8 28 20 51 30.0000000  0  5G20G 3G23G16G17
   1609472.193 7   1264073.85527  21623206.825
    476813.048 8  -1115268.16727  21171864.363
  -1178232.619 5   -925626.29924  24836521.644
  -1120440.397 7    663420.44827  21818477.033
  -3980967.823 7  -1684309.80826  21723899.198
 92  8 28 20 52  0.0000000  0  5G20G 3G23G16G17
   1685751.826 7   1323512.46027  21637725.205
    429989.721 8  -1151753.85827  21162954.621
  -1292950.714 5  -1015016.81324  24814691.477
  -1079134.945 7    695606.49327  21826337.981
  -4052695.063 7  -1740201.11526  21710251.416
 92  8 28 20 52 30.0000000  0  5G20G 3G23G16G17
   1762578.304 7   1383377.18827  21652341.856
    383506.435 8  -1187974.60327  21154109.095
  -1407519.434 5  -1104290.95523  24792887.151
  -1037185.436 7    728294.39027  21834321.034
  -4124016.368 7  -1795776.12226  21696682.359
 92  8 28 20 53  0.0000000  0  5G20G 3G23G16G17
   1839936.129 7   1443655.95927  21667064.813
    337350.890 8  -1223939.94627  21145326.645
  -1521945.014 5  -1193453.47123  24771114.514
   -994602.517 7    761475.86327  21842424.274
  -4194939.377 7  -1851040.74526  21683186.392
 92  8 28 20 53 30.0000000  0  5G20G 3G23G16G17
   1917822.934 7   1504346.90027  21681887.691
    291525.015 8  -1259648.39027  21136602.535
  -1636211.653 5  -1282492.36023  24749367.689
   -951384.649 7    795152.09727  21850645.273
  -4265456.588 7  -1905989.21026  21669767.322
 92  8 28 20 54  0.0000000  0  5G20G 3G23G16G17
   1996227.606 7   1565441.38727  21696807.193
    246021.539 8  -1295105.63727  21127945.338
  -1750322.016 5  -1371409.33623  24727659.538
   -907551.730 7    829307.60427  21858989.337
  -4335567.451 7  -1960620.99526  21656420.862
 92  8 28 20 54 30.0000000  0  4G20G 3G16G17
   2074843.484 7   1626700.45727  21711763.779
   1563413.10618    -28360.92231  21119290.150
   -863422.243 7    863694.19027  21867386.493
  -4405577.655 7  -2015174.34726  21643101.263
 92  8 28 20 55  0.0000000  0  5G20G 3G23G16G17
   2153903.098 7   1688305.27927  21726811.501
   1518184.524 8    -63611.91621  21110682.688
    -19020.10415    -20758.82331  24684182.196
   -818768.770 7    898489.09427  21875883.661
  -4475254.576 7  -2069468.00226  21629839.674
 92  8 28 20 55 30.0000000  0  5G20G 3G23G16G17
   2233608.248 7   1750413.12027  21741980.280
   1473417.322 8    -98498.07821  21102166.424
   -132896.701 5   -109496.02621  24662516.435
   -773393.041 7    933846.77927  21884519.842
  -4544396.872 7  -2123345.08926  21616680.643
 92  8 28 20 56  0.0000000  0  5G20G 3G23G16G17
   2313778.706 7   1812883.53327  21757235.699
   1428934.938 8   -133159.70125  21093700.195
   -246669.214 5   -198149.30722  24640863.415
   -727469.654 7    969631.20827  21893257.563
  -4613195.495 7  -2176954.35426  21603589.816
 92  8 28 20 56 30.0000000  0  5G20G 3G23G16G17
   2394372.970 7   1875684.20027  21772569.784
   1384699.289 8   -167629.03126  21085282.053
   -360373.735 5   -286750.05524  24619222.327
   -681023.839 7   1005822.73527  21902095.115
  -4681695.524 7  -2230330.94926  21590560.206
 92  8 28 20 57  0.0000000  0  5G20G 3G23G16G17
   2475429.492 7   1938845.05527  21787996.564
   1340752.985 8   -201872.87726  21076921.021
   -473975.981 5   -375271.12224  24597606.811
   -633992.684 7   1042470.35827  21911043.740
  -4749837.656 7  -2283428.67826  21577589.266
 92  8 28 20 57 30.0000000  0  5G20G 3G23G16G17
   2556962.689 7   2002377.33827  21803512.472
   1297114.479 8   -235876.90726  21068616.500
   -587460.113 5   -463700.15525  24576012.101
   -586348.209 7   1079595.91027  21920114.111
  -4817599.389 7  -2336230.00426  21564697.591
 92  8 28 20 58  0.0000000  0  5G20G 3G23G16G17
   2638973.646 7   2066281.91727  21819114.361
   1253788.944 8   -269637.05927  21060370.199
   -700824.480 5   -552035.81125  24554436.457
   -538083.337 7   1117204.85827  21929296.634
  -4884980.345 7  -2388734.59026  21551875.047
 92  8 28 20 58 30.0000000  0  5G20G 3G23G16G17
   2721462.041 7   2130558.51627  21834815.872
   1210779.781 8   -303150.65827  21052188.503
   -814062.490 5   -640273.04725  24532896.519
   -489193.025 7   1155301.20427  21938600.723
  -4951951.033 7  -2440919.49526  21539128.801
 92  8 28 20 59  0.0000000  0  5G20G 3G23G16G17
   2804420.016 7   2195201.01926  21850604.082
   1168082.478 8   -336421.29527  21044061.999
   -927171.083 5   -728409.40425  24511373.100
   -439694.426 7   1193871.52227  21948019.242
  -5018503.548 7  -2492778.57326  21526464.968
 92  8 28 20 59 30.0000000  0  5G20G 3G23G16G17
   2887829.683 7   2260195.49926  21866473.895
   1125683.989 8   -369459.05827  21035994.134
  -1040148.929 5   -816443.91025  24489865.119
   -389626.631 7   1232885.35027  21957546.317
  -5084662.276 7  -2544330.78726  21513876.743
 92  8 28 21  0  0.0000000  0  5G20G 3G23G16G17
   2971679.431 7   2325532.88326  21882427.111
   1083575.961 8   -402270.48527  21027980.532
  -1152996.244 5   -904376.68525  24468404.656
   -339014.316 7   1272323.51227  21967181.197
  -5150428.870 7  -2595577.44426  21501361.847
 92  8 28 21  0 30.0000000  0  5G20G 3G23G16G17
   3055985.300 7   2391225.69826  21898471.674
   1041778.999 8   -434839.55127  21020028.747
  -1265680.467 5   -992182.36225  24446948.540
   -287851.423 7   1312190.65127  21976916.387
  -5215777.697 7  -2646498.56026  21488923.788
 92  8 28 21  1  0.0000000  0  5G20G 3G23G16G17
   3140770.397 7   2457291.94126  21914606.024
   1000319.761 8   -467145.44227  21012137.940
  -1378173.150 5  -1079838.81725  24425550.163
   -236122.080 7   1352499.22327  21986756.715
  -5280710.829 7  -2697095.79326  21476564.394
 92  8 28 21  1 30.0000000  0  5G20G 3G23G16G17
   3226025.222 7   2523724.19126  21930831.421
    959192.770 8   -499192.42727  21004310.658
  -1490484.243 5  -1167353.77225  24404168.306
   -183821.677 7   1393252.75727  21996709.915
  -5345243.622 7  -2747381.02527  21464287.713
 92  8 28 21  2  0.0000000  0  5G20G 3G23G16G17
   3311729.549 7   2590506.73026  21947144.508
    918382.086 8   -530992.94327  20996545.254
  -1602626.888 5  -1254737.47225  24382832.676
   -130949.588 7   1434451.75627  22006772.059
  -5409395.117 7  -2797369.15127  21452081.393
 92  8 28 21  2 30.0000000  0  5G20G 3G23G16G17
   3397867.407 7   2657627.04526  21963532.453
    877875.483 8   -562556.53127  20988836.001
  -1714617.073 5  -1342002.37525  24361513.895
    -77510.499 7   1476092.58227  22016941.079
  -5473198.890 7  -2847086.37327  21439937.370
 92  8 28 21  3  0.0000000  0  5G20G 3G23G16G17
   3484430.507 7   2725078.73226  21980001.671
    837668.636 8   -593886.53727  20981185.777
  -1826469.768 5  -1429160.22425  24340239.093
    -23509.199 7   1518171.47927  22027215.596
  -5536669.103 7  -2896543.61927  21427858.822
 92  8 28 21  3 30.0000000  0  5G20G 3G23G16G17
   3571415.345 7   2792859.06426  21996555.551
    797762.152 8   -624982.48227  20973591.585
  -1938180.383 5  -1516207.26225  24318971.157
     31047.635 7   1560683.27426  22037596.989
  -5599792.560 7  -2945730.68927  21415849.526
 92  8 28 21  4  0.0000000  0  6G20G 3G23G26G16G17
   3658812.735 7   2860960.82626  22013185.399
    758151.336 8   -655848.04227  20966055.852
  -2049751.815 5  -1603145.88125  24297741.594
   -656545.55115   -140823.54531  24606823.900
     86133.345 7   1603607.16926  22048082.380
  -5662577.851 7  -2994654.23727  21403901.148
 92  8 28 21  4 30.0000000  0  6G20G 3G23G26G16G17
   3746618.010 7   2929380.45926  22029896.250
    718835.325 8   -686483.88727  20958572.042
  -2161199.821 5  -1689988.34025  24276540.061
   -737841.434 5   -204170.77822  24591364.473
    141735.666 7   1646933.62426  22058662.716
  -5725015.482 7  -3043306.93127  21392018.184
 92  8 28 21  5  0.0000000  0  6G20G 3G23G26G16G17
   3834828.499 7   2998115.81326  22046681.630
    679816.027 8   -716888.51427  20951147.712
  -2272519.517 5  -1776730.81025  24255351.989
   -818964.203 5   -267383.10522  24575909.182
    197856.115 7   1690663.82726  22069339.554
  -5787086.308 7  -3091673.74627  21380207.680
 92  8 28 21  5 30.0000000  0  6G20G 3G23G26G16G17
   3923440.902 7   3067164.35626  22063544.086
    641093.842 8   -747061.63127  20943776.265
  -2383695.560 5  -1863361.33825  24234198.633
   -899907.742 5   -330455.81823  24560510.642
    254498.489 7   1734800.71226  22080120.331
  -5848791.595 7  -3139755.75227  21368465.649
 92  8 28 21  6  0.0000000  0  6G20G 3G23G26G16G17
   4012453.146 7   3136524.47626  22080484.009
    602670.627 8   -777001.79227  20936464.717
  -2494724.195 5  -1949876.98125  24213073.248
   -980661.860 5   -393380.83823  24545146.818
    311666.572 7   1779347.24026  22090998.720
  -5910131.531 7  -3187553.06527  21356793.500
 92  8 28 21  6 30.0000000  0  6G20G 3G23G26G16G17
   4101862.981 7   3206194.36926  22097496.751
    564548.436 8   -806707.37527  20929213.637
  -2605608.042 5  -2036279.80025  24191962.433
  -1061220.895 5   -456153.91223  24529806.229
    369373.387 7   1824313.57026  22101981.706
  -5971101.417 7  -3235062.02427  21345190.092
 92  8 28 21  7  0.0000000  0  6G20G 3G23G26G16G17
   4191658.218 7   3276164.60926  22114583.093
    526719.083 8   -836184.78727  20922014.541
  -2716347.316 5  -2122569.99625  24170889.511
  -1141608.468 5   -518793.38824  24514529.225
    427599.433 7   1869684.49626  22113060.267
  -6031718.530 7  -3282296.08427  21333654.588
 92  8 28 21  7 30.0000000  0  6G20G 3G23G26G16G17
   4281832.535 7   3346430.23226  22131740.785
    489180.650 8   -865435.51027  20914871.056
  -2826946.738 5  -2208751.20125  24149846.599
  -1221847.052 5   -581316.72024  24499252.550
    486327.274 7   1915446.40726  22124238.628
  -6091982.654 7  -3329255.11527  21322187.677
 92  8 28 21  8  0.0000000  0  6G20G 3G23G26G16G17
   4372377.241 7   3416984.44826  22148974.984
    451929.014 8   -894462.73927  20907781.684
  -2937426.312 5  -2294839.03425  24128826.741
  -1301945.497 5   -643730.88724  24483996.292
    545547.146 7   1961591.74926  22135504.139
  -6151894.124 7  -3375939.33227  21310787.349
 92  8 28 21  8 30.0000000  0  6G20G 3G23G26G16G17
   4463288.678 7   3487824.47026  22166274.837
    414963.922 8   -923266.69727  20900749.572
  -3047795.618 5  -2380841.01125  24107828.887
  -1381905.317 5   -706037.07825  24468789.020
    605251.811 7   2008114.83026  22146864.265
  -6211457.100 7  -3422352.01927  21299450.157
 92  8 28 21  9  0.0000000  0  6G20G 3G23G26G16G17
   4554560.939 7   3558945.61626  22183642.234
    378283.925 8   -951848.50627  20893768.275
  -3158045.356 5  -2466749.78625  24086848.872
  -1461724.631 5   -768233.73925  24453599.076
    665430.610 7   2055007.37826  22158319.005
  -6270680.687 7  -3468500.22027  21288182.128
 92  8 28 21  9 30.0000000  0  6G20G 3G23G26G16G17
   4646186.552 7   3630342.11226  22201079.273
    341885.650 8   -980210.77827  20886838.363
  -3268170.803 5  -2552561.69125  24065881.477
  -1541378.553 5   -830301.56725  24438442.019
    726089.718 7   2102274.19326  22169861.734
  -6329579.462 8  -3514395.32527  21276973.608
 92  8 28 21 10  0.0000000  0  6G20G 3G23G26G16G17
   4738165.512 7   3702013.94226  22218584.754
    305773.468 8  -1008350.13028  20879970.897
  -3378162.641 5  -2638269.45525  24044952.995
  -1620850.234 5   -892227.33125  24423315.421
    787239.661 7   2149923.47426  22181495.001
  -6388167.059 8  -3560047.96227  21265826.125
 92  8 28 21 10 30.0000000  0  6G20G 3G23G26G16G17
   4830491.758 7   3773956.35326  22236150.343
    269945.680 8  -1036267.88428  20873152.327
  -3488010.209 5  -2723864.80825  24024054.373
  -1700136.931 5   -954009.02425  24408240.237
    848875.439 7   2197951.31426  22193227.468
  -6446442.861 8  -3605457.63827  21254735.633
 92  8 28 21 11  0.0000000  0  6G20G 3G23G26G16G17
   4923150.811 7   3846158.14426  22253782.637
    234392.207 8  -1063971.88028  20866385.472
  -3597707.863 5  -2809343.33825  24003174.788
  -1779240.769 5  -1015648.24225  24393192.574
    910987.576 7   2246350.32826  22205049.064
  -6504420.725 8  -3650635.16927  21243701.771
 92  8 28 21 11 30.0000000  0  6G20G 3G23G26G16G17
   5016151.259 7   3918625.94126  22271477.707
    199125.500 8  -1091452.41528  20859674.558
  -3707246.303 5  -2894697.79425  23982333.636
  -1858147.809 5  -1077134.09225  24378160.830
    973584.569 7   2295127.18826  22216958.530
  -6562080.906 8  -3695565.13927  21232728.918
 92  8 28 21 12  0.0000000  0  6G20G 3G23G26G16G17
   5109481.067 7   3991350.35426  22289238.251
    164138.318 8  -1118715.15328  20853015.748
  -3816641.169 5  -2979940.39825  23961521.924
  -1936880.099 5  -1138483.76525  24363186.557
   1036647.652 7   2344267.20626  22228961.680
  -6619414.151 8  -3740240.39227  21221822.108
 92  8 28 21 12 30.0000000  0  6G20G 3G23G26G16G17
   5203138.944 7   4064330.45826  22307061.543
    129432.939 8  -1145758.29928  20846410.900
  -3925894.426 5  -3065072.62925  23940724.002
  -2015438.059 5  -1199697.58725  24348240.914
   1100165.616 7   2393761.66726  22241046.614
  -6676403.302 8  -3784647.48727  21210977.296
 92  8 28 21 13  0.0000000  0  6G20G 3G23G26G16G17
   5297116.435 7   4137559.53726  22324944.792
     95005.861 8  -1172584.57828  20839863.013
  -4035013.745 5  -3150100.48225  23919963.704
  -2093827.874 5  -1260780.41625  24333306.063
   1164121.982 7   2443597.77226  22253221.395
  -6733055.768 8  -3828792.23427  21200193.551
 92  8 28 21 13 30.0000000  0  6G20G 3G23G26G16G17
   5391418.251 7   4211041.41226  22342893.337
     60865.287 8  -1199187.61028  20833365.581
  -4144002.501 5  -3235026.66625  23899219.445
  -2172054.667 5  -1321736.28025  24318428.682
   1228516.666 7   2493775.40826  22265473.074
  -6789353.370 8  -3872660.47127  21189481.577
 92  8 28 21 14  0.0000000  0  6G20G 3G23G26G16G17
   5486026.298 7   4284761.84826  22360896.623
     26998.044 8  -1225577.67228  20826920.943
  -4252870.509 6  -3319858.78425  23878505.045
  -2250132.763 5  -1382576.24125  24303575.675
   1293335.370 7   2544283.45326  22277803.448
  -6845304.695 8  -3916258.86527  21178835.168
 92  8 28 21 14 30.0000000  0  6G20G 3G23G26G16G17
   5580940.883 6   4358721.18526  22378954.592
     -6591.147 8  -1251751.05228  20820529.337
  -4361594.565 6  -3404578.68825  23857812.980
  -2328055.371 5  -1443294.95325  24288746.800
   1358582.235 7   2595125.13826  22290222.800
  -6900914.396 8  -3959591.06827  21168250.935
 92  8 28 21 15  0.0000000  0  6G20G 3G23G26G16G17
   5676170.592 6   4432926.04626  22397075.217
    -39889.488 8  -1277697.81128  20814191.035
  -4470149.322 6  -3489166.68025  23837160.367
  -2405810.722 5  -1503883.42425  24273950.544
   1424278.505 7   2646316.98426  22302721.927
  -6956182.300 8  -4002656.93127  21157736.344
 92  8 28 21 15 30.0000000  0  6G20G 3G23G26G16G17
   5771703.599 7   4507367.23626  22415260.928
    -72904.955 8  -1303424.14028  20807906.906
  -4578542.502 6  -3573628.76525  23816536.655
  -2483403.854 5  -1564345.49025  24259192.750
   1490417.417 7   2697853.76926  22315305.685
  -7011118.503 8  -4045464.33527  21147282.551
 92  8 28 21 16  0.0000000  0  6G20G 3G23G26G16G17
   5867538.535 7   4582043.71826  22433495.204
   -105634.105 8  -1328927.36928  20801682.765
  -4686763.973 6  -3657957.03625  23795940.014
  -2560815.624 5  -1624666.19725  24244450.576
   1557004.657 7   2749739.89326  22327983.729
  -7065737.164 8  -4088024.30227  21136884.130
 92  8 28 21 16 30.0000000  0  6G20G 3G23G26G16G17
   5963674.056 7   4656954.39526  22451790.249
   -138074.092 8  -1354205.26928  20795509.528
  -4794824.229 6  -3742159.68625  23775375.540
  -2638040.175 5  -1684841.00525  24229753.281
   1624035.427 7   2801971.63426  22340729.735
  -7120043.726 8  -4130341.07228  21126552.652
 92  8 28 21 17  0.0000000  0  6G20G 3G23G26G16G17
   6060109.433 7   4732098.77126  22470141.715
   -170221.317 8  -1379255.04528  20789390.375
  -4902745.965 5  -3826254.40025  23754839.937
  -2715067.454 5  -1744862.11725  24215091.061
   1691511.653 7   2854550.48226  22353577.370
  -7174039.276 8  -4172415.51028  21116275.976
 92  8 28 21 17 30.0000000  0  6G20G 3G23G26G16G17
   6156849.582 7   4807480.60726  22488551.370
   -202066.244 8  -1404069.26028  20783328.661
  -5010526.747 5  -3910239.27025  23734320.792
  -2791871.326 5  -1804709.19425  24200475.280
   1759437.067 7   2907479.34326  22366500.884
  -7227713.398 8  -4214239.48228  21106064.805
 92  8 28 21 18  0.0000000  0  6G20G 3G23G26G16G17
   6253896.206 7   4883101.23526  22507017.716
   -233603.079 8  -1428643.40628  20777328.915
  -5118157.598 5  -3994107.38525  23713841.309
  -2868437.683 5  -1864371.11225  24185914.390
   1827821.681 7   2960766.01226  22379520.330
  -7281056.548 8  -4255805.55428  21095916.531
 92  8 28 21 18 30.0000000  0  6G20G 3G23G26G16G17
   6351237.984 7   4958951.89226  22525541.442
   -264838.572 8  -1452982.73528  20771385.289
  -5225644.689 6  -4077863.42025  23693390.397
  -2944774.608 5  -1923854.33125  24171384.769
   1896642.024 7   3014392.21126  22392609.839
  -7334067.727 8  -4297112.93728  21085825.637
 92  8 28 21 19  0.0000000  0  6G20G 3G23G26G16G17
   6448870.516 7   5035029.06726  22544121.230
   -295772.727 8  -1477087.27228  20765500.843
  -5332977.548 6  -4161499.28825  23672972.852
  -3020870.765 5  -1983149.96025  24156903.474
   1965898.181 7   3068358.01826  22405788.775
  -7386752.745 8  -4338166.17028  21075799.588
 92  8 28 21 19 30.0000000  0  6G20G 3G23G26G16G17
   6546795.803 7   5111334.39226  22562754.770
   -326399.243 8  -1500952.07528  20759670.000
  -5440130.277 6  -4244994.77425  23652575.333
  -3096718.243 5  -2042251.73725  24142460.103
   2035591.066 7   3122664.14426  22419053.512
  -7439102.559 8  -4378958.21028  21065837.064
 92  8 28 21 20  0.0000000  0  6G20G 3G23G26G16G17
   6645012.168 7   5187866.51226  22581444.042
   -356715.496 8  -1524575.12428  20753905.140
  -5547104.889 5  -4328351.46825  23632217.686
  -3172322.030 5  -2101163.65425  24128082.266
   2105714.116 7   3177305.42526  22432396.105
  -7491112.143 8  -4419485.14328  21055941.275
 92  8 28 21 20 30.0000000  0  6G20G 3G23G26G16G17
   6743512.447 7   5264619.87826  22600186.856
   -386723.811 8  -1547958.21628  20748191.096
  -5653907.850 5  -4411574.38725  23611899.402
  -3247693.666 5  -2159894.63025  24113736.687
   2176256.340 7   3232273.36326  22445820.212
  -7542791.698 8  -4459754.90428  21046106.793
 92  8 28 21 21  0.0000000  0  6G20G 3G23G26G16G17
   6842296.132 7   5341594.07526  22618987.711
   -416420.927 8  -1571098.81028  20742540.428
  -5760532.754 5  -4494658.59825  23591603.453
  -3322834.470 5  -2218445.80025  24099444.322
   2247230.905 7   3287578.18326  22459326.222
  -7594135.356 8  -4499762.92028  21036338.626
 92  8 28 21 21 30.0000000  0  6G20G 3G23G26G16G17
   6941360.321 7   5418786.83126  22637837.221
   -445804.887 8  -1593995.40428  20736947.260
  -5866973.135 5  -4577598.99225  23571352.982
  -3397759.021 5  -2276828.45625  24085185.023
   2318623.891 7   3343209.02726  22472912.367
  -7645132.416 8  -4539500.86528  21026631.826
 92  8 28 21 22  0.0000000  0  6G20G 3G23G26G16G17
   7040737.634 6   5496223.61626  22656742.943
   -474839.044 8  -1616619.40328  20731425.443
  -5973202.603 6  -4660375.04425  23551135.368
  -3472446.496 5  -2335026.38225  24070971.623
   2390460.570 7   3399185.62626  22486582.393
  -7695741.069 8  -4578936.16228  21017003.571
 92  8 28 21 22 30.0000000  0  6G20G 3G23G26G16G17
   7140394.036 6   5573877.82226  22675710.812
   -503552.637 8  -1638993.63028  20725959.597
  -6079234.639 6  -4742997.36325  23530954.599
  -3546925.231 5  -2393061.62125  24056802.472
   2462706.916 7   3455481.44826  22500325.689
  -7745988.951 8  -4618090.31728  21007439.113
 92  8 28 21 23  0.0000000  0  6G20G 3G23G26G16G17
   7240322.893 6   5651744.37326  22694724.159
   -531947.848 8  -1661119.75728  20720557.157
  -6185061.617 6  -4825459.81525  23510819.189
  -3621193.977 5  -2450933.22525  24042658.054
   2535353.788 7   3512089.37626  22514152.417
  -7795870.806 8  -4656959.26428  20997945.105
 92  8 28 21 23 30.0000000  0  6G20G 3G23G26G16G17
   7340512.899 6   5729814.38426  22713795.067
   -560031.997 8  -1683003.50628  20715213.176
  -6290687.328 6  -4907765.44925  23490718.314
  -3695254.696 5  -2508642.81425  24028564.091
   2608397.496 7   3569006.50426  22528055.562
  -7845396.804 8  -4695550.91528  20988521.429
 92  8 28 21 24  0.0000000  0  6G20G 3G23G26G16G17
   7440956.250 6   5808081.82026  22732910.284
   -587807.480 8  -1704646.71728  20709927.835
  -6396114.481 6  -4989916.35225  23470654.914
  -3769090.555 6  -2566177.11125  24014523.911
   2681844.293 7   3626237.73226  22542026.130
  -7894586.680 8  -4733880.65428  20979160.679
 92  8 28 21 24 30.0000000  0  6G20G 3G23G26G16G17
   7541647.374 6   5886542.34726  22752069.600
   -615275.745 8  -1726050.54828  20704699.605
  -6501338.560 6  -5071908.99025  23450631.326
  -3842678.612 5  -2623518.36725  24000519.886
   2755692.734 7   3683781.92526  22556081.450
  -7943463.552 8  -4771966.50128  20969862.107
 92  8 28 21 25  0.0000000  0  6G20G 3G23G26G16G17
   7642591.462 6   5965199.94226  22771277.513
   -642427.743 8  -1747207.93728  20699532.652
  -6606360.509 6  -5153744.16925  23430645.452
  -3916007.530 5  -2680657.66025  23986562.268
   2829954.772 7   3741648.42026  22570217.593
  -7992036.122 8  -4809815.22428  20960617.257
 92  8 28 21 25 30.0000000  0  6G20G 3G23G26G16G17
   7743780.484 6   6044048.43426  22790532.253
   -669266.453 8  -1768121.21928  20694427.156
  -6711191.066 6  -5235430.23625  23410696.512
  -3989071.533 6  -2737590.51425  23972666.199
   2904616.617 7   3799826.42226  22584418.942
  -8040322.415 8  -4847440.89628  20951431.136
 92  8 28 21 26  0.0000000  0  6G20G 3G23G26G16G17
   7845210.665 6   6123084.80525  22809838.138
   -695791.495 8  -1788790.05328  20689377.332
  -6815835.418 6  -5316971.23625  23390787.805
  -4061868.548 5  -2794315.34525  23958804.125
   2979656.675 6   3858299.20226  22598697.637
  -8088324.766 8  -4884845.28128  20942296.340
 92  8 28 21 26 30.0000000  0  6G20G 3G23G26G16G17
   7946876.518 6   6202304.83726  22829179.308
   -722003.592 8  -1809215.06528  20684388.186
  -6920299.305 6  -5398371.48625  23370909.976
  -4134410.552 5  -2850841.47325  23945002.190
   3055075.019 6   3917066.65526  22613053.709
  -8136026.884 8  -4922015.73628  20933217.455
 92  8 28 21 27  0.0000000  0  6G20G 3G23G26G16G17
   8048772.476 6   6281704.18325  22848571.503
   -747903.995 8  -1829397.17728  20679460.108
  -7024578.275 6  -5479627.73125  23351061.197
  -4206708.544 6  -2907177.42525  23931244.684
   3130865.239 6   3976123.95026  22627476.214
  -8183399.661 8  -4958929.55728  20924204.225
 92  8 28 21 27 30.0000000  0  6G20G 3G23G26G16G17
   8150893.870 6   6361279.17226  22868004.470
   -773492.982 8  -1849336.64028  20674590.909
  -7128673.605 6  -5560740.84225  23331254.419
  -4278759.272 5  -2963320.74425  23917540.271
   3207017.196 6   4035463.10926  22641963.745
  -8230427.197 8  -4995574.36328  20915253.082
 92  8 28 21 28  0.0000000  0  6G20G 3G23G26G16G17
   8253232.003 6   6441023.04926  22887483.485
   -798774.801 8  -1869036.75028  20669781.668
  -7232594.065 6  -5641717.67825  23311481.427
  -4350570.527 5  -3019277.43325  23903863.440
   3283535.646 6   4095087.82226  22656524.125
  -8277100.901 8  -5031943.45828  20906370.891
 92  8 28 21 28 30.0000000  0  6G20G 3G23G26G16G17
   8355782.306 6   6520932.22825  22906991.580
   -823749.399 8  -1888497.45428  20665028.429
  -7336343.275 6  -5722561.12625  23291734.847
  -4422153.026 5  -3075055.86825  23890241.170
   3360423.177 6   4155000.15526  22671156.965
  -8323427.447 8  -5068042.02928  20897557.202
 92  8 28 21 29  0.0000000  0  6G20G 3G23G26G16G17
   8458544.535 6   6601006.61326  22926550.969
   -848412.662 8  -1907715.57328  20660334.968
  -7439911.894 6  -5803263.84925  23272028.740
  -4493489.969 6  -3130642.97625  23876674.512
   3437668.138 7   4215190.99326  22685865.172
  -8369415.588 8  -5103876.93128  20888804.192
 92  8 28 21 29 30.0000000  0  6G20G 3G23G26G16G17
   8561512.963 6   6681241.60025  22946143.995
   -872765.826 8  -1926692.04428  20655701.855
  -7543300.658 6  -5883826.39325  23252354.350
  -4564578.298 6  -3186036.33725  23863144.369
   3515281.098 7   4275668.59825  22700631.750
  -8415085.944 8  -5139464.17928  20880114.587
 92  8 28 21 30  0.0000000  0  6G20G 3G23G26G16G17
   8664680.912 6   6761632.09326  22965779.472
   -896810.937 8  -1945428.49428  20651126.423
  -7646499.872 6  -5964241.21825  23232716.355
  -4635425.465 5  -3241241.81925  23849654.698
   3593264.141 7   4336434.54825  22715468.059
  -8460460.111 8  -5174820.64728  20871478.676
 92  8 28 21 30 30.0000000  0  6G20G 3G23G26G16G17
   8768048.516 6   6842178.14125  22985451.763
   -920543.836 8  -1963921.65228  20646607.921
  -7749488.599 6  -6044492.04725  23213121.081
  -4706010.824 5  -3296243.27225  23836221.567
   3671607.965 7   4397481.65225  22730372.511
  -8505543.679 8  -5209950.66628  20862900.025
 92  8 28 21 31  0.0000000  0  6G20G 3G23G26G16G17
   8871625.705 6   6922887.52926  23005154.423
   -943949.739 8  -1982160.00228  20642152.555
  -7852231.671 6  -6124551.46025  23193571.405
  -4776295.046 5  -3351010.04125  23822851.903
   3750326.800 7   4458820.98325  22745359.106
  -8550314.924 8  -5244837.32728  20854381.842
 92  8 28 21 31 30.0000000  0  6G20G 3G23G26G16G17
   8975405.551 6   7003754.79525  23024902.562
   -967031.256 8  -2000145.59428  20637761.975
  -7954740.114 6  -6204428.04825  23174059.592
  -4846302.311 6  -3405561.05125  23809531.524
   3829416.609 7   4520449.36625  22760407.428
  -8594783.333 8  -5279487.99828  20845919.061
 92  8 28 21 32  0.0000000  0  6G20G 3G23G26G16G17
   9079385.521 6   7084778.02725  23044694.500
   -989786.338 8  -2017876.81028  20633431.083
  -8057021.080 6  -6284127.39025  23154593.289
  -4916028.298 6  -3459892.84625  23796262.770
   3908858.343 7   4582351.98425  22775522.934
  -8638947.177 8  -5313901.34728  20837514.739
 92  8 28 21 32 30.0000000  0  6G20G 3G23G26G16G17
   9183565.037 6   7165956.72825  23064516.088
  -1012210.944 8  -2035350.52628  20629166.685
  -8159075.299 6  -6363650.04025  23135174.172
  -4985464.650 6  -3513998.97225  23783054.754
   3988643.189 6   4644521.95625  22790706.612
  -8682782.236 8  -5348058.51128  20829174.063
 92  8 28 21 33  0.0000000  0  6G20G 3G23G26G16G17
   9287941.383 6   7247288.81125  23084385.043
  -1034303.015 8  -2052565.11428  20624963.115
  -8260918.746 6  -6443008.47825  23115790.581
  -5054636.406 6  -3567898.93725  23769892.336
   4068771.988 6   4706959.93425  22805954.866
  -8726279.315 8  -5381952.30628  20820896.164
 92  8 28 21 33 30.0000000  0  6G20G 3G23G26G16G17
   9392513.120 6   7328773.14325  23104275.583
  -1056059.678 8  -2069518.35328  20620821.213
  -8362572.022 6  -6522218.69725  23096452.978
  -5123546.537 6  -3621595.00925  23756774.827
   4149236.576 6   4769659.56125  22821266.466
  -8769440.195 8  -5415584.13428  20812680.591
 92  8 28 21 34  0.0000000  0  6G20G 3G23G26G16G17
   9497279.224 6   7410408.93625  23124210.102
  -1077477.791 8  -2086207.79328  20616744.964
  -8464020.709 6  -6601269.49525  23077152.550
  -5192161.221 6  -3675060.89525  23743722.853
   4230027.588 6   4832613.56725  22836641.742
  -8812249.646 8  -5448942.12128  20804535.020
 92  8 28 21 34 30.0000000  0  6G20G 3G23G26G16G17
   9602248.234 6   7492202.86125  23144191.390
  -1098544.112 8  -2102623.09528  20612734.881
  -8565248.440 6  -6680148.10925  23057882.700
  -5260466.679 6  -3728285.78225  23730714.588
   4311155.828 6   4895830.31025  22852076.437
  -8854696.535 8  -5482017.59328  20796460.650
 92  8 28 21 35  0.0000000  0  6G20G 3G23G26G16G17
   9707424.584 6   7574158.29225  23164211.410
  -1119249.712 8  -2118757.32128  20608792.880
  -8666247.363 6  -6758848.45525  23038662.316
  -5328451.129 6  -3781260.58625  23717779.683
   4392637.846 6   4959322.75425  22867581.912
  -8896786.507 8  -5514814.93728  20788449.086
 92  8 28 21 35 30.0000000  0  6G20G 3G23G26G16G17
   9812803.380 6   7656271.53725  23184260.870
  -1139594.938 8  -2134610.73328  20604926.816
  -8767003.428 6  -6837359.59825  23019488.700
  -5396095.560 6  -3833970.41325  23704908.753
   4474470.514 6   5023088.44825  22883157.899
  -8938536.989 8  -5547347.75428  20780503.657
 92  8 28 21 36  0.0000000  0  6G20G 3G23G26G16G17
   9918381.232 6   7738539.81625  23204349.543
  -1159578.762 8  -2150182.53128  20601119.392
  -8867500.265 6  -6915668.70725  23000367.667
  -5463406.609 6  -3886420.51125  23692101.919
   4556659.230 6   5087131.58825  22898798.252
  -8979943.842 8  -5579612.81528  20772627.179
 92  8 28 21 36 30.0000000  0  6G20G 3G23G26G16G17
  10024152.052 6   7820958.51625  23224478.028
  -1179202.675 8  -2165473.89928  20597386.826
  -8967741.838 6  -6993778.93125  22981287.706
  -5530399.433 6  -3938622.60725  23679354.204
   4639218.543 7   5151463.47425  22914512.173
  -9021007.560 8  -5611610.48728  20764813.928
 92  8 28 21 37  0.0000000  0  6G20G 3G23G26G16G17
  10130120.630 6   7903531.25725  23244638.652
  -1198457.725 8  -2180477.82628  20593723.422
  -9067711.793 6  -7071677.45825  22962266.773
  -5597064.807 6  -3990569.53725  23666669.925
   4722154.832 6   5216089.12425  22930287.133
  -9061722.046 8  -5643336.03728  20757064.233
 92  8 28 21 37 30.0000000  0  6G20G 3G23G26G16G17
  10236281.269 6   7986253.73225  23264844.963
  -1217344.830 8  -2195195.03928  20590129.690
  -9167401.662 6  -7149357.75325  22943291.949
  -5663400.585 6  -4042259.61825  23654048.753
   4805453.576 6   5280997.19225  22946147.413
  -9102084.255 8  -5674787.06428  20749382.202
 92  8 28 21 38  0.0000000  0  6G20G 3G23G26G16G17
  10342616.961 6   8069112.50725  23285076.667
  -1235876.483 8  -2209635.27728  20586604.280
  -9266821.093 6  -7226827.32125  22924375.585
  -5729416.861 6  -4093700.76825  23641482.892
   4889098.206 6   5346174.79125  22962057.488
  -9142102.090 8  -5705969.77928  20741768.702
 92  8 28 21 38 30.0000000  0  6G20G 3G23G26G16G17
  10449122.805 6   8152103.95725  23305347.404
  -1254053.282 8  -2223799.02228  20583143.926
  -9365970.953 6  -7304086.84825  22905509.915
  -5795111.815 6  -4144891.57925  23628978.818
   4973085.902 6   5411619.69025  22978033.638
  -9181792.174 8  -5736897.09028  20734213.932
 92  8 28 21 39  0.0000000  0  6G20G 3G23G26G16G17
  10555795.990 6   8235225.74425  23325642.424
  -1271873.513 8  -2237684.92028  20579752.044
  -9464856.322 6  -7381140.28225  22886690.714
  -5860491.080 6  -4195836.39025  23616537.221
   5057402.117 6   5477320.63925  22994087.854
  -9221169.033 8  -5767580.33328  20726720.410
 92  8 28 21 39 30.0000000  0  6G20G 3G23G26G16G17
  10662637.753 6   8318478.93925  23345976.117
  -1289331.495 8  -2251288.52028  20576428.425
  -9563486.898 6  -7457995.16625  22867920.378
  -5925546.866 6  -4246529.09025  23604160.829
   5142041.947 6   5543273.69025  23010189.437
  -9260226.194 8  -5798014.45829  20719291.643
 92  8 28 21 40  0.0000000  0  6G20G 3G23G26G16G17
  10769640.736 6   8401857.70225  23366332.265
  -1306429.927 8  -2264611.97528  20573178.945
  -9661885.841 6  -7534669.54425  22849197.650
  -5990289.332 6  -4296977.68825  23591835.222
   5227003.877 6   5609477.75825  23026356.015
  -9298971.225 8  -5828205.35929  20711915.519
 92  8 28 21 40 30.0000000  0  6G20G 3G23G26G16G17
  10876795.524 6   8485354.84025  23386739.197
  -1323173.646 8  -2277659.01928  20569989.812
  -9760068.650 6  -7611175.50426  22830516.772
  -6054730.953 6  -4347191.85025  23579583.274
   5312279.717 6   5675926.43025  23042583.481
  -9337398.542 8  -5858148.70229  20704603.251
 92  8 28 21 41  0.0000000  0  6G20G 3G23G26G16G17
  10984100.834 6   8568969.13825  23407150.597
  -1339559.722 8  -2290427.37228  20566868.133
  -9858034.882 6  -7687512.73326  22811869.651
  -6118854.181 6  -4397157.88125  23567375.366
   5397856.646 6   5742609.71925  23058865.659
  -9375493.385 8  -5887832.95429  20697357.568
 92  8 28 21 41 30.0000000  0  6G20G 3G23G26G16G17
  11091559.532 6   8652703.04525  23427597.102
  -1355580.546 8  -2302911.13028  20563822.842
  -9955762.752 6  -7763664.20425  22793273.285
  -6182633.043 6  -4446855.61525  23555230.653
   5483743.445 6   5809534.44725  23075213.642
  -9413246.692 8  -5917251.10129  20690171.962
 92  8 28 21 42  0.0000000  0  6G20G 3G23G26G16G17
  11199166.017 6   8736552.10525  23448075.955
  -1371237.562 8  -2315111.40528  20560843.714
 -10053228.431 6  -7839611.40925  22774727.584
  -6246066.209 6  -4496283.98025  23543165.266
   5569941.658 6   5876701.84825  23091617.716
  -9450656.449 8  -5946401.52629  20683049.912
 92  8 28 21 42 30.0000000  0  6G20G 3G23G26G16G17
  11306918.600 6   8820515.00025  23468580.890
  -1386527.779 8  -2327025.83328  20557935.308
 -10150411.764 6  -7915338.57425  22756235.966
  -6309141.623 6  -4545433.56625  23531161.576
   5656433.328 6   5944097.95025  23108077.821
  -9487717.759 8  -5975280.45229  20675999.543
 92  8 28 21 43  0.0000000  0  6G20G 3G23G26G16G17
  11414821.451 6   8904594.99725  23489117.722
  -1401442.837 8  -2338647.95628  20555098.132
 -10247300.133 6  -7990835.90226  22737800.588
  -6371848.551 6  -4594295.94625  23519229.087
   5743209.179 6   6011715.45725  23124593.837
  -9524440.259 8  -6003895.35529  20669008.383
 92  8 28 21 43 30.0000000  0  6G20G 3G23G26G16G17
  11522869.126 6   8988787.80125  23509673.442
  -1415983.678 8  -2349978.49128  20552331.557
 -10343891.960 6  -8066102.13426  22719418.334
  -6434201.390 5  -4642882.53725  23507351.819
   5830265.435 6   6079551.43625  23141149.845
  -9560826.045 8  -6032247.90229  20662086.055
 92  8 28 21 44  0.0000000  0  6G20G 3G23G26G16G17
  11631058.870 6   9073091.34925  23530263.308
  -1430148.106 8  -2361015.71128  20549634.744
 -10440196.202 6  -8141144.30426  22701090.702
  -6496203.200 5  -4691195.50725  23495569.975
   5917605.138 6   6147608.32025  23157777.954
  -9596866.600 8  -6060331.42829  20655229.892
 92  8 28 21 44 30.0000000  0  6G20G 3G23G26G16G17
  11739388.907 6   9157504.16525  23550876.857
  -1443933.752 8  -2371757.75728  20547012.219
 -10536227.496 6  -8215973.83425  22682816.763
  -6557846.545 6  -4739229.15625  23483838.977
   6005230.405 6   6215887.73125  23174453.310
  -9632571.058 8  -6088153.05829  20648434.526
 92  8 28 21 45  0.0000000  0  6G20G 3G23G26G16G17
  11847852.631 6   9242021.21325  23571521.315
  -1457342.615 8  -2382206.22428  20544457.958
 -10631997.480 6  -8290599.70126  22664591.210
  -6619125.895 6  -4786979.19525  23472172.463
   6093163.728 6   6284407.14025  23191182.628
  -9667946.834 8  -6115718.58229  20641702.027
 92  8 28 21 45 30.0000000  0  6G20G 3G23G26G16G17
  11956447.922 6   9326640.72625  23592185.200
  -1470372.635 8  -2392359.48728  20541979.424
 -10727503.638 6  -8365019.96226  22646422.228
  -6680032.434 6  -4834438.74525  23460587.853
   6181423.319 6   6353180.81025  23207976.462
  -9702979.167 8  -6143016.48129  20635035.932
 92  8 28 21 46  0.0000000  0  6G20G 3G23G26G16G17
  12065170.509 6   9411359.47625  23612872.019
  -1483023.994 8  -2402217.66428  20539568.702
 -10822757.354 6  -8439243.55226  22628294.348
  -6740559.849 6  -4881602.88925  23449062.152
   6270005.214 6   6422205.65325  23224838.169
  -9737675.792 8  -6170052.79429  20628434.952
 92  8 28 21 46 30.0000000  0  6G20G 3G23G26G16G17
  12174010.885 6   9496169.93125  23633586.239
  -1495301.741 8  -2411784.73528  20537236.047
 -10917750.204 6  -8513263.88126  22610216.683
  -6800717.948 6  -4928479.19825  23437616.796
   6358889.497 6   6491466.06025  23241751.680
  -9772048.916 8  -6196837.02929  20621889.883
 92  8 28 21 47  0.0000000  0  6G20G 3G23G26G16G17
  12282966.569 6   9581070.31525  23654318.896
  -1507203.631 8  -2421058.92928  20534970.696
 -11012464.565 6  -8587067.19926  22592186.835
  -6860512.761 6  -4975072.47825  23426236.044
   6448072.576 6   6560959.31825  23258720.563
  -9806091.036 8  -6223363.34229  20615414.935
 92  8 28 21 47 30.0000000  0  6G20G 3G23G26G16G17
  12392047.149 5   9666067.95225  23675070.560
  -1518715.458 8  -2430029.18628  20532781.071
 -11106877.742 6  -8660635.81826  22574225.549
  -6919941.281 6  -5021380.30825  23414930.991
   6537538.397 6   6630672.94525  23275746.046
  -9839796.568 8  -6249627.37229  20609000.066
 92  8 28 21 48  0.0000000  0  6G20G 3G23G26G16G17
  12501240.384 6   9751153.38125  23695852.173
  -1529844.853 8  -2438701.42828  20530663.787
 -11200986.603 6  -8733967.30326  22556315.618
  -6979008.395 6  -5067406.54225  23403690.152
   6627269.095 6   6700592.92525  23292820.066
  -9873192.001 8  -6275649.76029  20602644.346
 92  8 28 21 48 30.0000000  0  6G20G 3G23G26G16G17
  12610539.865 6   9836321.64725  23716649.315
  -1540594.152 8  -2447077.50528  20528613.746
 -11294778.814 6  -8807052.04326  22538467.384
  -7037715.173 6  -5113151.98725  23392522.674
   6717265.014 6   6770719.57025  23309945.051
  -9906279.970 8  -6301432.58429  20596347.086
 92  8 28 21 49  0.0000000  0  6G20G 3G23G26G16G17
  12719942.590 6   9921570.28225  23737469.422
  -1550961.941 8  -2455156.29628  20526644.050
 -11388271.626 6  -8879903.51426  22520676.620
  -7096056.207 6  -5158612.44125  23381415.753
   6807529.702 6   6841055.64325  23327122.319
  -9939054.882 8  -6326971.45029  20590111.163
 92  8 28 21 49 30.0000000  0  6G20G 3G23G26G16G17
  12829442.322 6  10006894.56025  23758310.304
  -1560950.492 8  -2462939.56528  20524747.293
 -11481471.467 6  -8952526.67726  22502942.667
  -7154024.410 6  -5203782.39525  23370389.266
   6898057.739 6   6911596.92125  23344350.522
  -9971517.863 8  -6352267.26729  20583935.768
 92  8 28 21 50  0.0000000  0  6G20G 3G23G26G16G17
  12939031.785 6  10092288.73425  23779161.229
  -1570562.063 8  -2470429.10628  20522911.814
 -11574385.753 7  -9024927.30726  22485262.856
  -7211622.484 6  -5248663.92325  23359417.492
   6988859.792 6   6982351.73025  23361634.637
 -10003656.900 8  -6377310.64629  20577820.841
 92  8 28 21 50 30.0000000  0  6G20G 3G23G26G16G17
  13048713.336 6  10177754.67025  23800037.247
  -1579790.008 8  -2477619.70928  20521157.758
 -11667022.386 7  -9097111.60926  22467632.242
  -7268846.585 6  -5293254.01625  23348536.554
   7079931.200 6   7053316.42825  23378957.425
 -10035445.298 8  -6402080.80829  20571768.931
 92  8 28 21 51  0.0000000  0  6G20G 3G23G26G16G17
  13158481.307 5  10263287.98625  23820918.631
  -1588636.031 8  -2484512.70728  20519474.513
 -11759388.352 6  -9169084.98926  22450055.950
  -7325689.881 6  -5337547.44325  23337713.897
   7171262.037 6   7124483.27125  23396341.550
 -10066890.614 8  -6426583.63529  20565787.022
 92  8 28 21 51 30.0000000  0  6G20G 3G23G26G16G17
  13268329.125 6  10348883.45625  23841828.076
  -1597102.146 8  -2491109.67928  20517861.030
 -11851484.950 6  -9240848.47926  22432528.344
  -7382146.278 6  -5381539.35325  23326972.903
   7262841.709 6   7195843.98525  23413765.907
 -10098004.745 8  -6450828.37729  20559866.870
 92  8 28 21 52  0.0000000  0  6G20G 3G23G26G16G17
  13378265.268 6  10434547.79625  23862738.510
  -1605175.278 8  -2497400.41928  20516325.433
 -11943302.944 6  -9312394.88626  22415057.788
  -7438199.800 6  -5425217.30625  23316313.032
   7354677.357 6   7267404.20825  23431246.326
 -10128768.894 8  -6474800.43029  20554009.705
 92  8 28 21 52 30.0000000  0  6G20G 3G23G26G16G17
  13488281.753 6  10520274.68025  23883688.666
  -1612859.466 8  -2503388.10728  20514865.744
 -12034840.394 7  -9383722.68226  22397640.866
  -7493841.270 6  -5468574.21625  23305717.977
   7446759.746 6   7339156.67725  23448768.475
 -10159196.036 8  -6498509.87429  20548218.944
 92  8 28 21 53  0.0000000  0  6G20G 3G23G26G16G17
  13598369.595 6  10606057.13925  23904631.328
  -1620159.036 8  -2509076.07228  20513477.405
 -12126089.894 7  -9454826.08126  22380275.867
  -7549080.508 6  -5511617.68425  23295208.932
   7539088.863 6   7411101.37825  23466336.523
 -10189303.336 8  -6521970.08429  20542488.381
 92  8 28 21 53 30.0000000  0  6G20G 3G23G26G16G17
  13708528.405 6  10691895.00225  23925597.973
  -1627069.871 8  -2514461.13528  20512160.327
 -12217035.650 6  -9525692.80226  22362966.810
  -7603932.213 6  -5554359.20325  23284777.054
   7631662.287 6   7483236.48225  23483950.230
 -10219080.388 8  -6545172.96529  20536824.882
 92  8 28 21 54  0.0000000  0  6G20G 3G23G26G16G17
  13818757.227 6  10777787.39125  23946571.304
  -1633588.978 8  -2519540.97328  20510917.058
 -12307657.507 7  -9596307.15226  22345721.549
  -7658405.027 6  -5596805.45025  23274404.715
   7724473.138 6   7555556.59925  23501604.798
 -10248531.526 8  -6568121.88029  20531223.320
 92  8 28 21 54 30.0000000  0  6G20G 3G23G26G16G17
  13929056.128 6  10863734.30925  23967564.750
  -1639712.032 8  -2524312.15528  20509756.831
 -12397953.683 7  -9666667.74326  22328539.544
  -7712506.749 6  -5638962.55625  23264106.904
   7817514.308 6   7628056.17125  23519316.416
 -10277671.054 8  -6590827.99229  20525676.440
 92  8 28 21 55  0.0000000  0  6G20G 3G23G26G16G17
  14039421.386 6  10949733.00825  23988563.863
  -1645438.049 8  -2528773.99528  20508665.646
 -12487926.521 7  -9736776.36026  22311421.215
  -7766250.908 6  -5680841.03525  23253878.075
   7910771.315 6   7700723.90125  23537060.712
 -10306498.788 8  -6613291.13829  20520190.328
 92  8 28 21 55 30.0000000  0  6G20G 3G23G26G16G17
  14149857.582 6  11035786.95725  24009581.023
  -1650758.590 8  -2532919.87128  20507651.029
 -12577573.854 7  -9806631.33126  22294358.587
  -7819619.967 6  -5722427.21125  23243729.351
   8004246.934 6   7773561.99325  23554852.885
 -10335002.628 8  -6635501.90629  20514766.153
 92  8 28 21 56  0.0000000  0  6G20G 3G23G26G16G17
  14260353.257 6  11121887.24125  24030602.590
  -1655681.018 8  -2536755.52028  20506713.368
 -12666912.662 7  -9876245.88826  22277355.558
  -7872599.463 6  -5763709.88225  23233645.652
   8097940.789 6   7846570.16625  23572690.896
 -10363186.375 8  -6657463.24229  20509402.356
 92  8 28 21 56 30.0000000  0  6G20G 3G23G26G16G17
  14370908.792 5  11208034.22425  24051648.530
  -1660200.211 8  -2540276.95528  20505857.370
 -12755944.909 7  -9945621.58626  22260415.125
  -7925172.127 6  -5804675.46125  23223641.907
   8191863.053 6   7919756.25925  23590552.021
 -10391027.833 8  -6679157.86629  20504103.525
 92  8 28 21 57  0.0000000  0  6G20G 3G23G26G16G17
  14481517.726 5  11294222.73925  24072687.305
  -1664318.573 8  -2543486.07028  20505071.554
 -12844671.794 7 -10014759.35326  22243532.103
  -7977323.565 6  -5845312.88625  23213709.543
   8286019.991 6   7993125.26525  23608474.093
 -10418518.300 8  -6700578.98329  20498871.666
 92  8 28 21 57 30.0000000  0  6G20G 3G23G26G16G17
  14592177.412 6  11380450.78925  24093747.785
  -1668034.285 8  -2546381.42728  20504366.203
 -12933096.209 7 -10083661.41126  22226703.703
  -8029035.583 6  -5885607.90425  23203868.346
   8380422.139 6   8066685.32725  23626436.368
 -10445665.549 8  -6721732.65829  20493706.452
 92  8 28 21 58  0.0000000  0  6G20G 3G23G26G16G17
  14702892.670 5  11466722.18625  24114811.983
  -1671338.157 8  -2548955.86128  20503738.947
 -13021206.864 7 -10152318.98426  22209941.138
  -8080290.928 6  -5925547.03825  23194121.854
   8475073.192 5   8140439.32825  23644439.565
 -10472472.865 8  -6742621.45729  20488606.803
 92  8 28 21 58 30.0000000  0  6G20G 3G23G26G16G17
  14813662.990 5  11553036.50325  24135891.290
  -1674226.899 8  -2551206.82228  20503187.059
 -13108996.274 7 -10220726.22926  22193232.115
  -8131098.874 6  -5965137.55825  23184455.645
   8569965.682 6   8214381.46225  23662503.740
 -10498944.754 8  -6763248.88329  20483568.041
 92  8 28 21 59  0.0000000  0  6G20G 3G23G26G16G17
  14924489.409 6  11639394.45525  24156989.874
  -1676694.868 8  -2553129.92027  20502718.303
 -13196454.110 7 -10288875.12926  22176590.426
  -8181458.366 6  -6004378.62625  23174867.203
   8665098.511 6   8288510.88925  23680601.041
 -10525087.817 8  -6783620.08829  20478591.816
 92  8 28 21 59 30.0000000  0  6G20G 3G23G26G16G17
  15035368.979 5  11725793.88225  24178086.899
  -1678741.025 8  -2554724.31427  20502326.864
 -13283562.207 7 -10356751.48926  22160014.032
  -8231379.217 6  -6043277.90425  23165372.386
   8760461.963 6   8362819.98425  23698757.282
 -10550907.295 8  -6803739.13629  20473683.074
 92  8 28 22  0  0.0000000  0  6G20G 3G23G26G16G17
  15146308.444 5  11812240.04625  24199198.314
  -1680354.013 8  -2555981.18627  20502022.455
 -13370299.003 7 -10424338.51426  22143507.699
  -8280859.564 6  -6081833.92925  23155952.638
   8856047.987 6   8437302.56125  23716943.712
 -10576375.103 8  -6823584.16229  20468835.340
 92  8 28 22  0 30.0000000  0  6G20G 3G23G26G16G17
  15257302.269 5  11898728.45125  24220319.981
  -1681535.968 8  -2556902.17527  20501794.103
 -13456669.846 7 -10491640.37026  22127073.046
  -8329908.219 6  -6120053.60425  23146620.848
   8951856.854 6   8511958.80325  23735179.007
 -10601491.216 8  -6843155.13129  20464055.419
 92  8 28 22  1  0.0000000  0  6G20G 3G23G26G16G17
  15368346.000 5  11985255.76325  24241449.594
  -1682286.896 8  -2557487.29827  20501654.700
 -13542681.966 7 -10558662.71226  22110704.738
  -8378509.434 6  -6157924.54425  23137372.460
   9047890.909 6   8586790.47725  23753449.589
 -10626266.739 8  -6862460.72529  20459338.275
 92  8 28 22  1 30.0000000  0  6G20G 3G23G26G16G17
  15479433.393 5  12071817.14225  24262584.902
  -1682608.534 8  -2557737.90827  20501597.020
 -13628354.864 7 -10625420.75626  22094403.942
  -8426655.751 6  -6195441.07925  23128210.323
   9144144.101 6   8661792.91525  23771764.900
 -10650717.123 8  -6881512.95129  20454686.335
 92  8 28 22  2  0.0000000  0  6G20G 3G23G26G16G17
  15590554.920 5  12158405.08725  24283742.425
  -1682506.604 8  -2557658.48027  20501613.358
 -13713717.951 7 -10691937.36826  22078156.930
  -8474345.449 6  -6232601.78325  23119131.978
   9240608.715 6   8736960.11825  23790125.539
 -10674853.236 8  -6900320.28329  20450097.262
 92  8 28 22  2 30.0000000  0  6G20G 3G23G26G16G17
  15701705.119 5  12245015.34925  24304885.018
  -1681982.361 8  -2557249.97827  20501711.031
 -13798774.753 7 -10758215.30826  22061970.596
  -8521579.861 6  -6269407.71825  23110144.230
   9337293.419 6   8812298.78225  23808523.382
 -10698697.715 8  -6918900.38729  20445556.606
 92  8 28 22  3  0.0000000  0  6G20G 3G23G26G16G17
  15812870.674 5  12331637.66325  24326044.040
  -1681044.750 8  -2556519.36727  20501889.197
 -13883525.089 7 -10824254.44826  22045846.348
  -8568374.850 6  -6305871.26825  23101238.325
   9434171.835 6   8887788.38325  23826958.850
 -10722249.832 8  -6937252.67029  20441076.327
 92  8 28 22  3 30.0000000  0  6G20G 3G23G26G16G17
  15924053.579 5  12418273.46125  24347204.471
  -1679688.106 8  -2555462.22627  20502146.839
 -13967949.663 7 -10890039.76026  22029777.622
  -8614746.021 6  -6342004.55925  23092417.142
   9531236.807 6   8963423.35025  23845429.962
 -10745485.656 8  -6955358.48429  20436654.359
 92  8 28 22  4  0.0000000  0  6G20G 3G23G26G16G17
  16035249.222 5  12504919.10125  24368350.902
  -1677912.540 8  -2554078.65927  20502488.213
 -14052021.350 7 -10955550.10326  22013781.716
  -8660700.351 6  -6377813.06025  23083671.477
   9628486.304 6   9039202.13025  23863937.770
 -10768382.429 8  -6973200.09429  20432295.826
 92  8 28 22  4 30.0000000  0  6G20G 3G23G26G16G17
  16146463.203 5  12591579.06925  24389519.127
  -1675708.156 8  -2552360.96727  20502905.944
 -14135715.760 7 -11020766.46726  21997851.314
  -8706224.041 6  -6413285.94625  23075010.053
   9725935.564 6   9115136.55425  23882481.912
 -10790925.237 8  -6990765.91329  20428007.085
 92  8 28 22  5  0.0000000  0  6G20G 3G23G26G16G17
  16257685.632 5  12678245.69025  24410688.762
  -1673081.207 8  -2550313.97927  20503405.038
 -14219044.360 7 -11085697.73826  21981997.090
  -8751314.408 6  -6448421.24125  23066427.714
   9823573.536 6   9191218.03525  23901064.667
 -10813100.566 8  -7008045.37129  20423786.787
 92  8 28 22  5 30.0000000  0  6G20G 3G23G26G16G17
  16368919.023 5  12764920.75425  24431854.319
  -1670025.233 8  -2547932.70327  20503987.145
 -14302008.599 7 -11150345.11626  21966205.133
  -8795945.675 6  -6483198.74625  23057940.680
   9921416.677 6   9267459.34625  23919679.081
 -10834908.708 8  -7025038.69729  20419636.430
 92  8 28 22  6  0.0000000  0  6G20G 3G23G26G16G17
  16480168.260 5  12851608.21125  24453026.292
  -1666531.096 8  -2545209.99627  20504655.113
 -14384611.885 7 -11214711.25026  21950490.462
  -8840094.397 6  -6517600.24525  23049536.238
  10019481.915 6   9343873.76125  23938335.465
 -10856363.057 8  -7041756.34729  20415554.696
 92  8 28 22  6 30.0000000  0  6G20G 3G23G26G16G17
  16591428.930 5  12938304.51925  24474189.511
  -1662599.214 8  -2542146.18427  20505402.405
 -14466881.595 7 -11278817.45426  21934838.507
  -8883767.337 6  -6551631.01425  23041221.914
  10117761.225 6   9420454.99025  23957042.455
 -10877483.075 8  -7058213.48829  20411533.699
 92  8 28 22  7  0.0000000  0  6G20G 3G23G26G16G17
  16702697.897 5  13025007.40525  24495376.354
  -1658229.080 8  -2538740.88527  20506231.242
 -14548816.482 7 -11342662.73126  21919242.614
  -8926966.293 6  -6585292.46925  23033002.144
  10216242.083 6   9497193.25825  23975780.652
 -10898278.552 8  -7074417.73629  20407575.360
 92  8 28 22  7 30.0000000  0  6G20G 3G23G26G16G17
  16813970.944 5  13111713.39725  24516547.128
  -1653420.749 8  -2534994.13227  20507147.377
 -14630410.572 7 -11406242.45426  21903719.600
  -8969695.095 6  -6618587.52525  23024873.392
  10314913.969 6   9574080.36525  23994552.937
 -10918775.219 8  -7090389.14329  20403676.319
 92  8 28 22  8  0.0000000  0  6G20G 3G23G26G16G17
  16925236.994 5  13198413.92625  24537704.141
  -1648180.884 8  -2530911.12127  20508143.258
 -14711669.323 7 -11469560.90226  21888248.751
  -9011971.453 6  -6651530.07925  23016822.945
  10413753.425 6   9651098.08325  24013365.423
 -10938983.445 8  -7106135.79929  20399830.821
 92  8 28 22  8 30.0000000  0  6G20G 3G23G26G16G17
  17036488.908 5  13285103.49025  24558890.504
  -1642512.795 8  -2526494.41327  20509224.100
 -14792591.150 7 -11532616.81026  21872854.588
  -9053798.146 6  -6684122.21025  23008869.451
  10512740.829 6   9728231.04225  24032207.019
 -10958886.435 8  -7121644.58829  20396042.074
 92  8 28 22  9  0.0000000  0  6G20G 3G23G26G16G17
  17147730.365 5  13371784.96425  24580065.385
  -1636408.827 8  -2521738.07127  20510384.686
 -14873152.988 7 -11595392.19426  21857522.002
  -9095159.808 6  -6716351.98825  23000993.214
  10611873.860 6   9805477.52125  24051067.173
 -10978471.624 8  -7136905.77529  20392318.382
 92  8 28 22  9 30.0000000  0  6G20G 3G23G26G16G17
  17258964.745 5  13458460.78125  24601228.934
  -1629861.273 8  -2516636.09427  20511628.675
 -14953359.911 7 -11657891.01826  21842258.609
  -9136057.603 6  -6748220.32925  22993214.559
  10711150.186 6   9882835.62625  24069961.293
 -10997721.322 8  -7151905.51229  20388655.458
 92  8 28 22 10  0.0000000  0  6G20G 3G23G26G16G17
  17370186.666 5  13545126.96725  24622394.251
  -1622872.025 8  -2511189.95027  20512959.004
 -15033214.578 7 -11720115.33027  21827064.588
  -9176491.319 6  -6779727.03725  22985517.927
  10810561.990 6   9960299.30625  24088884.282
 -11016630.002 8  -7166639.53329  20385057.618
 92  8 28 22 10 30.0000000  0  6G20G 3G23G26G16G17
  17481384.259 5  13631774.24225  24643544.909
  -1615449.068 8  -2505405.80427  20514372.585
 -15112715.633 7 -11782064.15126  21811938.709
  -9216468.145 6  -6810877.72625  22977911.473
  10910109.718 5  10037868.87225  24107820.853
 -11035205.989 8  -7181114.30729  20381519.108
 92  8 28 22 11  0.0000000  0  6G20G 3G23G26G16G17
  17592560.549 5  13718404.83825  24664703.301
  -1607585.609 8  -2499278.42227  20515872.117
 -15191852.330 7 -11843729.02926  21796876.746
  -9255971.489 6  -6841659.45525  22970392.768
  11009799.146 6  10115548.90625  24126789.201
 -11053459.319 8  -7195337.65729  20378045.413
 92  8 28 22 11 30.0000000  0  6G20G 3G23G26G16G17
  17703710.410 5  13805014.76825  24685855.338
  -1599282.556 8  -2492808.51227  20517449.775
 -15270615.918 7 -11905103.18627  21781889.911
  -9294991.698 6  -6872064.73825  22962976.022
  11109644.515 6  10193350.44025  24145788.458
 -11071389.035 8  -7209308.84229  20374632.306
 92  8 28 22 12  0.0000000  0  6G20G 3G23G26G16G17
  17814831.510 5  13891602.35125  24707001.769
  -1590538.511 8  -2485994.96227  20519111.495
 -15348983.650 7 -11966168.85927  21766975.746
  -9333512.100 6  -6902080.56025  22955642.230
  11209659.482 5  10271284.10025  24164823.361
 -11088991.154 8  -7223024.76429  20371285.063
 92  8 28 22 12 30.0000000  0  6G20G 3G23G26G16G17
  17925920.966 5  13978165.31725  24728134.888
  -1581352.454 8  -2478837.00427  20520856.826
 -15426963.916 7 -12026932.63227  21752135.480
  -9371529.501 6  -6931704.41225  22948402.422
  11309850.428 5  10349354.90425  24183889.172
 -11106254.277 8  -7236476.53529  20367999.517
 92  8 28 22 13  0.0000000  0  6G20G 3G23G26G16G17
  18036986.762 5  14064709.83125  24749269.717
  -1571712.657 8  -2471325.47027  20522695.873
 -15504555.019 7 -12087393.17727  21737371.961
  -9409034.916 6  -6960929.34325  22941265.982
  11410227.823 5  10427570.96925  24202990.748
 -11123171.648 8  -7249658.86929  20364781.995
 92  8 28 22 13 30.0000000  0  6G20G 3G23G26G16G17
  18148024.611 5  14151232.52025  24770410.452
  -1561619.496 8  -2463460.66527  20524617.333
 -15581760.593 7 -12147553.29127  21722679.192
  -9446045.193 6  -6989768.43125  22934225.476
  11510792.952 5  10505933.33725  24222121.944
 -11139738.797 8  -7262568.33129  20361627.968
 92  8 28 22 14  0.0000000  0  6G20G 3G23G26G16G17
  18259030.903 5  14237730.58225  24791535.837
  -1551072.762 8  -2455242.43527  20526622.765
 -15658602.195 7 -12207429.78427  21708057.475
  -9482580.100 6  -7018237.13725  22927277.216
  11611525.229 6  10584425.97325  24241294.931
 -11155958.062 8  -7275206.69629  20358543.314
 92  8 28 22 14 30.0000000  0  5G 3G23G26G16G17
  -1540071.545 8  -2446670.04427  20528717.265
 -15735083.284 7 -12267025.35027  21693504.200
  -9518646.659 6  -7046340.83825  22920411.879
  11712414.280 6  10663040.71825  24260498.017
 -11171849.857 8  -7287589.88629  20355520.237
 92  8 28 22 15  0.0000000  0  5G 3G23G26G16G17
  -1528616.903 8  -2437744.36627  20530898.405
 -15811185.923 7 -12326326.06127  21679022.305
  -9554252.373 6  -7074085.45325  22913636.809
  11813452.459 6  10741771.73625  24279720.949
 -11187429.305 8  -7299729.69629  20352554.000
 92  8 28 22 15 30.0000000  0  5G 3G23G26G16G17
  -1516713.326 8  -2428468.84827  20533162.258
 -15886903.504 7 -12385326.69227  21664613.440
  -9589393.550 6  -7101468.11825  22906947.540
  11914624.155 6  10820606.78425  24298968.404
 -11202693.171 8  -7311623.60329  20349648.831
 92  8 28 22 16  0.0000000  0  5G 3G23G26G16G17
  -1504359.405 8  -2418842.41627  20535510.922
 -15962235.818 7 -12444027.14527  21650278.084
  -9624054.898 6  -7128476.89325  22900348.419
  12015923.169 5  10899540.98925  24318247.937
 -11217647.842 8  -7323276.55729  20346801.432
 92  8 28 22 16 30.0000000  0  5G 3G23G26G16G17
  -1491552.679 8  -2408863.14527  20537949.344
 -16037168.625 7 -12502416.26027  21636015.548
  -9658216.379 6  -7155096.15325  22893848.469
  12117364.679 6  10978586.26425  24337542.400
 -11232299.995 8  -7334693.80529  20344015.341
 92  8 28 22 17  0.0000000  0  5G 3G23G26G16G17
  -1478299.336 8  -2398535.85727  20540471.557
 -16111718.128 7 -12560506.72027  21621831.198
  -9691873.236 6  -7181322.20725  22887444.842
  12218929.347 5  11057727.50325  24356882.011
 -11246635.647 8  -7345864.41529  20341288.339
 92  8 28 22 17 30.0000000  0  5G 3G23G26G16G17
  -1464593.886 8  -2387856.27527  20543077.863
 -16185901.110 7 -12618311.58527  21607714.091
  -9725008.241 6  -7207141.61825  22881138.527
  12320614.905 5  11136962.90525  24376228.788
 -11260646.123 8  -7356781.65629  20338621.026
 92  8 28 22 18  0.0000000  0  5G 3G23G26G16G17
  -1450432.738 8  -2376821.61827  20545773.177
 -16259728.467 7 -12675839.32127  21593664.227
  -9757622.971 6  -7232555.59925  22874932.224
  12422431.146 5  11216300.18525  24395614.567
 -11274340.739 8  -7367452.76229  20336019.157
 92  8 28 22 18 30.0000000  0  5G 3G23G26G16G17
  -1435823.607 8  -2365437.88527  20548552.613
 -16333205.493 7 -12733094.07227  21579680.828
  -9789729.538 6  -7257573.68725  22868824.162
  12524365.677 5  11295729.61425  24415005.204
 -11287723.671 8  -7377881.00229  20333469.362
 92  8 28 22 19  0.0000000  0  5G 3G23G26G16G17
  -1420761.165 8  -2353700.91127  20551419.378
 -16406331.207 7 -12790075.06127  21565764.192
  -9821329.307 6  -7282196.81225  22862813.084
  12626416.182 5  11375249.41325  24434427.648
 -11300787.246 8  -7388060.39729  20330981.564
 92  8 28 22 19 30.0000000  0  5G 3G23G26G16G17
  -1405236.693 8  -2341603.91727  20554373.593
 -16479086.702 7 -12846767.60027  21551924.003
  -9852426.318 6  -7306428.17425  22856890.234
  12728611.339 5  11454881.94625  24453871.737
 -11313540.626 8  -7397998.07929  20328555.044
 92  8 28 22 20  0.0000000  0  5G 3G23G26G16G17
  -1389252.945 8  -2329149.06227  20557417.926
 -16551459.989 7 -12903162.29327  21538149.709
  -9883028.275 6  -7330273.81025  22851068.954
  12830947.106 5  11534624.03825  24473341.788
 -11325981.013 8  -7407691.88429  20326186.594
 92  8 28 22 20 30.0000000  0  5G 3G23G26G16G17
  -1372808.062 8  -2316334.86327  20560546.050
 -16623431.162 7 -12959243.66427  21524453.211
  -9913126.370 6  -7353726.78125  22845340.430
  12933414.265 5  11614468.50025  24492847.425
 -11338096.107 8  -7417132.18329  20323885.177
 92  8 28 22 21  0.0000000  0  5G 3G23G26G16G17
  -1355894.800 8  -2303155.70727  20563766.091
 -16694989.304 7 -13015003.18827  21510841.314
  -9942714.038 6  -7376782.08025  22839711.077
  13036013.183 5  11694415.64825  24512368.081
 -11349872.169 8  -7426308.32329  20321640.511
 92  8 28 22 21 30.0000000  0  5G 3G23G26G16G17
  -1338507.781 8  -2289607.37627  20567070.164
 -16766124.601 7 -13070433.21227  21497301.218
  -9971785.235 6  -7399434.89025  22834178.197
  13138734.004 5  11774457.74325  24531910.862
 -11361295.312 8  -7435209.46929  20319468.874
 92  8 28 22 22  0.0000000  0  5G 3G23G26G16G17
  -1320650.346 8  -2275692.50727  20570470.050
 -16836831.837 7 -13125529.70527  21483845.963
 -10000335.227 6  -7421681.60425  22828743.740
  13241555.138 5  11854578.05725  24551479.335
 -11372355.702 8  -7443827.94029  20317364.571
 92  8 28 22 22 30.0000000  0  5G 3G23G26G16G17
  -1302319.092 8  -2261408.40427  20573955.017
 -16907113.754 7 -13180294.76327  21470473.301
 -10028370.870 6  -7443527.50425  22823409.472
  13344474.599 5  11934775.01225  24571062.437
 -11383067.277 8  -7452174.60129  20315324.633
 92  8 28 22 23  0.0000000  0  5G 3G23G26G16G17
  -1283504.846 8  -2246747.96827  20577539.426
 -16976969.163 7 -13234727.46927  21457180.023
 -10055886.778 6  -7464968.42325  22818172.998
  13447502.429 5  12015056.36425  24590670.153
 -11393432.511 8  -7460251.40229  20313350.890
 92  8 28 22 23 30.0000000  0  5G 3G23G26G16G17
  -1264211.423 8  -2231714.13327  20581210.504
 -17046403.387 7 -13288831.97927  21443965.382
 -10082885.277 6  -7486006.18525  22813040.611
  13550640.675 5  12095423.76325  24610297.326
 -11403463.598 8  -7468067.81929  20311446.128
 92  8 28 22 24  0.0000000  0  5G 3G23G26G16G17
  -1244435.232 8  -2216304.09727  20584975.028
 -17115420.371 7 -13342611.39027  21430831.954
 -10109348.949 6  -7506627.17025  22807999.810
  13653899.557 5  12175885.19825  24629944.164
 -11413169.796 8  -7475631.07029  20309597.488
 92  8 28 22 24 30.0000000  0  5G 3G23G26G16G17
  -1224172.029 8  -2200514.60827  20588827.721
 -17184035.567 7 -13396077.70127  21417775.393
 -10135261.900 6  -7526819.03325  22803070.803
  13757283.033 5  12256443.65025  24649617.595
 -11422556.554 8  -7482945.41629  20307809.226
 92  8 28 22 25  0.0000000  0  6G 3G21G23G26G16G17
  -1203421.872 8  -2184345.65327  20592779.975
   5919604.35015   -212923.59131  24490821.667
 -17252244.536 7 -13449227.48327  21404796.568
 -10160610.575 6  -7546571.19625  22798245.073
  13860797.463 5  12337104.17425  24669313.600
 -11431616.940 8  -7490005.44329  20306085.060
 92  8 28 22 25 30.0000000  0  6G 3G21G23G26G16G17
  -1182189.467 8  -2167800.93627  20596813.922
   5811973.923 5   -296795.23521  24470332.441
 -17320055.674 7 -13502067.24827  21391889.873
 -10185397.501 6  -7565885.65125  22793525.231
  13964430.942 5  12417857.48725  24689039.614
 -11440352.198 8  -7496812.11629  20304426.488
 92  8 28 22 26  0.0000000  0  6G 3G21G23G26G16G17
  -1160482.647 8  -2150886.52027  20600951.928
   5704472.600 5   -380561.98322  24449871.066
 -17387473.723 7 -13554600.73727  21379064.811
 -10209632.003 6  -7584769.64525  22788921.018
  14068168.274 5  12498691.65125  24708786.403
 -11448771.841 8  -7503372.86629  20302818.311
 92  8 28 22 26 30.0000000  0  6G 3G21G23G26G16G17
  -1138298.329 7  -2133600.04727  20605171.656
   5597114.581 5   -464217.41923  24429446.416
 -17454481.562 7 -13606814.57827  21366311.520
 -10233337.443 6  -7603241.36125  22784407.853
  14172001.761 5  12579600.78325  24728536.400
 -11456863.309 8  -7509677.89729  20301280.436
 92  8 28 22 27  0.0000000  0  6G 3G21G23G26G16G17
  -1115636.810 7  -2115941.72527  20609481.953
   5489896.110 5   -547764.06324  24409041.972
 -17521069.495 8 -13658701.22627  21353640.882
 -10256530.149 6  -7621313.53725  22779990.771
  14275927.673 5  12660581.94425  24748311.640
 -11464620.422 8  -7515722.38729  20299805.427
 92  8 28 22 27 30.0000000  0  5G 3G21G23G26G17
  -1092509.062 8  -2097920.07627  20613885.454
   5382798.123 5   -631216.81224  24388667.927
 -17587244.740 7 -13710266.26128  21341046.781
 -10279217.774 6  -7638992.17125  22775673.519
 -11472043.226 8  -7521506.37029  20298394.274
 92  8 28 22 28  0.0000000  0  5G 3G21G23G26G17
  -1068916.962 7  -2079536.64827  20618374.726
   5275805.754 5   -714587.29725  24368304.734
 -17653006.433 7 -13761509.05628  21328531.345
 -10301400.294 6  -7656277.20325  22771464.973
 -11479135.884 8  -7527033.10729  20297049.225
 92  8 28 22 28 30.0000000  0  5G 3G21G23G26G17
  -1044865.255 7  -2060795.05627  20622951.118
   5168913.770 5   -797879.50825  24347961.897
  17661801.28217    -16619.74231  21316092.716
 -10323076.067 6  -7673167.38225  22767327.207
 -11485910.104 8  -7532311.70829  20295756.280
 92  8 28 22 29  0.0000000  0  5G 3G21G23G26G17
  -1020354.383 7  -2041695.67827  20627616.848
   5062115.431 5   -881098.83325  24327645.801
  17596829.025 7    -67253.24621  21303730.984
 -10344231.140 6  -7689651.80025  22763305.192
 -11492370.600 8  -7537345.84129  20294526.771
 92  8 28 22 29 30.0000000  0  5G 3G21G23G26G17
   -995389.527 7  -2022242.54027  20632364.541
   4955409.282 5   -964246.25325  24307335.792
  17532241.365 7   -117584.63625  21291439.913
 -10364871.013 6  -7705734.77725  22759380.219
 -11498533.397 8  -7542148.02129  20293352.065
 92  8 28 22 30  0.0000000  0  5G 3G21G23G26G17
   -969973.049 7  -2002437.50427  20637201.393
   4848796.200 5  -1047321.19825  24287045.208
  17468025.532 7   -167622.86726  21279217.944
 -10385013.068 6  -7721429.86025  22755541.047
 -11504416.072 8  -7546731.91029  20292233.719
 92  8 28 22 30 30.0000000  0  5G 3G21G23G26G17
   -944107.260 7  -1982282.35427  20642126.203
   4742285.594 5  -1130316.27225  24266775.761
  17404178.341 7   -217373.85826  21267067.955
 -10404661.529 6  -7736740.31125  22751805.873
 -11510020.048 8  -7551098.63029  20291170.325
 92  8 28 22 31  0.0000000  0  5G 3G21G23G26G17
   -917793.777 7  -1961778.34727  20647132.737
   4635871.802 5  -1213235.90524  24246531.735
  17340707.613 8   -266831.53027  21254994.204
 -10423814.319 6  -7751664.51225  22748158.568
 -11515333.187 8  -7555238.72729  20290154.928
 92  8 28 22 31 30.0000000  0  5G 3G21G23G26G17
   -891028.590 7  -1940922.35627  20652222.884
   4529562.271 5  -1296074.32024  24226301.141
  17277608.144 7   -315999.87027  21242982.389
 -10442451.487 6  -7766186.94425  22744615.530
 -11520362.664 8  -7559157.79129  20289199.519
 92  8 28 22 32  0.0000000  0  6G 3G21G23G26G28G17
   -863807.200 7  -1919710.88727  20657406.115
   4423374.009 5  -1378818.13324  24206091.502
  17214897.841 7   -364864.99927  21231052.208
 -10460554.125 6  -7780292.90325  22741170.585
    836624.93415   -327637.02333  24742929.376
 -11525103.237 8  -7562851.72629  20288294.386
 92  8 28 22 32 30.0000000  0  6G 3G21G23G26G28G17
   -836128.244 7  -1898142.88127  20662672.809
   4317310.850 5  -1461464.52924  24185905.246
  17152595.411 7   -413412.25927  21219196.796
 -10478112.227 6  -7793974.47625  22737828.439
    726960.770 5   -413089.47424  24722054.018
 -11529546.120 8  -7566313.70629  20287452.929
 92  8 28 22 33  0.0000000  0  6G 3G21G23G26G28G17
   -807989.876 8  -1876216.87226  20668029.921
   4211371.762 5  -1544014.22324  24165749.000
  17090706.872 7   -461637.03327  21207414.532
 -10495125.007 6  -7807231.14725  22734589.241
    617320.113 5   -498523.59025  24701191.041
 -11533693.748 8  -7569545.61129  20286659.408
 92  8 28 22 33 30.0000000  0  6G 3G21G23G26G28G17
   -779377.895 7  -1853921.83326  20673474.991
   4105581.322 5  -1626448.09724  24145613.080
  17029253.380 7   -509522.81527  21195723.676
 -10511589.850 6  -7820060.86925  22731463.156
    507731.787 5   -583917.15124  24680341.345
 -11537546.307 8  -7572547.60029  20285930.373
 92  8 28 22 34  0.0000000  0  6G 3G21G23G26G28G17
   -750289.897 8  -1831255.86626  20679005.113
   3999931.955 5  -1708772.06925  24125513.974
  16968249.594 8   -557058.17427  21184117.301
 -10527525.916 6  -7832478.54925  22728424.909
    398195.569 5   -669269.90724  24659502.532
 -11541084.237 8  -7575304.40929  20285252.872
 92  8 28 22 34 30.0000000  0  6G 3G21G23G26G28G17
   -720729.217 8  -1808221.58226  20684632.067
   3894410.759 5  -1790996.15725  24105431.177
  16907671.903 8   -604261.51028  21172587.673
 -10542950.651 6  -7844497.78225  22725484.035
    288710.707 5   -754582.62724  24638669.204
 -11544307.546 8  -7577816.07229  20284637.518
 92  8 28 22 35  0.0000000  0  6G 3G21G23G26G28G17
   -690688.779 7  -1784813.43626  20690348.540
   3789033.601 5  -1873108.02625  24085380.128
  16847511.902 8   -651139.35028  21161138.509
 -10557845.744 6  -7856104.32825  22722656.692
    179292.780 5   -839843.20025  24617844.391
 -11547216.556 8  -7580082.81029  20284085.750
 92  8 28 22 35 30.0000000  0  6G 3G21G23G26G28G17
   -660168.993 7  -1761031.79726  20696156.539
   3683796.371 5  -1955110.87125  24065349.016
  16787763.721 8   -697696.34628  21149768.430
 -10572208.285 6  -7867295.88325  22719920.606
     69944.590 5   -925049.42725  24597039.184
 -11549793.379 8  -7582090.71829  20283602.574
 92  8 28 22 36  0.0000000  0  6G 3G21G23G26G28G17
   -629169.860 7  -1736876.63426  20702057.834
   3578691.420 5  -2037010.62025  24045355.557
  16728411.715 8   -743944.59628  21138474.649
 -10586033.409 6  -7878068.67425  22717289.418
    -39337.057 5  -1010203.81925  24576239.433
 -11552030.015 8  -7583833.52929  20283170.963
 92  8 28 22 36 30.0000000  0  6G 3G21G23G26G28G17
   -597681.472 7  -1712340.22126  20708045.468
   3473741.238 5  -2118789.74225  24025378.197
  16669454.310 8   -789885.38128  21127257.854
 -10599302.884 6  -7888408.49625  22714764.746
   -148537.565 5  -1095295.00425  24555461.688
 -11553928.659 8  -7585312.97329  20282809.053
 92  8 28 22 37  0.0000000  0  6G 3G21G23G26G28G17
   -565700.375 7  -1687419.89226  20714136.712
   3368936.711 5  -2200455.40925  24005433.754
  16610910.446 8   -835503.90228  21116116.247
 -10612010.722 6  -7898310.66025  22712344.731
   -257658.967 5  -1180324.56325  24534694.854
 -11555483.886 8  -7586524.82629  20282516.786
 92  8 28 22 37 30.0000000  0  6G 3G21G23G26G28G17
   -533230.355 7  -1662118.58726  20720312.586
   3264264.445 5  -2282018.02725  23985513.984
  16552782.296 8   -880798.51828  21105054.205
 -10624180.023 6  -7907793.20925  22710033.061
   -366722.057 5  -1265308.67025  24513939.233
 -11556703.429 8  -7587475.10329  20282283.547
 92  8 28 22 38  0.0000000  0  6G 3G21G23G26G28G17
   -500271.557 7  -1636436.41526  20726580.677
   3159733.713 5  -2363469.53625  23965629.320
  16495074.905 8   -925765.26028  21094071.068
 -10635805.125 6  -7916851.71425  22707819.694
   -475730.684 5  -1350250.31625  24493198.332
 -11557622.406 8  -7588191.17629  20282110.867
 92  8 28 22 38 30.0000000  0  6G 3G21G23G26G28G17
   -466829.405 7  -1610377.59726  20732947.969
   3055340.849 5  -2444814.42225  23945756.138
  16437806.407 8   -970390.00028  21083174.782
 -10646879.825 6  -7925481.31325  22705708.885
   -584695.341 5  -1435157.70025  24472466.814
 -11558251.431 8  -7588681.30529  20281988.342
 92  8 28 22 39  0.0000000  0  6G 3G21G23G26G28G17
   -432905.292 7  -1583943.22826  20739402.231
   2951086.041 6  -2526051.73725  23925921.000
  16380988.405 8  -1014663.71128  21072362.707
 -10657398.200 6  -7933677.39625  22703705.792
   -693619.079 5  -1520033.21525  24451731.099
 -11558588.698 8  -7588944.10529  20281921.758
 92  8 28 22 39 30.0000000  0  6G 3G21G23G26G28G17
   -398507.133 7  -1557139.49226  20745947.899
   2846984.418 6  -2607169.68925  23906111.343
  16324601.678 8  -1058601.36828  21061631.936
 -10667356.788 6  -7941437.30625  22701814.161
   -802509.297 5  -1604882.60025  24431011.723
 -11558647.303 8  -7588989.75729  20281915.012
 92  8 28 22 40  0.0000000  0  6G 3G21G23G26G28G17
   -363625.106 7  -1529958.68826  20752585.454
   2743044.780 6  -2688161.44525  23886326.510
  16268659.988 8  -1102192.24128  21050986.905
 -10676729.833 6  -7948740.97125  22700033.484
   -911338.760 5  -1689684.62125  24410304.668
 -11558408.443 8  -7588803.62529  20281959.741
 92  8 28 22 40 30.0000000  0  6G 3G21G23G26G28G17
   -328254.233 7  -1502396.97726  20759318.553
   2639268.709 5  -2769025.72325  23866585.806
  16213168.240 7  -1145432.51628  21040425.816
 -10685530.491 6  -7955598.58125  22698358.963
  -1020102.953 5  -1774435.87025  24389606.877
 -11557837.672 8  -7588358.85129  20282065.418
 92  8 28 22 41  0.0000000  0  6G 3G21G23G26G28G17
   -292392.714 7  -1474452.95726  20766141.979
   2535662.520 6  -2849757.63925  23846865.698
  16158098.900 8  -1188343.62928  21029949.599
 -10693772.340 6  -7962020.76425  22696788.021
  -1128794.739 5  -1859130.72925  24368925.814
 -11556935.346 8  -7587655.73429  20282238.638
 92  8 28 22 41 30.0000000  0  6G 3G21G23G26G28G17
   -256038.036 7  -1446124.64426  20773060.350
   2432221.333 6  -2930360.96725  23827188.311
  16103455.365 8  -1230922.95828  21019548.989
 -10701458.562 6  -7968009.98225  22695329.740
  -1237403.243 5  -1943760.63125  24348255.543
 -11555701.771 8  -7586694.48329  20282472.656
 92  8 28 22 42  0.0000000  0  6G 3G21G23G26G28G17
   -219196.477 7  -1417416.94426  20780069.617
   2328934.120 6  -3010844.30925  23807527.891
  16049246.811 8  -1273163.33628  21009232.591
 -10708603.910 6  -7973577.76525  22693966.344
  -1345915.227 5  -2028315.26525  24327605.839
 -11554142.509 8  -7585479.46529  20282770.080
 92  8 28 22 42 30.0000000  0  6G 3G21G23G26G28G17
   -181871.110 7  -1388332.23726  20787174.159
   2225808.176 6  -3091202.03625  23787904.346
  15995472.206 8  -1315065.59028  20999000.914
 -10715223.250 6  -7978735.66725  22692708.505
  -1454333.708 5  -2112797.07825  24306971.574
 -11552263.205 8  -7584015.06729  20283129.262
 92  8 28 22 43  0.0000000  0  6G 3G21G23G26G28G17
   -144064.712 7  -1358872.73426  20794369.538
   2122844.865 6  -3171432.99825  23768311.141
  15942129.828 8  -1356631.00028  20988848.982
 -10721299.955 6  -7983470.70925  22691543.991
  -1562654.971 5  -2197203.07625  24286362.401
 -11550085.587 8  -7582318.21029  20283542.706
 92  8 28 22 43 30.0000000  0  6G 3G21G23G26G28G17
   -105776.708 7  -1329037.93326  20801656.263
   2020051.850 6  -3251531.30725  23748746.565
  15889236.387 8  -1397846.62028  20978780.482
 -10726825.407 6  -7987776.21225  22690495.587
  -1670870.415 5  -2281526.66025  24265766.060
 -11547608.528 8  -7580388.02629  20284013.080
 92  8 28 22 44  0.0000000  0  6G 3G21G23G26G28G17
    -67012.493 7  -1298832.04626  20809029.988
   1917434.418 6  -3331492.77525  23729226.239
  15836776.963 8  -1438724.05228  20968802.160
 -10731806.508 6  -7991657.58025  22689546.174
  -1778995.002 5  -2365779.49425  24245187.526
 -11544830.180 8  -7578223.05929  20284545.002
 92  8 28 22 44 30.0000000  0  6G 3G21G23G26G28G17
    -27770.325 7  -1268253.74526  20816497.549
   1814995.408 6  -3411315.21925  23709729.746
  15784738.716 8  -1479273.29528  20958899.236
 -10736232.204 6  -7995106.15625  22688711.672
  -1887043.265 5  -2449972.82825  24224625.181
 -11541745.326 8  -7575819.27929  20285126.449
 92  8 28 22 45  0.0000000  0  6G 3G21G23G26G28G17
     11957.462 7  -1237297.04026  20824056.636
   1712743.506 6  -3490991.85925  23690271.986
  15733114.359 8  -1519500.01328  20949077.316
 -10740093.322 6  -7998114.78225  22687974.152
  -1995009.025 5  -2534101.84525  24204088.528
 -11538351.819 8  -7573174.97629  20285773.671
 92  8 28 22 45 30.0000000  0  6G 3G21G23G26G28G17
     52175.830 7  -1205958.04626  20831708.688
   1610683.248 6  -3570519.19225  23670852.240
  15681909.979 8  -1559399.48228  20939333.371
 -10743397.604 6  -8000689.51125  22687346.417
  -2102891.672 5  -2618166.13625  24183557.302
 -11534633.815 8  -7570277.81629  20286483.220
 92  8 28 22 46  0.0000000  0  6G 3G21G23G26G28G17
     92889.920 7  -1174232.79926  20839460.692
   1508814.762 6  -3649897.11425  23651463.612
  15631135.288 8  -1598964.13828  20929670.431
 -10746142.179 6  -8002828.11625  22686822.679
  -2210691.069 5  -2702165.46725  24163046.281
 -11530587.830 8  -7567125.09329  20287250.719
 92  8 28 22 46 30.0000000  0  6G 3G21G23G26G28G17
    134098.364 7  -1142122.33126  20847301.643
   1407125.212 6  -3729135.53425  23632110.540
  15580803.495 8  -1638183.67828  20920090.593
 -10748332.858 6  -8004535.11025  22686405.308
  -2318394.804 6  -2786090.32525  24142551.479
 -11526230.030 8  -7563729.39529  20288078.685
 92  8 28 22 47  0.0000000  0  6G 3G21G23G26G28G17
    175798.084 7  -1109629.04526  20855237.060
   1305602.873 6  -3808243.68825  23612793.803
  15530924.011 8  -1677050.75728  20910601.442
 -10749983.957 6  -8005821.65025  22686091.306
  -2426000.891 6  -2869939.08425  24122077.303
 -11521569.803 8  -7560098.04029  20288969.998
 92  8 28 22 47 30.0000000  0  6G 3G21G23G26G28G17
    217996.533 7  -1076747.15926  20863266.101
   1204245.151 6  -3887223.55825  23593505.666
  15481520.823 8  -1715546.69828  20901198.811
 -10751077.811 6  -8006673.96425  22685883.430
  -2533500.896 5  -2953705.23425  24101610.712
 -11516593.828 8  -7556220.64329  20289915.304
 92  8 28 22 48  0.0000000  0  6G 3G21G23G26G28G17
    260685.066 7  -1043483.37726  20871386.790
   1103042.555 6  -3966082.54125  23574246.699
  15432579.532 8  -1753682.73428  20891884.110
 -10751617.963 6  -8007094.84225  22685779.911
  -2640896.624 5  -3037390.17425  24081177.338
 -11511314.007 8  -7552106.48529  20290922.127
 92  8 28 22 48 30.0000000  0  6G 3G21G23G26G28G17
    303866.976 7  -1009835.15426  20879606.859
   1002004.177 6  -4044813.58725  23555024.516
  15384090.264 8  -1791466.54228  20882658.207
 -10751604.202 6  -8007084.07425  22685784.348
  -2748174.586 5  -3120983.29525  24060761.411
 -11505722.436 8  -7547749.41229  20291983.812
 92  8 28 22 49  0.0000000  0  6G 3G21G23G26G28G17
    347541.428 7   -975803.11326  20887915.187
    901152.562 6  -4123399.09025  23535824.248
  15336028.843 8  -1828916.94228  20873511.808
 -10751023.888 6  -8006631.85525  22685895.152
  -2855350.678 5  -3204496.99625  24040368.389
 -11499809.443 8  -7543141.88229  20293109.623
 92  8 28 22 49 30.0000000  0  6G 3G21G23G26G28G17
    391703.107 7   -941391.42726  20896319.899
    800497.684 6  -4201831.33725  23516671.977
  15288378.396 8  -1866047.12128  20864446.444
 -10749875.261 6  -8005736.76525  22686109.203
  -2962421.896 5  -3287928.97225  24019987.838
 -11493576.905 8  -7538285.34129  20294293.683
 92  8 28 22 50  0.0000000  0  6G 3G21G23G26G28G17
    436358.192 7   -906595.27726  20904818.955
    700057.399 6  -4280096.33725  23497561.946
  15241137.004 8  -1902858.55328  20855452.731
 -10748165.725 6  -8004404.63025  22686437.776
  -3069366.572 5  -3371262.35725  23999646.890
 -11487022.166 8  -7533177.74829  20295543.458
 92  8 28 22 50 30.0000000  0  6G 3G21G23G26G28G17
    481503.805 7   -871416.87326  20913409.028
    599831.566 6  -4358194.22225  23478488.671
  15194307.654 8  -1939348.91128  20846543.918
 -10745895.397 6  -8002635.53525  22686866.359
  -3176187.331 5  -3454499.17025  23979318.173
 -11480150.723 8  -7527823.36629  20296851.482
 92  8 28 22 51  0.0000000  0  6G 3G21G23G26G28G17
    527137.487 7   -835858.18326  20922092.697
    499810.219 6  -4436132.73525  23459452.329
  15147896.089 8  -1975513.72729  20837713.831
 -10743062.593 6  -8000428.12425  22687410.003
  -3282885.320 5  -3537640.39425  23959012.061
 -11472969.135 8  -7522227.32129  20298220.934
 92  8 28 22 51 30.0000000  0  6G 3G21G23G26G28G17
    573255.216 7   -799922.30926  20930870.740
    399961.974 6  -4513936.40025  23440456.460
  15101920.938 8  -2011338.47829  20828965.737
 -10739675.075 6  -7997788.45325  22688051.079
  -3389437.649 5  -3620668.05625  23938734.249
 -11465483.423 8  -7516394.28429  20299641.830
 92  8 28 22 52  0.0000000  0  6G 3G21G23G26G28G17
    619853.697 7   -763611.82326  20939734.374
    300279.035 6  -4591611.29025  23421480.916
  15056400.245 8  -2046809.10929  20820300.416
 -10735731.989 6  -7994715.87725  22688799.481
  -3495853.115 5  -3703589.09725  23918484.708
 -11457699.270 8  -7510328.70029  20301123.405
 92  8 28 22 52 30.0000000  0  6G 3G21G23G26G28G17
    666929.505 7   -726929.38226  20948693.611
    200756.285 6  -4669161.32025  23402546.234
  15011340.898 8  -2081920.25529  20811725.093
 -10731225.551 6  -7991204.35025  22689664.172
  -3602151.633 5  -3786418.92325  23898254.772
 -11449620.675 8  -7504033.67629  20302658.402
 92  8 28 22 53  0.0000000  0  6G 3G21G23G26G28G17
    714483.385 7   -689874.43326  20957744.495
    101396.257 6  -4746584.57825  23383637.874
  14966744.586 8  -2116670.58329  20803238.358
 -10726153.786 6  -7987252.29725  22690627.795
  -3708321.965 5  -3869148.97125  23878048.611
 -11441242.098 8  -7497504.90629  20304256.146
 92  8 28 22 53 30.0000000  0  6G 3G21G23G26G28G17
    762514.552 7   -652447.57026  20966883.908
      2207.351 6  -4823874.46025  23364758.085
  14922618.812 8  -2151054.26029  20794840.541
 -10720525.283 6  -7982866.41625  22691697.005
  -3814368.075 5  -3951782.08225  23857870.780
 -11432562.759 8  -7490741.78029  20305905.064
 92  8 28 22 54  0.0000000  0  6G 3G21G23G26G28G17
    811028.046 7   -614644.86226  20976116.407
    -96783.421 6  -4901009.97625  23345929.140
  14878953.323 8  -2185079.27629  20786534.552
 -10714343.468 6  -7978049.37725  22692874.950
  -3920300.618 5  -4034326.85125  23837713.514
 -11423577.455 8  -7483740.23629  20307615.410
 92  8 28 22 54 30.0000000  0  6G 3G21G23G26G28G17
    860017.948 7   -576470.91726  20985437.194
   -195581.598 6  -4977995.39125  23327123.878
  14835718.566 8  -2218768.66629  20778307.737
 -10707623.416 6  -7972812.95925  22694154.224
  -4026104.805 5  -4116771.53325  23817581.491
 -11414297.621 8  -7476509.18629  20309384.666
 92  8 28 22 55  0.0000000  0  6G 3G21G23G26G28G17
    909483.867 7   -537926.07126  20994851.337
   -294184.892 6  -5054829.00725  23308366.224
  14792907.586 8  -2252127.81429  20770160.397
 -10700372.050 6  -7967162.50925  22695532.580
  -4131769.438 6  -4199107.52925  23797469.944
 -11404725.785 8  -7469050.59929  20311203.386
 92  8 28 22 55 30.0000000  0  6G 3G21G23G26G28G17
    959422.017 7   -499013.25126  21004349.991
   -392595.177 6  -5131512.14025  23289637.080
  14750521.520 8  -2285155.88129  20762096.670
 -10692588.770 6  -7961097.59525  22697012.805
  -4237303.667 5  -4281341.83825  23777389.426
 -11394873.086 8  -7461373.17329  20313077.059
 92  8 28 22 56  0.0000000  0  6G 3G21G23G26G28G17
   1009837.950 7   -459728.10826  21013948.746
   -490798.199 6  -5208033.79925  23270952.335
  14708559.228 8  -2317853.73129  20754111.817
 -10684255.951 6  -7954604.43925  22698597.208
  -4342691.098 6  -4363461.84025  23757329.833
 -11384739.956 8  -7453477.21229  20315006.853
 92  8 28 22 56 30.0000000  0  6G 3G21G23G26G28G17
   1060735.809 7   -420067.46026  21023633.451
   -588795.295 6  -5284395.02925  23252297.899
  14667036.977 8  -2350208.70129  20746206.530
 -10675365.155 6  -7947676.51925  22700289.716
  -4447918.869 6  -4445457.37925  23737310.172
 -11374306.091 8  -7445346.92329  20316989.501
 92  8 28 22 57  0.0000000  0  6G 3G21G23G26G28G17
   1112116.549 7   -380030.55926  21033409.983
   -686579.182 6  -5360590.08525  23233693.289
  14625956.636 8  -2382219.30429  20738390.581
 -10665903.025 6  -7940303.42125  22702091.469
  -4553005.469 6  -4527342.88425  23717313.206
 -11363556.250 8  -7436970.40829  20319039.242
 92  8 28 22 57 30.0000000  0  6G 3G21G23G26G28G17
   1163981.730 7   -339616.14426  21043283.738
   -784152.431 6  -5436621.02525  23215122.915
  14585308.527 8  -2413893.11929  20730654.586
 -10655869.326 6  -7932484.94925  22704000.488
  -4657944.596 6  -4609113.59025  23697341.962
 -11352489.695 8  -7428347.12429  20321143.185
 92  8 28 22 58  0.0000000  0  6G 3G21G23G26G28G17
   1216328.092 7   -298826.79126  21053241.164
   -881510.731 6  -5512484.47425  23196594.782
  14545067.266 8  -2445249.90429  20722996.418
 -10645281.098 6  -7924234.33425  22706013.804
  -4762746.315 5  -4690777.22325  23677401.746
 -11341096.063 8  -7419468.95429  20323311.464
 92  8 28 22 58 30.0000000  0  6G 3G21G23G26G28G17
   1269157.855 7   -257660.75926  21063294.405
   -978673.434 6  -5588195.52125  23178102.923
  14505230.866 8  -2476291.22329  20715416.226
 -10634143.694 6  -7915555.81725  22708135.795
  -4867419.332 5  -4772340.45725  23657482.995
 -11329362.964 8  -7410326.25729  20325541.351
 92  8 28 22 59  0.0000000  0  6G 3G21G23G26G28G17
   1322474.907 7   -216115.02726  21073441.390
  -1075632.734 6  -5663748.02925  23159659.301
  14465807.860 8  -2507010.40029  20707912.840
 -10622451.110 7  -7906444.70225  22710360.914
  -4971959.726 6  -4853800.40925  23637590.027
 -11317314.129 8  -7400937.54729  20327838.061
 92  8 28 22 59 30.0000000  0  6G 3G21G23G26G28G17
   1376283.681 7   -174186.11726  21083683.020
  -1172382.633 6  -5739137.39025  23141247.817
  14426827.057 8  -2537385.02929  20700496.634
 -10610205.588 6  -7896902.74325  22712691.741
  -5076356.072 6  -4935148.09525  23617723.200
 -11304947.692 8  -7391301.36729  20330189.513
 92  8 28 23  0  0.0000000  0  6G 3G21G23G26G28G17
   1430586.308 7   -131872.40226  21094015.667
  -1268914.366 6  -5814356.73025  23122878.784
  14388314.109 8  -2567395.08129  20693168.298
 -10597399.347 6  -7886923.81225  22715123.897
  -5180604.504 6  -5016380.56125  23597887.223
 -11292257.028 8  -7381412.52429  20332602.602
 92  8 28 23  0 30.0000000  0  6G 3G21G23G26G28G17
   1485390.725 7    -89167.69926  21104445.087
  -1365228.120 6  -5889406.27225  23104552.861
  14350319.086 8  -2597001.54929  20685937.663
 -10584010.497 6  -7876490.92725  22717674.411
  -5284681.712 6  -5097479.63825  23578077.926
 -11279253.637 8  -7371280.00329  20335079.008
 92  8 28 23  1  0.0000000  0  6G 3G21G23G26G28G17
   1540704.237 7    -46066.28426  21114967.982
  -1461296.055 6  -5964264.23825  23086271.607
  14312854.853 8  -2626194.40829  20678807.459
 -10570031.119 6  -7865597.91025  22720337.857
  -5388572.361 6  -5178433.28125  23558307.153
 -11265941.717 8  -7360907.07129  20337613.003
 92  8 28 23  1 30.0000000  0  6G 3G21G23G26G28G17
   1596520.969 7     -2572.73726  21125588.969
  -1557133.035 6  -6038942.25725  23068030.135
  14275900.071 8  -2654990.32329  20671776.337
 -10555468.212 6  -7854250.14925  22723107.910
  -5492270.380 6  -5259236.79825  23538579.371
 -11252317.318 8  -7350290.64929  20340204.679
 92  8 28 23  2  0.0000000  0  6G 3G21G23G26G28G17
   1652829.884 7     41304.30826  21136305.950
  -1652753.464 6  -6113451.54625  23049833.452
  14239434.747 8  -2683404.82929  20664837.401
 -10540329.966 6  -7842454.09825  22725989.995
  -5595780.981 6  -5339894.32925  23518883.816
 -11238402.662 8  -7339448.05629  20342853.436
 92  8 28 23  2 30.0000000  0  6G 3G21G23G26G28G17
   1709632.656 7     85566.17426  21147116.556
  -1748157.127 6  -6187791.93725  23031677.931
  14203439.475 8  -2711453.05429  20657988.162
 -10524618.408 6  -7830211.29025  22728974.338
  -5699094.539 6  -5420398.35325  23499220.608
 -11224203.596 8  -7328383.83129  20345554.746
 92  8 28 23  3  0.0000000  0  6G 3G21G23G26G28G17
   1766922.519 7    130207.62826  21158016.350
  -1843343.144 6  -6261962.70625  23013567.619
  14167858.966 8  -2739178.07129  20651217.380
 -10508355.258 6  -7817538.69025  22732072.124
  -5802206.437 6  -5500745.19325  23479596.194
 -11209715.601 8  -7317094.48029  20348314.935
 92  8 28 23  3 30.0000000  0  6G 3G21G23G26G28G17
   1824705.090 7    175232.98226  21169012.198
  -1938302.089 6  -6335956.55425  22995493.101
  14132705.844 8  -2766570.09229  20644529.999
 -10491531.751 6  -7804429.45525  22735277.775
  -5905103.896 6  -5580924.91025  23460019.237
 -11194926.846 8  -7305570.77129  20351126.658
 92  8 28 23  4  0.0000000  0  6G 3G21G23G26G28G17
   1882973.019 7    220636.51226  21180102.540
  -2033022.504 6  -6409764.53225  22977471.048
  14097986.594 8  -2793624.01329  20637920.895
 -10474162.935 6  -7790895.28825  22738577.590
  -6007791.674 6  -5660941.25025  23440475.706
 -11179834.512 8  -7293810.50229  20353999.899
 92  8 28 23  4 30.0000000  0  6G 3G21G23G26G28G17
   1941728.316 7    266419.85126  21191281.801
  -2127495.970 6  -6483380.07725  22959492.914
  14063690.929 8  -2820347.88229  20631393.094
 -10456250.696 6  -7776937.68125  22741989.738
  -6110269.602 6  -5740794.05525  23420976.575
 -11164423.612 8  -7281801.99629  20356932.289
 92  8 28 23  5  0.0000000  0  6G 3G21G23G26G28G17
   2000972.141 7    312583.85126  21202555.736
  -2221709.928 6  -6556793.40125  22941566.044
  14029834.906 8  -2846729.15529  20624951.693
 -10437777.434 6  -7762542.90825  22745504.325
  -6212545.866 6  -5820489.80625  23401513.329
 -11148677.389 8  -7269532.19829  20359924.098
 92  8 28 23  5 30.0000000  0  6G 3G21G23G26G28G17
   2060701.823 7    359126.43126  21213921.558
  -2315669.462 6  -6630008.49725  22923678.987
  13996442.042 8  -2872749.54629  20618595.913
 -10418737.430 6  -7747706.51625  22749127.587
  -6314638.478 6  -5900042.43525  23382084.740
 -11132594.736 8  -7257000.25829  20362988.696
 92  8 28 23  6  0.0000000  0  6G 3G21G23G26G28G17
   2120916.004 7    406046.53926  21225380.765
  -2409380.787 6  -6703030.21425  22905849.490
  13963490.649 8  -2898425.92529  20612327.583
 -10399135.769 6  -7732432.48425  22752857.125
  -6416549.967 6  -5979453.83825  23362692.964
 -11116172.277 8  -7244203.51929  20366111.335
 92  8 28 23  6 30.0000000  0  6G 3G21G23G26G28G17
   2181614.871 7    453344.35126  21236930.419
  -2502852.638 6  -6775865.31925  22888063.194
  13930967.817 8  -2923768.34429  20606136.688
 -10378958.051 6  -7716709.55625  22756693.119
  -6518284.558 6  -6058727.46025  23343331.558
 -11099424.385 8  -7231153.21529  20369296.989
 92  8 28 23  7  0.0000000  0  6G 3G21G23G26G28G17
   2242796.592 7    501018.39426  21248571.450
  -2596094.138 6  -6848520.92125  22870320.756
  13898880.217 8  -2948771.64029  20600031.025
 -10358216.873 6  -7700547.59225  22760640.966
  -6619834.162 6  -6137856.91625  23324009.304
 -11082359.014 8  -7217855.51229  20372544.971
 92  8 28 23  7 30.0000000  0  6G 3G21G23G26G28G17
   2304450.459 7    549060.33126  21260305.627
  -2689119.204 6  -6921007.85525  22852620.560
  13867219.382 8  -2973442.38829  20594006.606
 -10336938.009 6  -7683966.65425  22764691.222
  -6721193.049 6  -6216837.79325  23304719.129
 -11065002.594 8  -7204331.02129  20375850.003
 92  8 28 23  8  0.0000000  0  6G 3G21G23G26G28G17
   2366570.085 7    597465.21226  21272127.433
  -2781931.041 6  -6993328.66425  22834955.499
  13835982.408 8  -2997782.86029  20588060.312
 -10315116.880 6  -7666963.16725  22768844.037
  -6822354.776 6  -6295665.03725  23285468.136
 -11047371.233 8  -7190592.28929  20379206.629
 92  8 28 23  8 30.0000000  0  6G 3G21G23G26G28G17
   2429160.754 7    646237.14126  21284036.358
  -2874532.524 6  -7065485.53225  22817334.718
  13805197.611 8  -3021770.97529  20582204.886
 -10292747.898 6  -7649532.75725  22773104.538
  -6923309.359 6  -6374330.83225  23266259.833
 -11029468.851 8  -7176642.37629  20382613.500
 92  8 28 23  9  0.0000000  0  6G 3G21G23G26G28G17
   2492223.531 7    695376.93126  21296040.708
  -2966916.679 6  -7137473.07625  22799748.742
  13774880.310 8  -3045394.81429  20576434.990
 -10269837.898 6  -7631680.80525  22777459.443
  -7024049.044 6  -6452829.17725  23247090.414
 -11011289.549 8  -7162476.67329  20386071.816
 92  8 28 23  9 30.0000000  0  6G 3G21G23G26G28G17
   2555766.717 7    744891.09026  21308128.460
  -3059061.970 6  -7209274.50025  22782222.036
  13745043.416 8  -3068644.29929  20570756.831
 -10246364.705 6  -7613390.00825  22781927.070
  -7124563.710 6  -6531152.20025  23227957.540
 -10992826.999 8  -7148090.27529  20389581.996
 92  8 28 23 10  0.0000000  0  6G 3G21G23G26G28G17
   2619790.654 7    794779.84326  21320309.987
  -3150975.675 6  -7280895.47525  22764729.596
  13715679.874 8  -3091524.95929  20565169.389
 -10222334.235 6  -7594664.92825  22786502.083
  -7224863.115 6  -6609307.53925  23208873.621
 -10974074.315 8  -7133477.78429  20393153.214
 92  8 28 23 10 30.0000000  0  6G 3G21G23G26G28G17
   2684289.428 7    845038.59326  21332585.318
  -3242659.522 6  -7352337.32825  22747280.326
  13686778.854 8  -3114045.18629  20559669.757
 -10197768.901 6  -7575523.08725  22791173.689
  -7324950.790 6  -6687297.88825  23189830.265
 -10955029.951 8  -7118638.01529  20396777.495
 92  8 28 23 11  0.0000000  0  6G 3G21G23G26G28G17
   2749260.838 7    895665.62826  21344948.040
  -3334090.022 6  -7423581.74625  22729882.140
  13658325.341 8  -3136216.72729  20554254.905
 -10172669.045 6  -7555964.78025  22795950.912
  -7424825.952 6  -6765122.57725  23170823.213
 -10935689.522 8  -7103567.56029  20400460.145
 92  8 28 23 11 30.0000000  0  6G 3G21G23G26G28G17
   2814708.357 7    946663.68026  21357401.808
  -3425270.703 6  -7494631.52825  22712532.041
  13630319.602 8  -3158039.35429  20548925.435
 -10147026.522 6  -7535983.59425  22800833.481
  -7524489.297 6  -6842782.23025  23151861.340
 -10916039.394 8  -7088255.77029  20404194.840
 92  8 28 23 12  0.0000000  0  6G 3G21G23G26G28G17
   2880632.879 7    998033.40525  21369949.322
  -3516197.964 6  -7565483.82025  22695230.899
  13602760.649 8  -3179513.83729  20543679.726
 -10120841.774 6  -7515579.87825  22805816.302
  -7623936.145 6  -6920273.26625  23132931.605
 -10896074.951 8  -7072699.05629  20407996.958
 92  8 28 23 12 30.0000000  0  6G 3G21G23G26G28G17
   2947035.362 7   1049775.54225  21382584.944
  -3606846.897 6  -7636119.26425  22677980.331
  13575653.484 8  -3200636.25529  20538523.266
 -10094104.596 6  -7494745.68625  22810897.724
  -7723151.227 6  -6997583.63525  23114054.093
 -10875798.394 8  -7056899.13829  20411853.248
 92  8 28 23 13  0.0000000  0  6G 3G21G23G26G28G17
   3013915.525 7   1101889.93625  21395311.464
  -3697223.896 6  -7706542.81125  22660780.278
  13549009.973 8  -3221397.40829  20533450.388
 -10066807.714 6  -7473475.39625  22816096.995
  -7822133.647 6  -7074712.70525  23095221.581
 -10855210.734 8  -7040856.81229  20415772.885
 92  8 28 23 13 30.0000000  0  6G 3G21G23G26G28G17
   3081273.815 7   1154376.89725  21408129.031
  -3787341.062 6  -7776763.84225  22643631.370
  13522840.023 8  -3241789.54029  20528473.653
 -10038957.457 6  -7451773.90625  22821402.392
  -7920874.220 6  -7151653.33825  23076424.504
 -10834312.414 8  -7024572.38529  20419748.073
 92  8 28 23 14  0.0000000  0  6G 3G21G23G26G28G17
   3149113.462 7   1207238.91425  21421040.822
  -3877178.433 6  -7846766.89425  22626535.855
  13497146.372 8  -3261810.54829  20523583.559
 -10010557.244 6  -7429643.85225  22826796.138
  -8019353.543 6  -7228390.39825  23057686.336
 -10813106.959 8  -7008048.65829  20423782.799
 92  8 28 23 14 30.0000000  0  6G 3G21G23G26G28G17
   3217426.016 7   1260469.45225  21434039.103
  -3966757.911 6  -7916568.94125  22609490.885
  13471909.456 8  -3281475.63329  20518782.053
  -9981621.041 6  -7407096.17025  22832300.927
  -8117590.461 6  -7304938.58325  23038994.336
 -10791597.325 8  -6991287.88629  20427879.253
 92  8 28 23 15  0.0000000  0  6G 3G21G23G26G28G17
   3286159.294 7   1314027.82625  21447118.988
  -4056153.072 6  -7986227.38725  22592481.231
  13447072.156 8  -3300829.34429  20514052.767
  -9952203.349 6  -7384173.29025  22837904.618
  -8215638.849 6  -7381339.82325  23020334.114
 -10769824.731 8  -6974322.23029  20432022.265
 92  8 28 23 15 30.0000000  0  6G 3G21G23G26G28G17
   3355441.803 7   1368014.15625  21460302.362
  -4145228.815 6  -8055636.97525  22575526.258
  13422739.088 8  -3319790.14329  20509423.192
  -9922177.782 6  -7360776.74125  22843615.724
  -8313366.566 6  -7457491.21025  23001738.168
 -10747658.943 8  -6957050.17829  20436241.754
 92  8 28 23 16  0.0000000  0  6G 3G21G23G26G28G17
   3425272.309 7   1422427.51925  21473593.031
  -4233989.705 6  -8124801.20325  22558639.249
  13398897.245 8  -3338368.19029  20504883.405
  -9891545.547 6  -7336907.47825  22849447.707
  -8410780.453 6  -7533398.09425  22983210.005
 -10725105.435 8  -6939476.02029  20440528.636
 92  8 28 23 16 30.0000000  0  6G 3G21G23G26G28G17
   3495628.683 7   1477250.65425  21486977.685
  -4322468.926 6  -8193745.94425  22541802.935
  13375528.652 8  -3356577.43329  20500442.159
  -9860319.071 6  -7312575.15525  22855387.554
  -8507897.473 6  -7609073.62225  22964714.939
 -10702184.457 8  -6921615.50529  20444892.655
 92  8 28 23 17  0.0000000  0  6G 3G21G23G26G28G17
   3566475.036 7   1532455.57025  21500461.780
  -4410692.066 6  -8262491.11725  22525014.797
  13352607.149 8  -3374438.32629  20496078.740
  -9828536.228 6  -7287809.33525  22861438.535
  -8604730.430 6  -7684527.79425  22946293.951
 -10678937.065 8  -6903500.64529  20449316.243
 92  8 28 23 17 30.0000000  0  6G 3G21G23G26G28G17
   3637801.121 7   1588034.28425  21514034.674
  -4498648.991 6  -8331028.89325  22508272.857
  13330135.023 8  -3391949.05429  20491800.941
  -9796210.924 6  -7262620.77025  22867583.921
  -8701283.351 6  -7759763.72925  22927920.721
 -10655375.257 8  -6885140.77629  20453800.479
 92  8 28 23 18  0.0000000  0  6G 3G21G23G26G28G17
   3709610.541 7   1643989.66925  21527696.276
  -4586322.934 6  -8399346.13625  22491587.698
  13308138.390 8  -3409089.26129  20487616.528
  -9763339.650 6  -7237006.79025  22873844.217
  -8797548.016 6  -7834775.11225  22909600.793
 -10631491.363 8  -6866529.95229  20458342.065
 92  8 28 23 18 30.0000000  0  6G 3G21G23G26G28G17
   3781883.067 7   1700305.88825  21541450.994
  -4673730.547 6  -8467455.87125  22474954.283
  13286601.998 8  -3425870.83529  20483517.916
  -9729936.994 6  -7210978.75025  22880202.425
  -8893540.398 6  -7909574.29925  22891336.238
 -10607298.557 8  -6847678.40329  20462947.476
 92  8 28 23 19  0.0000000  0  6G 3G21G23G26G28G17
   3854619.405 7   1756983.49525  21555290.283
  -4760848.702 6  -8535340.07125  22458379.447
  13265523.860 8  -3442295.34429  20479506.603
  -9696001.660 6  -7184535.62925  22886659.505
  -8989262.250 6  -7984162.68925  22873121.567
 -10582793.906 8  -6828583.85529  20467612.787
 92  8 28 23 19 30.0000000  0  6G 3G21G23G26G28G17
   3927819.725 7   1814022.68525  21569224.936
  -4847670.596 6  -8602993.39825  22441856.896
  13244914.919 8  -3458354.24029  20475586.007
  -9661518.309 6  -7157665.46325  22893221.842
  -9084717.831 6  -8058543.58425  22854955.104
 -10557981.707 8  -6809249.67329  20472333.259
 92  8 28 23 20  0.0000000  0  6G 3G21G23G26G28G17
   4001482.650 7   1871422.35025  21583238.975
  -4934213.751 6  -8670429.50325  22425386.508
  13224765.573 8  -3474054.98429  20471750.702
  -9626468.711 6  -7130354.07825  22899891.865
  -9179904.659 6  -8132715.05825  22836839.845
 -10532871.626 8  -6789683.37429  20477111.441
 92  8 28 23 20 30.0000000  0  6G 3G21G23G26G28G17
   4075606.562 7   1929181.22225  21597347.987
  -5020489.999 6  -8737657.64825  22408971.102
  13205066.470 8  -3489404.92429  20467999.819
  -9590852.874 6  -7102601.47525  22906663.577
  -9274819.195 6  -8206674.39825  22818778.698
 -10507470.971 8  -6769890.64529  20481943.645
 92  8 28 23 21  0.0000000  0  6G 3G21G23G26G28G17
   4150185.712 7   1987294.79325  21611538.094
  -5106502.241 6  -8804680.07925  22392602.374
  13185820.504 8  -3504401.75429  20464341.571
  -9554676.487 6  -7074412.08125  22913544.863
  -9369458.067 6  -8280418.89225  22800770.765
 -10481782.105 8  -6749873.34029  20486830.922
 92  8 28 23 21 30.0000000  0  6G 3G21G23G26G28G17
   4225216.901 7   2045760.64325  21625816.339
  -5192271.203 6  -8871512.95725  22376277.595
  13167028.254 8  -3519045.05029  20460762.679
  -9517958.395 6  -7045800.55425  22920535.424
  -9463828.928 6  -8353954.54725  22782811.428
 -10455805.751 8  -6729632.01229  20491776.748
 92  8 28 23 22  0.0000000  0  6G 3G21G23G26G28G17
   4300692.413 7   2104572.68925  21640180.085
  -5277806.410 6  -8938163.68925  22359999.884
  13148662.592 8  -3533355.92329  20457270.037
  -9480726.226 6  -7016788.46025  22927621.768
  -9557938.477 6  -8427286.58425  22764899.188
 -10429541.217 8  -6709166.14229  20496774.288
 92  8 28 23 22 30.0000000  0  6G 3G21G23G26G28G17
   4376611.372 7   2163730.27425  21654625.375
  -5363091.715 6  -9004619.68425  22343773.737
  13130725.062 8  -3547333.19729  20453855.610
  -9443000.921 6  -6987392.13325  22934800.658
  -9651780.885 6  -8500410.50325  22747044.389
 -10402979.384 8  -6688468.62629  20501826.211
 92  8 28 23 23  0.0000000  0  6G 3G21G23G26G28G17
   4452953.407 7   2223217.54725  21669154.097
  -5448143.030 6  -9070893.34125  22327589.322
  13113193.627 8  -3560994.02529  20450519.610
  -9404804.005 6  -6957628.29725  22942069.216
  -9745375.516 6  -8573341.33825  22729237.107
 -10376132.720 8  -6667549.12029  20506937.283
 92  8 28 23 23 30.0000000  0  6G 3G21G23G26G28G17
   4529699.164 7   2283019.40125  21683755.309
  -5532978.386 6  -9136998.72125  22311444.029
  13096048.305 8  -3574354.00129  20447258.587
  -9366166.084 6  -6927520.79425  22949423.695
  -9838741.874 6  -8646094.23125  22711466.699
 -10349026.963 8  -6646427.75529  20512095.872
 92  8 28 23 24  0.0000000  0  6G 3G21G23G26G28G17
   4606893.242 7   2343170.57925  21698446.968
  -5617540.991 6  -9202891.59825  22295357.105
  13079335.374 8  -3587377.03529  20444075.691
  -9327026.121 6  -6897022.12025  22956870.629
  -9931818.534 6  -8718621.46325  22693754.930
 -10321620.693 8  -6625072.21329  20517310.372
 92  8 28 23 24 30.0000000  0  6G 3G21G23G26G28G17
   4684541.618 7   2403675.77125  21713222.689
  -5701817.936 6  -9268561.86725  22279317.849
  13063068.999 8  -3600052.12329  20440980.694
  -9287369.659 6  -6866121.00225  22964415.446
 -10024594.601 6  -8790914.45625  22676102.341
 -10293903.873 8  -6603474.68329  20522585.250
 92  8 28 23 25  0.0000000  0  6G 3G21G23G26G28G17
   4762651.069 7   2464540.24725  21728085.379
  -5785799.677 6  -9334002.09525  22263332.735
  13047257.592 8  -3612372.67629  20437972.066
  -9247192.438 6  -6834814.07825  22972060.453
 -10117065.366 6  -8862969.53225  22658507.732
 -10265872.530 8  -6581632.07529  20527917.958
 92  8 28 23 25 30.0000000  0  6G 3G21G23G26G28G17
   4841231.694 7   2525771.88025  21743041.126
  -5869470.562 6  -9399200.10025  22247416.664
  13031913.798 8  -3624328.85429  20435050.319
  -9206488.948 6  -6803097.02225  22979810.178
 -10209223.158 6  -8934780.71025  22640968.044
 -10237528.593 8  -6559545.88529  20533314.822
 92  8 28 23 26  0.0000000  0  6G 3G21G23G26G28G17
   4920284.141 7   2587371.13725  21758079.945
  -5952813.442 7  -9464142.52725  22231555.874
  13017026.572 8  -3635929.25129  20432217.820
  -9165244.959 6  -6770958.86125  22987654.068
 -10301053.141 6  -9006336.52525  22623490.863
 -10208862.789 8  -6537208.89329  20538767.867
 92  8 28 23 26 30.0000000  0  6G 3G21G23G26G28G17
   4999807.222 7   2649337.13925  21773214.277
  -6035827.281 7  -9528828.58525  22215756.752
  13002591.022 8  -3647177.71929  20429469.712
  -9123472.023 6  -6738408.53325  22995604.864
 -10392559.257 6  -9077639.97025  22606078.617
 -10179876.500 8  -6514622.17429  20544280.421
 92  8 28 23 27  0.0000000  0  6G 3G21G23G26G28G17
   5079795.661 7   2711665.75125  21788435.850
  -6118520.682 7  -9593264.92025  22200021.005
  12988600.625 8  -3658079.30129  20426810.224
  -9081172.982 6  -6705448.21525  23003650.154
 -10483742.827 6  -9148692.03125  22588730.437
 -10150595.816 8  -6491806.04429  20549852.843
 92  8 28 23 27 30.0000000  0  6G 3G21G23G26G28G17
   5160251.728 7   2774358.75325  21803748.409
  -6200897.485 7  -9657454.55325  22184343.688
  12975058.061 8  -3668631.92629  20424233.088
  -9038325.286 6  -6672060.39725  23011813.863
 -10574586.867 6  -9219479.53825  22571442.965
 -10121021.795 8  -6468761.36129  20555482.226
 92  8 28 23 28  0.0000000  0  6G 3G21G23G26G28G17
   5241161.558 7   2837405.34625  21819144.131
  -6282973.128 7  -9721409.51125  22168725.731
  12961949.248 8  -3678846.55929  20421740.074
  -8994932.346 6  -6638247.71825  23020067.689
 -10665098.277 6  -9290007.88425  22554219.349
 -10091157.458 8  -6445490.43829  20561166.501
 92  8 28 23 28 30.0000000  0  6G 3G21G23G26G28G17
   5322526.926 7   2900806.89525  21834629.371
  -6364768.027 7  -9785145.74125  22153161.975
  12949284.401 8  -3688715.25529  20419325.305
  -8950999.066 6  -6604014.00025  23028424.763
 -10755288.723 7  -9360286.10125  22537056.740
 -10061009.356 8  -6421998.40529  20566902.010
 92  8 28 23 29  0.0000000  0  6G 3G21G23G26G28G17
   5404348.091 7   2964563.59525  21850204.518
  -6446289.259 7  -9848668.71625  22137648.855
  12937077.729 8  -3698226.92129  20417004.822
  -8906517.913 6  -6569353.34425  23036888.324
 -10845155.860 6  -9430312.37125  22519955.859
 -10030561.934 8  -6398273.15429  20572697.118
 92  8 28 23 29 30.0000000  0  6G 3G21G23G26G28G17
   5486619.561 7   3028671.19225  21865856.233
  -6527546.878 7  -9911986.25625  22122183.851
  12925334.194 8  -3707377.69429  20414771.518
  -8861495.012 6  -6534270.57325  23045447.788
 -10934693.871 6  -9500082.19725  22502913.647
  -9999787.302 8  -6374292.91029  20578549.367
 92  8 28 23 30  0.0000000  0  6G 3G21G23G26G28G17
   5569334.567 7   3093124.42025  21881592.279
  -6608539.820 7  -9975097.56326  22106771.790
  12914048.242 8  -3716171.91929  20412623.925
  -8815950.122 6  -6498781.03925  23054119.435
 -11023910.159 7  -9569601.34525  22485940.657
  -9968675.695 8  -6350050.10229  20584474.585
 92  8 28 23 30 30.0000000  0  6G 3G21G23G26G28G17
   5652488.134 7   3157919.34225  21897416.314
  -6689267.001 7 -10038001.80125  22091412.553
  12903227.680 8  -3724603.50729  20410563.751
  -8769901.170 6  -6462898.74825  23062883.118
 -11112785.749 7  -9638854.98125  22469023.519
  -9937233.114 8  -6325549.38029  20590455.954
 92  8 28 23 31  0.0000000  0  6G 3G21G23G26G28G17
   5736083.481 7   3223058.52425  21913324.801
  -6769706.371 7 -10100681.77525  22076102.152
  12892875.932 8  -3732669.77629  20408593.005
  -8723350.514 6  -6426625.51125  23071752.598
 -11201293.453 7  -9707821.97525  22452183.547
  -9905452.418 8  -6300785.19729  20596506.455
 92  8 28 23 31 30.0000000  0  6G 3G21G23G26G28G17
   5820120.772 7   3288542.10025  21929317.829
  -6849836.645 7 -10163120.87125  22060856.477
  12882970.852 8  -3740387.98829  20406709.529
  -8676303.439 6  -6389965.44825  23080701.133
 -11289428.995 7  -9776498.97925  22435413.516
  -9873351.047 8  -6275771.15129  20602614.037
 92  8 28 23 32  0.0000000  0  6G 3G21G23G26G28G17
   5904600.043 7   3354370.06425  21945392.371
  -6929641.361 7 -10225306.29426  22045673.038
  12873499.368 8  -3747768.35729  20404908.646
  -8628773.758 6  -6352929.34925  23089740.895
 -11377206.210 7  -9844896.78625  22418707.822
  -9840953.221 8  -6250526.08229  20608777.620
 92  8 28 23 32 30.0000000  0  6G 3G21G23G26G28G17
   5989516.904 7   3420538.99025  21961551.125
  -7009128.197 7 -10287244.00326  22030544.401
  12864449.011 8  -3754820.54129  20403185.648
  -8580771.182 6  -6315524.75125  23098878.629
 -11464641.015 7  -9913027.72725  22402069.730
  -9808280.362 8  -6225066.70129  20614998.404
 92  8 28 23 33  0.0000000  0  6G 3G21G23G26G28G17
   6074856.417 7   3487037.27825  21977791.152
  -7088319.781 7 -10348951.68326  22015471.826
  12855787.837 8  -3761569.50029  20401539.188
  -8532294.479 6  -6277750.72925  23108108.100
 -11551776.031 7  -9980925.07525  22385485.931
  -9775337.743 8  -6199397.13029  20621263.436
 92  8 28 23 33 30.0000000  0  6G 3G21G23G26G28G17
   6160611.821 6   3553859.64325  21994109.185
  -7167233.093 7 -10410442.52526  22000460.408
  12847512.656 8  -3768017.65629  20399963.569
  -8483345.685 6  -6239608.80825  23117419.533
 -11638626.265 7 -10048600.57825  22368963.139
  -9742134.583 8  -6173524.52929  20627581.472
 92  8 28 23 34  0.0000000  0  6G 3G21G23G26G28G17
   6246777.615 6   3621001.73725  22010509.781
  -7245894.397 7 -10471736.96326  21985487.124
  12839640.486 8  -3774151.82029  20398464.637
  -8433930.135 6  -6201103.19525  23126821.505
 -11725183.158 6 -10116047.46125  22352492.242
  -9708671.131 8  -6147449.11329  20633951.163
 92  8 28 23 34 30.0000000  0  6G 3G21G23G26G28G17
   6333356.261 6   3688465.57525  22026981.968
  -7324308.372 7 -10532838.69726  21970569.271
  12832192.257 8  -3779955.61229  20397046.469
  -8384030.802 6  -6162220.63425  23136320.519
 -11811412.479 7 -10183239.05325  22336083.671
  -9674926.820 8  -6121154.83829  20640372.777
 92  8 28 23 35  0.0000000  0  6G 3G21G23G26G28G17
   6420342.106 6   3756246.68625  22043534.738
  -7402469.331 7 -10593743.27426  21955692.520
  12825177.149 8  -3785421.91729  20395710.144
  -8333648.630 6  -6122961.78925  23145906.233
 -11897291.914 7 -10250158.07525  22319738.207
  -9640900.686 8  -6094640.96729  20646846.106
 92  8 28 23 35 30.0000000  0  6G 3G21G23G26G28G17
   6507734.723 6   3824344.76625  22060164.766
  -7480356.017 7 -10654434.12526  21940871.771
  12818603.279 7  -3790544.38829  20394459.290
  -8282797.502 6  -6083337.54125  23155581.914
 -11982799.535 7 -10316787.35425  22303467.211
  -9606598.050 8  -6067911.64429  20653375.286
 92  8 28 23 36  0.0000000  0  6G 3G21G23G26G28G17
   6595528.324 6   3892755.34125  22076872.829
  -7557955.414 7 -10714901.11126  21926107.112
  12812456.510 7  -3795334.05929  20393290.249
  -8231478.861 6  -6043349.01425  23165350.891
 -12067931.921 7 -10383124.21225  22287267.116
  -9572010.936 8  -6040960.64129  20659957.919
 92  8 28 23 36 30.0000000  0  6G 3G21G23G26G28G17
   6683728.641 6   3961482.81325  22093653.292
  -7635243.161 7 -10775125.25826  21911399.354
  12806733.934 7  -3799793.19829  20392199.784
  -8179672.821 6  -6002980.67825  23175206.418
 -12152690.079 7 -10449169.47625  22271135.704
  -9537123.194 8  -6013775.38929  20666596.913
 92  8 28 23 37  0.0000000  0  6G 3G21G23G26G28G17
   6772331.122 6   4030523.63525  22110516.498
  -7712218.957 7 -10835106.32826  21896747.837
  12801415.265 7  -3803937.59429  20391190.922
  -8127385.273 6  -5962237.15025  23185155.661
 -12237096.751 7 -10514940.90725  22255077.261
  -9501944.182 8  -5986363.17629  20673288.610
 92  8 28 23 37 30.0000000  0  6G 3G21G23G26G28G17
   6861338.949 6   4099880.37525  22127455.731
  -7788884.837 7 -10894845.93126  21882161.615
  12796498.175 7  -3807769.04929  20390255.240
  -8074605.577 6  -5921110.12325  23195194.661
 -12321156.748 7 -10580442.14525  22239078.117
  -9466467.502 8  -5958719.01029  20680041.945
 92  8 28 23 38  0.0000000  0  6G 3G21G23G26G28G17
   6950748.510 6   4169550.10025  22144466.645
  -7865256.141 7 -10954355.95526  21867627.556
  12791981.572 7  -3811288.48529  20389393.067
  -8021330.778 6  -5879597.31325  23205331.993
 -12404873.048 7 -10645675.57025  22223147.955
  -9430691.580 8  -5930841.66729  20686849.002
 92  8 28 23 38 30.0000000  0  6G 3G21G23G26G28G17
   7040567.458 6   4239538.81925  22161558.922
  -7941327.502 7 -11013632.26526  21853153.876
  12787877.515 8  -3814486.44229  20388613.427
  -7967559.953 6  -5837697.98825  23215568.586
 -12488243.447 7 -10710639.48125  22207285.126
  -9394621.292 8  -5902734.95429  20693712.991
 92  8 28 23 39  0.0000000  0  6G 3G21G23G26G28G17
   7130798.411 6   4309848.62125  22178730.374
  -8017097.015 7 -11072673.38626  21838734.848
  12784181.174 8  -3817366.67729  20387908.315
  -7913311.278 6  -5795426.32725  23225895.447
 -12571263.692 7 -10775330.52325  22191485.404
  -9358265.000 8  -5874405.37429  20700632.380
 92  8 28 23 39 30.0000000  0  6G 3G21G23G26G28G17
   7221433.731 6   4380473.49825  22195982.741
  -8092563.417 7 -11131478.30626  21824372.391
  12780892.035 8  -3819929.62729  20387286.665
  -7858595.429 6  -5752790.62825  23236302.652
 -12653937.096 7 -10839751.31026  22175755.744
  -9321634.643 8  -5845862.23929  20707601.866
 92  8 28 23 40  0.0000000  0  6G 3G21G23G26G28G17
   7312475.876 6   4451415.38725  22213305.169
  -8167720.814 7 -11190042.45126  21810069.083
  12778007.868 8  -3822177.01829  20386736.156
  -7803419.245 6  -5709796.22625  23246799.795
 -12736247.893 7 -10903889.53126  22160090.479
  -9284726.103 8  -5817102.33329  20714626.333
 92  8 28 23 40 30.0000000  0  6G 3G21G23G26G28G17
   7403929.469 6   4522677.85425  22230704.284
  -8242560.054 7 -11248358.66126  21795829.451
  12775529.050 7  -3824108.55629  20386263.503
  -7747788.389 6  -5666447.50325  23257394.821
 -12818194.729 7 -10967744.20625  22144496.774
  -9247536.708 8  -5788123.58828  20721701.255
 92  8 28 23 41  0.0000000  0  6G 3G21G23G26G28G17
   7495801.965 6   4594266.77825  22248192.437
  -8317080.869 7 -11306426.74626  21781647.080
  12773472.694 8  -3825710.88229  20385874.583
  -7691706.654 6  -5622747.51125  23268059.877
 -12899750.650 7 -11031294.22626  22128975.199
  -9210045.534 8  -5758909.68028  20728838.264
 92  8 28 23 41 30.0000000  0  6G 3G21G23G26G28G17
   7588098.696 6   4666186.27125  22265753.560
  -8391283.141 7 -11364246.63726  21767529.373
  12771862.459 8  -3826965.61529  20385569.814
  -7635163.765 6  -5578688.12225  23278816.910
 -12980884.375 7 -11094515.26826  22113538.076
  -9172229.670 8  -5729442.78228  20736031.214
 92  8 28 23 42  0.0000000  0  6G 3G21G23G26G28G17
   7680818.811 6   4738435.61525  22283401.682
  -8465173.901 7 -11421823.80126  21753466.708
  12770706.409 7  -3827866.41529  20385343.920
  -7578161.504 6  -5534270.80025  23289669.577
 -13061582.684 7 -11157397.03926  22098181.567
  -9134083.976 8  -5699718.85228  20743291.168
 92  8 28 23 42 30.0000000  0  6G 3G21G23G26G28G17
   7773959.547 6   4811012.80325  22301121.755
  -8538751.500 7 -11479156.92926  21739465.081
  12770018.547 8  -3828402.39429  20385215.579
  -7520695.601 6  -5489492.21125  23300602.439
 -13141847.636 7 -11219941.11826  22082907.082
  -9095613.683 8  -5669742.01328  20750612.520
 92  8 28 23 43  0.0000000  0  6G 3G21G23G26G28G17
   7867528.422 6   4883923.57225  22318923.611
  -8612003.289 7 -11536236.16226  21725524.133
  12769808.760 8  -3828565.84929  20385171.929
  -7462741.375 6  -5444333.08525  23311633.632
 -13221647.851 7 -11282123.04926  22067722.144
  -9056809.538 8  -5639505.01428  20757998.267
 92  8 28 23 43 30.0000000  0  6G 3G21G23G26G28G17
   7961519.625 6   4957163.39725  22336813.816
  -8684918.557 7 -11593053.19726  21711648.509
  12770068.509 8  -3828363.42829  20385223.344
  -7404290.240 6  -5398786.77625  23322753.054
 -13300994.896 7 -11343951.85926  22052622.047
  -9017682.939 8  -5609016.75428  20765442.323
 92  8 28 23 44  0.0000000  0  6G 3G21G23G26G28G17
   8055938.145 6   5030736.24125  22354776.690
  -8757481.155 7 -11649595.43226  21697844.235
  12770791.545 8  -3827800.01729  20385363.407
  -7345336.419 6  -5352848.70225  23333971.438
 -13379899.959 7 -11405436.27126  22037607.752
  -8978238.612 8  -5578280.91228  20772947.927
 92  8 28 23 44 30.0000000  0  6G 3G21G23G26G28G17
   8150781.785 6   5104640.31125  22372824.076
  -8829691.927 7 -11705863.50926  21684100.370
  12771960.750 8  -3826888.92029  20385586.182
  -7285885.606 6  -5306523.44525  23345286.115
 -13458366.705 7 -11466579.15126  22022679.466
  -8938477.836 8  -5547298.50428  20780515.199
 92  8 28 23 45  0.0000000  0  6G 3G21G23G26G28G17
   8246041.435 6   5178868.52625  22390954.865
  -8901558.851 7 -11761863.63226  21670421.080
  12773557.898 8  -3825644.38129  20385890.262
  -7225964.741 6  -5259831.86425  23356686.412
 -13536412.867 7 -11527394.28926  22007826.009
  -8898402.664 8  -5516071.10928  20788137.962
 92  8 28 23 45 30.0000000  0  6G 3G21G23G26G28G17
   8341715.726 6   5253419.90125  22409163.059
  -8973078.577 7 -11817593.20426  21656815.119
  12775585.317 8  -3824064.55729  20386273.187
  -7165578.309 6  -5212777.51425  23368180.695
 -13614057.532 7 -11587896.58426  21993050.228
  -8858014.857 8  -5484600.07328  20795826.079
 92  8 28 23 46  0.0000000  0  6G 3G21G23G26G28G17
   8437808.358 6   5328297.20825  22427451.269
  -9044253.739 7 -11873054.32326  21643270.166
  12778035.485 8  -3822155.33429  20386737.595
  -7104716.973 6  -5165353.12325  23379761.558
 -13691294.495 7 -11648081.21726  21978351.554
  -8817309.941 8  -5452881.97528  20803572.117
 92  8 28 23 46 30.0000000  0  6G 3G21G23G26G28G17
   8534313.853 6   5403496.22925  22445813.587
  -9115090.552 7 -11928251.77526  21629788.529
  12780905.184 8  -3819919.16629  20387287.624
  -7043382.794 6  -5117560.27525  23391439.853
 -13768113.641 7 -11707940.23626  21963732.594
  -8776291.179 8  -5420919.31228  20811379.971
 92  8 28 23 47  0.0000000  0  6G 3G21G23G26G28G17
   8631216.307 6   5479004.60525  22464250.553
  -9185594.466 7 -11983189.80626  21616372.517
  12784189.797 7  -3817359.74029  20387914.161
  -6981569.946 6  -5069394.43325  23403195.195
 -13844521.153 7 -11767478.50326  21949192.450
  -8734973.390 8  -5388723.62928  20819239.091
 92  8 28 23 47 30.0000000  0  6G 3G21G23G26G28G17
   8728507.057 6   5554815.53025  22482767.654
  -9255779.642 7 -12037879.48826  21603019.671
  12787878.129 8  -3814485.67829  20388613.607
  -6919270.856 6  -5020849.69425  23415053.935
 -13920505.419 7 -11826686.99026  21934733.220
  -8693362.602 8  -5356299.64028  20827157.179
 92  8 28 23 48  0.0000000  0  6G 3G21G23G26G28G17
   8826185.035 6   5630928.18225  22501354.756
  -9325655.691 7 -12092328.29426  21589722.436
  12791972.102 8  -3811295.54129  20389393.547
  -6856495.678 6  -4971933.99825  23426996.858
 -13996045.643 7 -11885549.46126  21920359.761
  -8651454.100 8  -5323643.67828  20835135.256
 92  8 28 23 48 30.0000000  0  6G 3G21G23G26G28G17
   8924239.495 6   5707334.18525  22520007.123
  -9395225.954 7 -12146538.84926  21576487.169
  12796476.755 8  -3807785.41429  20390251.343
  -6793264.022 6  -4922662.61425  23439032.685
 -14071149.751 7 -11944072.08826  21906066.826
  -8609254.025 8  -5290760.50628  20843160.880
 92  8 28 23 49  0.0000000  0  6G 3G21G23G26G28G17
   9022671.337 6   5784034.26925  22538743.972
  -9464487.630 7 -12200508.91526  21563301.097
  12801398.550 7  -3803950.23229  20391186.425
  -6729581.334 6  -4873039.77025  23451148.947
 -14145820.782 7 -12002257.27326  21891858.312
  -8566753.952 8  -5257643.55828  20851251.259
 92  8 28 23 49 30.0000000  0  6G 3G21G23G26G28G17
   9121476.083 6   5861024.89825  22557546.386
  -9533439.633 7 -12254237.67326  21550183.049
  12806730.197 7  -3799795.69029  20392198.345
  -6665476.035 6  -4823087.61225  23463341.567
 -14220051.921 7 -12060099.71626  21877732.301
  -8523959.420 8  -5224297.16828  20859395.001
 92  8 28 23 50  0.0000000  0  6G 3G21G23G26G28G17
   9220656.108 6   5938307.98725  22576413.134
  -9602065.285 7 -12307712.13926  21537121.511
  12812482.050 7  -3795313.71329  20393297.954
  -6600961.146 6  -4772816.28725  23475629.190
 -14293841.674 7 -12117598.18326  21863691.132
  -8480879.933 8  -5190728.73628  20867592.496
 92  8 28 23 50 30.0000000  0  6G 3G21G23G26G28G17
   9320202.939 6   6015876.89425  22595363.166
  -9670364.338 7 -12360932.12926  21524125.118
  12818640.459 7  -3790514.93329  20394469.273
  -6536056.232 6  -4722241.05625  23487966.429
 -14367203.928 7 -12174763.53726  21849728.418
  -8437532.341 8  -5156951.39928  20875841.975
 92  8 28 23 51  0.0000000  0  6G 3G21G23G26G28G17
   9420117.557 6   6093732.33025  22614377.202
  -9738340.840 7 -12413900.77826  21511190.303
  12825198.850 8  -3785404.49129  20395717.429
  -6470769.116 6  -4671368.01225  23500397.563
 -14440127.309 7 -12231586.93526  21835851.834
  -8393919.682 8  -5122967.49428  20884139.181
 92  8 28 23 51 30.0000000  0  6G 3G21G23G26G28G17
   9520408.058 6   6171880.75125  22633458.633
  -9805976.498 7 -12466603.80626  21498317.754
  12832156.875 8  -3779982.63929  20397039.873
  -6405088.094 6  -4620188.03625  23512897.290
 -14512603.159 7 -12288061.57926  21822060.122
  -8350031.477 8  -5088768.90328  20892492.179
 92  8 28 23 52  0.0000000  0  6G 3G21G23G26G28G17
   9621075.009 6   6250322.45525  22652613.602
  -9873283.451 7 -12519050.73426  21485511.940
  12839509.613 8  -3774253.21129  20398438.675
  -6338997.879 6  -4568689.19225  23525474.363
 -14584640.910 7 -12344194.84426  21808352.442
  -8305853.397 8  -5054344.42528  20900900.548
 92  8 28 23 52 30.0000000  0  6G 3G21G23G26G28G17
   9722112.366 6   6329052.81925  22671841.811
  -9940267.169 7 -12571245.80326  21472765.424
  12847249.479 8  -3768222.14129  20399912.095
  -6272478.921 6  -4516856.24225  23538130.371
 -14656234.795 7 -12399982.25326  21794727.084
  -8261366.984 8  -5019679.68528  20909365.877
 92  8 28 23 53  0.0000000  0  6G 3G21G23G26G28G17
   9823523.272 6   6408074.24325  22691141.280
 -10006916.932 7 -12623180.62926  21460083.303
  12855383.057 8  -3761884.27929  20401457.435
  -6205508.526 6  -4464671.57325  23550877.817
 -14727373.789 7 -12455415.19626  21781191.755
  -8216553.541 8  -4984760.11128  20917893.384
 92  8 28 23 53 30.0000000  0  6G 3G21G23G26G28G17
   9925304.423 6   6487384.21425  22710501.187
 -10073226.917 7 -12674850.67226  21447462.221
  12863921.311 8  -3755231.08129  20403081.950
  -6138071.056 6  -4412122.94725  23563706.805
 -14798053.378 7 -12510490.15726  21767738.118
  -8171405.492 8  -4949579.81828  20926483.337
 92  8 28 23 54  0.0000000  0  6G 3G21G23G26G28G17
  10027455.160 6   6566982.05325  22729949.174
 -10139208.288 7 -12726264.67426  21434908.861
  12872880.234 8  -3748250.09229  20404787.170
  -6070173.618 6  -4359215.87925  23576629.659
 -14868263.317 7 -12565199.14426  21754381.795
  -8125929.991 8  -4914144.36628  20935136.427
 92  8 28 23 54 30.0000000  0  6G 3G21G23G26G28G17
  10129977.130 6   6646869.26625  22749452.232
 -10204837.755 7 -12777404.49226  21422419.328
  12882278.237 8  -3740926.96629  20406576.091
  -6001827.702 6  -4305959.37725  23589629.799
 -14937995.740 7 -12619536.07526  21741111.662
  -8080139.969 8  -4878463.83828  20943851.933
 92  8 28 23 55  0.0000000  0  6G 3G21G23G26G28G17
  10232870.979 6   6727046.22525  22769035.605
 -10270109.363 7 -12828265.43426  21409998.686
  12892121.099 8  -3733257.20029  20408453.182
  -5933052.488 6  -4252368.33125  23602724.194
 -15007259.409 7 -12673507.72426  21727931.886
  -8034058.223 8  -4842555.97528  20952616.336
 92  8 28 23 55 30.0000000  0  6G 3G21G23G26G28G17
  10336133.941 6   6807510.78525  22788687.540
 -10335032.421 7 -12878854.76326  21397644.479
  12902403.020 7  -3725245.29829  20410404.981
  -5863853.514 6  -4198447.07025  23615896.445
 -15076048.734 7 -12727109.72426  21714841.208
  -7987695.644 8  -4806429.30228  20961443.005
 92  8 28 23 56  0.0000000  0  6G 3G21G23G26G28G17
  10439760.999 6   6888259.09825  22808406.089
 -10399615.146 7 -12929178.92426  21385355.057
  12913096.721 7  -3716912.51929  20412443.839
  -5794247.346 6  -4144208.54925  23629136.419
 -15144367.351 7 -12780344.98926  21701836.841
  -7941063.929 8  -4770092.90328  20970317.371
 92  8 28 23 56 30.0000000  0  6G 3G21G23G26G28G17
  10543750.856 6   6969290.11325  22828196.918
 -10463853.419 7 -12979234.68826  21373130.809
  12924179.797 7  -3708276.35729  20414550.511
  -5724229.424 6  -4089649.18025  23642462.434
 -15212204.033 7 -12833204.72326  21688932.125
  -7894150.560 8  -4733537.04428  20979241.533
 92  8 28 23 57  0.0000000  0  6G 3G21G23G26G28G17
  10648099.410 6   7050600.63625  22848051.123
 -10527770.179 7 -13029039.88826  21360966.431
  12935630.084 7  -3699354.04529  20416729.462
  -5653800.433 6  -4034769.46625  23655871.281
 -15279545.157 7 -12885678.27626  21676116.867
  -7846942.228 8  -4696751.32528  20988226.523
 92  8 28 23 57 30.0000000  0  6G 3G21G23G26G28G17
  10752794.839 6   7132181.39325  22867975.690
 -10591381.433 7 -13078607.03426  21348860.122
  12947424.654 8  -3690163.47029  20418973.139
  -5582973.264 6  -3979579.47025  23669343.594
 -15346381.195 7 -12937758.26126  21663397.962
  -7799426.985 8  -4659726.48628  20997265.536
 92  8 28 23 58  0.0000000  0  6G 3G21G23G26G28G17
  10857831.535 6   7214028.14425  22887965.641
 -10654678.989 7 -13127929.73426  21336815.900
  12959567.714 7  -3680701.31629  20421283.070
  -5511763.444 6  -3924091.35925  23682891.425
 -15412719.476 7 -12989450.41726  21650776.609
  -7751601.093 8  -4622459.56328  21006368.524
 92  8 28 23 58 30.0000000  0  6G 3G21G23G26G28G17
  10963215.912 6   7296145.76125  22908019.088
 -10717639.197 7 -13176989.61026  21324835.504
  12972092.851 8  -3670941.47329  20423669.658
  -5440161.638 6  -3868297.74825  23696520.081
 -15478553.563 7 -13040749.66826  21638244.955
  -7703453.411 8  -4584941.89328  21015532.190
 92  8 28 23 59  0.0000000  0  6G 3G21G23G26G28G17
  11068953.105 6   7378538.28325  22928139.419
 -10780239.884 7 -13225769.30426  21312923.700
  12985022.166 8  -3660866.68129  20426130.264
  -5368161.534 6  -3812193.82425  23710218.587
 -15543887.122 7 -13091658.88926  21625813.371
  -7654994.162 8  -4547181.44628  21024752.517
 92  8 28 23 59 30.0000000  0  6G 3G21G23G26G28G17
  11175040.236 6   7461203.54725  22948325.885
 -10842469.912 7 -13274260.18227  21301081.118
  12998370.112 8  -3650465.67229  20428668.997
  -5295760.718 6  -3755777.65825  23723997.408
 -15608739.821 7 -13142193.41726  21613473.404
  -7606234.024 8  -4509186.55527  21034032.083
 92  8 29  0  0  0.0000000  0  6G 3G21G23G26G28G17
  11281474.221 6   7544139.05825  22968585.679
 -10904323.825 7 -13322457.97227  21289310.037
  13012135.230 7  -3639739.58529  20431290.022
  -5222949.017 6  -3699041.28425  23737852.826
 -15673132.442 7 -13192369.47626  21601218.098
  -7557187.082 8  -4470968.16927  21043364.352
 92  8 29  0  0 30.0000000  0  6G 3G21G23G26G28G17
  11388251.508 6   7627342.05625  22988902.344
 -10965811.740 7 -13370370.59527  21277610.307
  13026298.227 7  -3628703.46729  20433982.218
  -5149720.465 6  -3641980.09125  23751783.852
 -15737065.355 7 -13242187.28226  21589053.929
  -7507857.392 8  -4432529.44627  21052753.792
 92  8 29  0  1  0.0000000  0  6G 3G21G23G26G28G17
  11495364.446 6   7710806.60025  23009283.255
 -11026959.042 7 -13418017.79227  21265971.105
  13040838.072 7  -3617373.72029  20436746.455
  -5076077.538 6  -3584596.03925  23765799.449
 -15800528.329 7 -13291638.91126  21576976.430
  -7458254.002 8  -4393877.47027  21062193.537
 92  8 29  0  1 30.0000000  0  6G 3G21G23G26G28G17
  11602812.011 6   7794531.89625  23029728.081
 -11087773.045 7 -13465405.28427  21254401.124
  13055748.635 7  -3605755.08629  20439585.549
  -5002019.847 6  -3526888.82025  23779896.021
 -15863513.274 7 -13340718.06926  21564989.918
  -7408366.713 8  -4355004.25927  21071685.656
 92  8 29  0  2  0.0000000  0  6G 3G21G23G26G28G17
  11710584.874 6   7878510.70325  23050231.577
 -11148254.159 7 -13512533.39427  21242893.141
  13071012.630 7  -3593861.05029  20442491.558
  -4927566.564 5  -3468873.29925  23794066.940
 -15926007.191 7 -13389414.60526  21553099.460
  -7358202.599 8  -4315915.36127  21081232.756
 92  8 29  0  2 30.0000000  0  6G 3G21G23G26G28G17
  11818676.428 6   7962737.84225  23070804.295
 -11208418.020 7 -13559414.28827  21231439.570
  13086644.011 7  -3581680.74929  20445468.347
  -4852735.172 5  -3410563.20125  23808296.349
 -15987990.445 7 -13437713.19626  21541302.117
  -7307766.388 8  -4276614.41827  21090827.944
 92  8 29  0  3  0.0000000  0  7G11G 3G21G23G26G28G17
  -1862936.26016  -1473063.12735  25061325.335
  11927085.828 6   8047212.58125  23091439.009
 -11268263.230 7 -13606046.87327  21220052.613
  13102661.194 7  -3569199.82329  20448514.538
  -4777535.265 6  -3351965.91925  23822613.058
 -16049457.648 7 -13485609.71626  21529608.322
  -7257062.880 8  -4237105.21127  21100478.023
 92  8 29  0  3 30.0000000  0  7G11G 3G21G23G26G28G17
  -1973378.923 6  -1559122.29925  25040308.175
  12035806.383 6   8131929.81625  23112126.128
 -11327779.568 7 -13652423.18727  21208727.743
  13119066.087 7  -3556416.78029  20451635.018
  -4701982.839 6  -3293093.93325  23836989.635
 -16110425.511 7 -13533117.10726  21518006.234
  -7206081.474 8  -4197379.45327  21110179.127
 92  8 29  0  4  0.0000000  0  7G11G 3G21G23G26G28G17
  -2083844.925 6  -1645199.69225  25019290.296
  12144834.497 6   8216886.77725  23132872.006
 -11386978.471 7 -13698552.17927  21197463.581
  13135868.350 7  -3543324.10729  20454834.613
  -4626088.439 6  -3233955.51125  23851433.816
 -16170891.469 7 -13580233.39626  21506498.191
  -7154817.857 8  -4157433.77827  21119934.763
 92  8 29  0  4 30.0000000  0  7G11G 3G21G23G26G28G17
  -2194332.278 5  -1731293.62125  24998259.675
  12254168.307 6   8302081.83325  23153683.478
 -11445867.981 7 -13744440.07027  21186255.690
  13153071.209 7  -3529919.27629  20458110.265
  -4549840.517 6  -3174541.60925  23865941.852
 -16230855.080 7 -13626958.25026  21495087.910
  -7103282.080 7  -4117276.04427  21129739.686
 92  8 29  0  5  0.0000000  0  7G11G 3G21G23G26G28G17
  -2304836.658 5  -1817400.81525  24977237.149
  12363807.461 6   8387514.88225  23174542.168
 -11504430.496 7 -13790073.16427  21175114.114
  13170657.009 7  -3516216.04529  20461453.520
  -4473239.887 6  -3114852.82025  23880518.181
 -16290323.652 7 -13673297.38626  21483771.045
  -7051456.044 7  -4076892.13727  21139604.446
 92  8 29  0  5 30.0000000  0  7G11G 3G21G23G26G28G17
  -2415352.365 5  -1903516.91325  24956207.547
  12473753.317 6   8473186.93325  23195460.667
 -11562656.677 7 -13835444.15827  21164035.703
  13188608.624 7  -3502227.77029  20464868.157
  -4396282.570 6  -3054886.11325  23895166.221
 -16349290.300 7 -13719245.38426  21472549.423
  -6999324.448 7  -4036270.11127  21149525.688
 92  8 29  0  6  0.0000000  0  7G11G 3G21G23G26G28G17
  -2525878.973 5  -1989641.54525  24935173.449
  12584002.143 6   8559094.96925  23216443.201
 -11620551.722 7 -13880557.15827  21153014.013
  13206904.768 7  -3487971.02729  20468350.876
  -4318970.577 6  -2994643.06125  23909870.441
 -16407742.336 7 -13764792.40727  21461425.924
  -6946901.058 7  -3995420.71727  21159498.914
 92  8 29  0  6 30.0000000  0  7G11G 3G21G23G26G28G17
  -2636416.788 5  -2075774.79425  24914130.147
  12694549.071 6   8645235.42425  23237480.057
 -11678103.531 7 -13925402.69327  21142063.224
  13225524.463 7  -3473462.16529  20471894.782
  -4241308.437 6  -2934127.15125  23924652.068
 -16465678.779 7 -13809937.65026  21450404.084
  -6894182.899 7  -3954341.65327  21169530.149
 92  8 29  0  7  0.0000000  0  7G11G 3G21G23G26G28G17
  -2746959.439 5  -2161911.77525  24893101.864
  12805395.961 6   8731609.50825  23258572.255
 -11735306.094 7 -13969976.07927  21131178.000
  13244463.754 7  -3458704.28529  20475499.786
  -4163302.698 6  -2873343.49225  23939498.570
 -16523098.030 7 -13854679.89726  21439476.080
  -6841149.849 7  -3913017.22627  21179621.763
 92  8 29  0  7 30.0000000  0  7G11G 3G21G23G26G28G17
  -2857501.442 6  -2248048.30225  24872064.348
  12916544.033 6   8818218.30925  23279723.393
 -11792160.680 7 -14014278.32127  21120358.130
  13263735.750 8  -3443687.13029  20479166.188
  -4084947.701 6  -2812287.70625  23954404.851
 -16579988.617 7 -13899010.18827  21428652.403
  -6787828.328 7  -3871467.99927  21189769.258
 92  8 29  0  8  0.0000000  0  7G11G 3G21G23G26G28G17
  -2968047.515 6  -2334188.08325  24851032.948
  13027984.173 6   8905054.71225  23300928.673
 -11848673.736 7 -14058314.42827  21109606.643
  13283352.185 8  -3428401.59529  20482898.335
  -4006250.195 6  -2750965.03325  23969381.702
 -16636355.330 7 -13942932.27227  21417922.621
  -6734245.429 7  -3829715.09527  21199965.199
 92  8 29  0  8 30.0000000  0  7G11G 3G21G23G26G28G17
  -3078595.869 6  -2420329.58725  24829992.884
  13139713.574 6   8992116.50225  23322187.046
 -11904854.625 7 -14102091.70927  21098915.055
  13303329.107 8  -3412835.17529  20486699.943
  -3927206.632 6  -2689372.69425  23984425.618
 -16692204.575 7 -13986451.15927  21407295.638
  -6680406.850 7  -3787762.96727  21210209.498
 92  8 29  0  9  0.0000000  0  7G11G 3G21G23G26G28G17
  -3189141.560 5  -2506468.97325  24808956.417
  13251732.540 6   9079403.94325  23343510.144
 -11960714.561 7 -14145618.88727  21088285.734
  13323677.318 8  -3396979.40229  20490572.842
  -3847813.983 6  -2627508.34325  23999530.271
 -16747531.021 7 -14029562.63327  21396765.667
  -6626338.005 7  -3745631.42127  21220499.214
 92  8 29  0  9 30.0000000  0  7G11G 3G21G23G26G28G17
  -3299676.907 5  -2592600.45025  24787925.976
  13364044.614 6   9166919.80925  23364877.492
 -12016237.152 8 -14188883.21427  21077719.578
  13344408.024 8  -3380825.61029  20494516.252
  -3768074.070 6  -2565373.39225  24014710.292
 -16802329.784 7 -14072262.92927  21386340.115
  -6572030.737 7  -3703314.07927  21230834.499
 92  8 29  0 10  0.0000000  0  7G11G 3G21G23G26G28G17
  -3410205.191 5  -2678726.28025  24766891.188
  13476641.461 6   9254657.47725  23386307.376
 -12071434.028 7 -14231893.73927  21067217.339
  13365508.615 8  -3364383.60829  20498532.181
  -3687996.046 5  -2502975.02325  24029944.815
 -16856610.617 7 -14114559.68227  21376008.277
  -6517470.367 7  -3660799.53427  21241219.010
 92  8 29  0 10 30.0000000  0  7G11G 3G21G23G26G28G17
  -3520721.101 5  -2764842.48225  24745860.327
  13589524.182 6   9342617.95225  23407790.744
 -12126300.030 8 -14274646.43127  21056774.938
  13386971.052 8  -3347659.61629  20502618.712
  -3607586.916 5  -2440318.61325  24045242.655
 -16910371.306 8 -14156451.09727  21365782.237
  -6462646.279 7  -3618079.46927  21251649.089
 92  8 29  0 11  0.0000000  0  7G11G 3G21G23G26G28G17
  -3631214.694 5  -2850941.30325  24724838.131
  13702698.077 6   9430805.33925  23429326.275
 -12180811.562 7 -14317122.89627  21046403.198
  13408803.202 8  -3330647.54429  20506771.318
  -3526847.363 6  -2377404.73225  24060609.387
 -16963609.543 8 -14197935.42227  21355655.367
  -6407539.304 7  -3575138.99627  21262136.879
 92  8 29  0 11 30.0000000  0  7G11G 3G21G23G26G28G17
  -3741681.191 5  -2937019.07825  24703814.465
  13816163.126 6   9519219.49525  23450920.895
 -12234956.651 8 -14359313.85427  21036100.171
  13431007.266 7  -3313345.67229  20510996.712
  -3445767.141 6  -2314225.38425  24076039.555
 -17016324.696 7 -14239012.15827  21345619.515
  -6352128.988 7  -3531962.11827  21272682.858
 92  8 29  0 12  0.0000000  0  7G11G 3G21G23G26G28G17
  -3852119.742 5  -3023075.02825  24682795.566
  13929915.934 6   9607858.00225  23472565.791
 -12288756.871 7 -14401236.06827  21025856.862
  13453574.954 8  -3295760.47029  20515293.158
  -3364339.015 6  -2250775.00425  24091536.576
 -17068509.500 8 -14279675.63027  21335690.239
  -6296428.747 7  -3488559.36427  21283279.652
 92  8 29  0 12 30.0000000  0  7G11G 3G21G23G26G28G17
  -3962533.214 5  -3109111.37225  24661789.289
  14043948.887 6   9696714.77625  23494261.831
 -12342216.961 8 -14442893.24627  21015687.332
  13476504.703 8  -3277893.12129  20519654.359
  -3282573.919 6  -2187061.97525  24107095.805
 -17120162.043 8 -14319924.33427  21325857.706
  -6240444.792 7  -3444935.51627  21293934.366
 92  8 29  0 13  0.0000000  0  7G11G 3G21G23G26G28G17
  -4072921.186 5  -3195127.86825  24640787.808
  14158257.709 5   9785786.46324  23516021.457
 -12395339.904 7 -14484287.72427  21005579.470
  13499791.878 8  -3259747.26529  20524086.101
  -3200467.184 6  -2123082.75425  24122713.073
 -17171278.115 8 -14359755.02327  21316131.659
  -6184174.843 7  -3401088.81927  21304637.706
 92  8 29  0 13 30.0000000  0  7G11G 3G21G23G26G28G17
  -4183286.140 5  -3281126.53325  24619777.093
  14272835.392 5   9875067.71124  23537819.037
 -12448132.376 7 -14525424.66927  20995530.996
  13523418.690 8  -3241336.77129  20528584.037
  -3118030.989 6  -2058846.83225  24138405.230
 -17221847.312 8 -14399159.58327  21306508.231
  -6127629.681 7  -3357027.65527  21315400.375
 92  8 29  0 14  0.0000000  0  7G11G 3G21G23G26G28G17
  -4293624.760 6  -3367104.62425  24598779.989
  14387680.003 5   9964556.87224  23559673.637
 -12500592.257 7 -14566302.47527  20985551.175
  13547376.090 8  -3222668.67329  20533141.332
  -3035283.280 6  -1994368.13525  24154153.777
 -17271863.447 8 -14438133.17627  21296988.172
  -6070807.156 7  -3312750.39327  21326214.519
 92  8 29  0 14 30.0000000  0  7G11G 3G21G23G26G28G17
  -4403934.053 6  -3453059.79225  24577793.797
  14502790.401 5  10054253.20224  23581570.748
 -12552701.219 7 -14606906.81127  20975634.281
  13571673.675 7  -3203735.48029  20537764.521
  -2952227.428 6  -1929649.36525  24169964.981
 -17321321.858 8 -14476672.16227  21287578.556
  -6013703.700 7  -3268254.19127  21337082.985
 92  8 29  0 15  0.0000000  0  7G11G 3G21G23G26G28G17
  -4514211.445 6  -3538990.21225  24556804.518
  14618164.151 5  10144154.70824  23603535.792
 -12604454.272 8 -14647233.85727  20965786.638
  13596303.928 7  -3184543.07229  20542452.676
  -2868856.423 6  -1864685.03325  24185826.731
 -17370226.022 8 -14514779.31827  21278273.598
  -5956322.906 7  -3223541.90227  21348000.107
 92  8 29  0 15 30.0000000  0  7G11G 3G21G23G26G28G17
  -4624453.543 5  -3624893.11425  24535820.665
  14733799.992 5  10234260.42024  23625538.040
 -12655855.188 7 -14687286.46927  20956001.802
  13621271.205 8  -3165088.06129  20547201.448
  -2785177.246 6  -1799480.52325  24201752.605
 -17418569.510 7 -14552449.53727  21269073.597
  -5898663.342 7  -3178612.38627  21358970.952
 92  8 29  0 16  0.0000000  0  7G11G 3G21G23G26G28G17
  -4734651.468 5  -3710761.51225  24514853.510
  14849702.208 6  10324573.78424  23647593.622
 -12706897.603 8 -14727059.75327  20946288.646
  13646583.795 7  -3145363.96929  20552020.762
  -2701178.493 5  -1734027.02425  24217720.031
 -17466347.028 7 -14589678.72727  21259981.131
  -5840719.281 7  -3133461.18127  21369998.398
 92  8 29  0 16 30.0000000  0  7G11G 3G21G23G26G28G17
  -4844804.209 6  -3796594.69725  24493889.683
  14965866.696 5  10415091.40824  23669696.180
 -12757582.793 7 -14766554.66727  20936645.732
  13672244.575 8  -3125368.54729  20556902.672
  -2616865.628 5  -1668328.74425  24233767.892
 -17513554.197 7 -14626463.51827  21250996.981
  -5782498.499 7  -3088094.35127  21381078.877
 92  8 29  0 17  0.0000000  0  7G11G 3G21G23G26G28G17
  -4954901.249 5  -3882384.57625  24472942.464
  15082299.457 5  10505818.16824  23691850.783
 -12807900.051 8 -14805762.89027  20927071.110
  13698245.531 7  -3105108.06629  20561848.289
  -2532243.479 6  -1602389.46025  24249883.475
 -17560183.406 8 -14662797.95227  21242127.531
  -5723991.395 7  -3042504.41627  21392212.330
 92  8 29  0 17 30.0000000  0  7G11G 3G21G23G26G28G17
  -5064939.941 5  -3968129.00825  24452006.398
  15198997.727 5  10596751.76424  23714064.745
 -12857850.900 8 -14844685.58827  20917564.661
  13724584.522 8  -3084584.17929  20566862.168
  -2447331.272 5  -1536224.18025  24266038.511
 -17606223.954 8 -14698673.67827  21233363.698
  -5665185.249 7  -2996681.44927  21403403.252
 92  8 29  0 18  0.0000000  0  7G11G 3G21G23G26G28G17
  -5174919.271 6  -4053827.05325  24431077.437
  15315958.675 5  10687890.03024  23736311.384
 -12907431.984 8 -14883320.18427  20908129.743
  13751259.482 8  -3063798.48729  20571940.832
  -2362125.829 6  -1469830.38125  24282251.377
 -17651679.280 8 -14734093.39127  21224715.375
  -5606076.574 7  -2950622.75027  21414649.277
 92  8 29  0 18 30.0000000  0  7G11G 3G21G23G26G28G17
  -5284829.857 6  -4139471.57325  24410157.110
  15433186.057 5  10779235.97724  23758620.619
 -12956649.252 7 -14921671.26427  20898762.308
  13778284.010 8  -3042740.41329  20577081.613
  -2276623.458 5  -1403205.24325  24298510.082
 -17696542.426 8 -14769051.66227  21216174.198
  -5546659.054 7  -2904323.40627  21425957.478
 92  8 29  0 19  0.0000000  0  7G11G 3G21G23G26G28G17
  -5394663.566 6  -4225056.15525  24389262.985
  15550683.555 5  10870792.29724  23780991.762
 -13005506.466 7 -14959741.78027  20889468.172
  13805661.239 8  -3021407.51629  20582290.837
  -2190817.212 5  -1336343.34225  24314847.481
 -17740817.503 8 -14803551.69727  21207751.139
  -5486926.897 7  -2857778.86326  21437322.101
 92  8 29  0 19 30.0000000  0  7G11G 3G21G23G26G28G17
  -5504421.802 6  -4310582.04425  24368375.665
  15668444.459 5  10962554.00924  23803409.762
 -13054020.084 7 -14997544.56027  20880233.365
  13833393.308 8  -2999798.11429  20587568.113
  -2104700.300 6  -1269239.27825  24331232.488
 -17784511.780 8 -14837599.16227  21199436.815
  -5426887.892 7  -2810995.24626  21448744.313
 92  8 29  0 20  0.0000000  0  7G11G 3G21G23G26G28G17
  -5614100.441 6  -4396045.81125  24347503.424
  15786468.447 5  11054520.50824  23825858.012
 -13102190.159 7 -15035079.66327  20871067.810
  13861491.135 7  -2977903.70029  20592914.012
  -2018264.251 6  -1201886.60225  24347675.865
 -17827626.560 8 -14871195.09527  21191231.046
  -5366569.798 7  -2763994.15126  21460224.895
 92  8 29  0 20 30.0000000  0  7G11G 3G21G23G26G28G17
  -5723702.269 6  -4481449.73325  24326648.991
  15904747.499 5  11146685.96624  23848361.303
 -13150023.228 7 -15072352.15427  20861966.081
  13889940.852 7  -2955735.09629  20598329.433
  -1931520.633 6  -1134294.28525  24364195.778
 -17870168.464 8 -14904344.60427  21183133.772
  -5305990.650 7  -2716789.61526  21471750.566
 92  8 29  0 21  0.0000000  0  7G11G 3G21G23G26G28G17
  -5833473.115 6  -4566985.37625  24305757.714
  16023031.109 5  11238854.86224  23870867.652
 -13197752.985 7 -15109544.13927  20852885.338
  13918485.326 7  -2933492.66029  20603758.974
  -1844709.115 6  -1066648.99025  24380708.227
 -17912377.238 8 -14937234.53927  21175104.790
  -5245390.892 7  -2669569.05226  21483283.822
 92  8 29  0 21 30.0000000  0  7G11G 3G21G23G26G28G17
  -5943177.857 6  -4652469.55225  24284882.326
  16141549.135 5  11331206.48924  23893418.521
 -13245137.836 8 -15146467.36727  20843865.962
  13947363.354 8  -2910990.29129  20609258.068
  -1757589.526 6   -998763.67025  24397296.223
 -17954011.032 8 -14969676.44527  21167181.605
  -5184542.476 7  -2622154.73526  21494862.856
 92  8 29  0 22  0.0000000  0  7G11G 3G21G23G26G28G17
  -6052794.443 6  -4737884.98625  24264021.268
  16260318.731 5  11423754.11324  23916020.683
 -13292151.334 7 -15183101.22727  20834919.196
  13976599.575 8  -2888208.82829  20614819.667
  -1670151.109 6   -930629.95625  24413932.756
 -17995046.459 8 -15001652.10527  21159373.900
  -5123419.862 7  -2574526.74326  21506500.050
 92  8 29  0 22 30.0000000  0  7G11G 3G21G23G26G28G17
  -6162327.943 6  -4823235.67125  24243174.659
  16379329.882 5  11516489.92524  23938673.091
 -13338801.937 7 -15219452.33028  20826043.450
  14006169.190 8  -2865167.57329  20620446.022
  -1582405.039 6   -862256.42825  24430630.297
 -18035498.668 8 -15033173.29327  21151673.071
  -5062013.168 7  -2526677.37126  21518182.003
 92  8 29  0 23  0.0000000  0  7G11G 3G21G23G26G28G17
  -6271773.504 6  -4908517.80725  24222350.326
  16498582.415 5  11609413.88024  23961367.950
 -13385082.852 8 -15255515.35028  20817234.319
  14036080.344 8  -2841860.18529  20626139.531
  -1494358.019 5   -793648.43025  24447385.997
 -18075368.494 8 -15064240.67627  21144086.074
  -5000318.688 7  -2478603.77826  21529921.665
 92  8 29  0 23 30.0000000  0  7G11G 3G21G23G26G28G17
  -6381131.797 6  -4993732.01025  24201540.832
  16618070.721 5  11702521.52524  23984100.253
 -13430997.944 8 -15291293.31528  20808501.394
  14066339.759 8  -2818281.40629  20631897.704
  -1406030.467 5   -724821.87325  24464194.551
 -18114667.317 8 -15094863.13027  21136610.779
  -4938345.747 7  -2430313.20126  21541713.042
 92  8 29  0 24  0.0000000  0  7G11G 3G21G23G26G28G17
  -6490302.673 6  -5078800.20725  24180769.292
  16737889.772 5  11795886.96024  24006903.726
 -13476449.288 8 -15326709.92328  20799849.474
  14097029.319 7  -2794367.46729  20637736.792
  -1317340.975 5   -655713.22425  24481069.298
 -18153300.661 8 -15124967.01627  21129259.688
  -4875987.753 7  -2381722.56726  21553581.286
 92  8 29  0 24 30.0000000  0  7G11G 3G21G23G26G28G17
  -6599218.944 6  -5163669.93525  24160038.673
  16858101.909 5  11889558.57723  24029777.231
 -13521364.764 8 -15361708.97828  20791301.432
  14128215.871 8  -2770066.26029  20643674.332
  -1228228.664 5   -586275.13325  24498029.097
 -18191192.161 8 -15154492.84627  21122048.150
  -4813183.927 7  -2332784.54026  21565531.943
 92  8 29  0 25  0.0000000  0  7G11G 3G21G23G26G28G17
  -6708052.759 6  -5248475.41125  24139332.668
  16978529.640 5  11983398.26824  24052697.474
 -13565918.978 8 -15396426.51328  20782823.780
  14159740.812 8  -2745501.37629  20649672.159
  -1138865.959 5   -516641.92325  24515026.220
 -18228493.091 8 -15183558.49827  21114949.515
  -4750108.982 7  -2283635.26926  21577534.164
 92  8 29  0 25 30.0000000  0  7G11G 3G21G23G26G28G17
  -6816799.614 6  -5333213.18125  24118634.397
  17099172.737 5  12077405.83324  24075657.679
 -13610119.385 7 -15430868.36328  20774410.795
  14191593.250 8  -2720681.26529  20655731.565
  -1049241.127 5   -446804.51525  24532084.291
 -18265179.209 8 -15212145.06427  21107969.777
  -4686757.737 7  -2234270.68526  21589590.677
 92  8 29  0 26  0.0000000  0  7G11G 3G21G23G26G28G17
  -6925453.609 6  -5417878.56525  24097960.529
  17220031.694 5  12171581.45723  24098656.677
 -13653963.172 8 -15465032.33428  20766071.888
  14223766.885 8  -2695610.91629  20661854.676
   -959351.687 5   -376760.85725  24549191.918
 -18301240.925 8 -15240245.07927  21101105.728
  -4623131.596 7  -2184691.87726  21601696.507
 92  8 29  0 26 30.0000000  0  7G11G 3G21G23G26G28G17
  -7034009.662 6  -5502467.60025  24077301.141
  17341106.527 5  12265925.42624  24121685.205
 -13697451.941 8 -15498919.66928  20757798.065
  14256265.779 8  -2670287.10929  20668038.914
   -869196.336 5   -306509.97725  24566351.289
 -18336667.348 8 -15267850.08227  21094363.666
  -4559238.600 7  -2134905.15826  21613855.669
 92  8 29  0 27  0.0000000  0  7G11G 3G21G23G26G28G17
  -7142466.173 6  -5586979.08025  24056661.600
  17462393.726 5  12360434.67623  24144776.449
 -13740601.625 8 -15532542.76228  20749582.073
  14289064.520 8  -2644729.63729  20674279.064
   -778775.874 5   -236052.56925  24583552.900
 -18371470.883 8 -15294969.70127  21087741.161
  -4495075.404 7  -2084907.88926  21626061.869
 92  8 29  0 27 30.0000000  0  7G11G 3G21G23G26G28G17
  -7250821.976 6  -5671412.15125  24036038.757
  17583889.427 5  12455106.56924  24167894.045
 -13783397.973 8 -15565890.57128  20741437.851
  14322149.500 8  -2618949.13529  20680572.038
   -688103.063 5   -165398.50825  24600811.473
 -18405672.599 8 -15321620.36827  21081232.456
  -4430644.178 7  -2034701.75326  21638326.858
 92  8 29  0 28  0.0000000  0  7G11G 3G21G23G26G28G17
  -7359080.618 6  -5755769.44925  24015442.445
  17705584.770 5  12549933.94523  24191051.843
 -13825841.384 8 -15598963.33328  20733360.843
  14355524.783 8  -2592942.43129  20686927.608
   -597193.700 5    -94560.14825  24618105.360
 -18439298.806 8 -15347822.59027  21074831.528
  -4365946.184 7  -1984287.76026  21650640.773
 92  8 29  0 28 30.0000000  0  7G11G 3G21G23G26G28G17
  -7467237.143 6  -5840047.16925  23994856.746
  17827479.869 5  12644917.07024  24214251.972
 -13867936.315 7 -15631764.53628  20725350.868
  14389189.049 8  -2566710.53629  20693332.554
   -506037.112 5    -23529.11425  24635455.759
 -18472352.365 8 -15373578.60527  21068543.351
  -4300974.090 7  -1933660.18726  21663001.366
 92  8 29  0 29  0.0000000  0  7G11G 3G21G23G26G28G17
  -7575293.188 6  -5924246.60525  23974296.800
  17949567.497 5  12740050.07323  24237482.650
 -13909681.305 8 -15664293.07728  20717409.216
  14423140.768 8  -2540254.66129  20699793.861
   -414624.297 5     47701.60825  24652855.653
 -18504843.218 8 -15398896.14027  21062362.320
  -4235732.903 7  -1882822.91126  21675415.742
 92  8 29  0 29 30.0000000  0  7G11G 3G21G23G26G28G17
  -7683240.829 6  -6008361.55325  23953756.489
  18071850.264 5  12835335.27124  24260747.204
 -13951052.398 8 -15696530.26628  20709534.238
  14457405.146 8  -2513555.15529  20706315.456
   -322941.416 5    119142.74625  24670294.341
 -18536755.203 8 -15423762.61027  21056290.923
  -4170231.206 7  -1831782.63826  21687883.661
 92  8 29  0 30  0.0000000  0  7G11G 3G21G23G26G28G17
  -7791078.756 6  -6092391.11825  23933236.445
  18194324.562 5  12930769.64323  24284054.749
 -13992068.319 8 -15728490.70328  20701730.850
  14491988.260 8  -2486607.27329  20712895.631
   -230985.057 5    190796.94825  24687800.691
 -18568076.769 8 -15448169.01727  21050325.773
  -4104476.768 7  -1780545.45326  21700393.220
 92  8 29  0 30 30.0000000  0  7G11G 3G21G23G26G28G17
  -7898796.781 6  -6176327.13725  23912736.727
  18316995.451 5  13026357.18924  24307396.410
 -14032724.844 8 -15760171.08528  20693994.136
  14526884.693 8  -2459415.25629  20719534.805
   -138746.554 5    262671.02325  24705344.576
 -18598773.528 8 -15472088.56327  21044487.075
  -4038469.954 7  -1729111.59226  21712952.995
 92  8 29  0 31  0.0000000  0  7G11G 3G21G23G26G28G17
  -8006387.627 6  -6260164.07125  23892261.831
  18439864.739 5  13122099.42124  24330781.930
 -14073005.671 8 -15791558.72728  20686329.102
  14562098.987 8  -2431975.54529  20726234.207
    -46236.279 6    334756.86725  24722956.723
 -18628820.533 8 -15495501.78727  21038767.964
  -3972201.140 7  -1677473.56726  21725564.934
 92  8 29  0 31 30.0000000  0  7G11G 3G21G23G26G28G17
  -8113853.297 6  -6343903.53025  23871813.737
  18562925.139 5  13217990.50424  24354196.740
 -14112936.665 8 -15822673.76228  20678729.124
  14597628.195 8  -2404290.44728  20732997.135
     46517.608 5    407032.56125  24740601.728
 -18658216.097 8 -15518407.42127  21033172.937
  -3905661.800 7  -1625624.74226  21738230.027
 92  8 29  0 32  0.0000000  0  7G11G 3G21G23G26G28G17
  -8221185.861 6  -6427539.27425  23851386.958
  18686179.264 5  13314032.58824  24377652.862
 -14152530.923 8 -15853526.39828  20671196.958
  14633466.741 8  -2376364.32328  20739816.004
    139495.403 5    479482.69525  24758292.241
 -18686957.135 8 -15540803.02527  21027705.293
  -3838829.431 7  -1573547.61226  21750945.724
 92  8 29  0 32 30.0000000  0  7G11G 3G21G23G26G28G17
  -8328380.853 6  -6511067.71125  23830989.799
  18809626.490 5  13410224.98424  24401146.937
 -14191780.642 8 -15884110.57628  20663729.308
  14669610.275 8  -2348200.53428  20746696.031
    232690.937 5    552102.47125  24776030.481
 -18715048.899 8 -15562692.69627  21022360.413
  -3771697.842 7  -1521237.30226  21763719.071
 92  8 29  0 33  0.0000000  0  7G11G 3G21G23G26G28G17
  -8435435.580 6  -6594486.89025  23810614.195
  18933264.250 5  13506566.04424  24424672.161
 -14230680.375 8 -15914422.02728  20656322.036
  14706072.879 8  -2319788.12128  20753633.109
    326094.648 5    624884.50225  24793797.081
 -18742521.224 8 -15584099.69827  21017133.981
  -3704277.149 7  -1468701.71126  21776552.287
 92  8 29  0 33 30.0000000  0  7G11G 3G21G23G26G28G17
  -8542348.174 6  -6677795.41425  23790271.298
  19057088.892 5  13603052.54523  24448220.619
 -14269232.425 7 -15944462.56528  20648987.763
  14742859.546 8  -2291123.19128  20760633.443
    419713.352 5    697834.03425  24811615.996
 -18769395.600 8 -15605040.76427  21012015.564
  -3636573.151 7  -1415945.37826  21789434.249
 92  8 29  0 34  0.0000000  0  7G11G 3G21G23G26G28G17
  -8649114.397 6  -6760989.79225  23769957.961
  19181099.490 5  13699684.16323  24471834.611
 -14307409.156 8 -15974210.64028  20641723.702
  14779962.310 8  -2262211.96128  20767695.474
    513553.126 5    770955.84625  24829469.836
 -18795677.326 8 -15625520.02627  21007014.816
  -3568598.198 7  -1362977.90426  21802372.242
 92  8 29  0 34 30.0000000  0  7G11G 3G21G23G26G28G17
  -8755733.039 6  -6844069.14525  23749670.915
  19305291.585 5  13796457.00023  24495472.737
 -14345209.625 8 -16003665.52828  20634530.692
  14817383.772 8  -2233052.37328  20774816.504
    607626.547 5    844259.69325  24847379.767
 -18821365.495 8 -15645536.75927  21002130.777
  -3500370.635 7  -1309813.58726  21815355.594
 92  8 29  0 35  0.0000000  0  7G11G 3G21G23G26G28G17
  -8862199.261 6  -6927029.70125  23729405.335
  19429665.201 5  13893371.42624  24519149.146
 -14382630.157 7 -16032824.36828  20627407.833
  14855125.942 8  -2203642.90828  20781998.632
    701936.470 5    917747.84825  24865330.080
 -18846448.035 8 -15665081.60227  20997355.563
  -3431883.471 7  -1256446.98926  21828385.803
 92  8 29  0 35 30.0000000  0  7G11G 3G21G23G26G28G17
  -8968513.275 6  -7009871.81225  23709175.309
  19554214.265 5  13990422.51123  24542832.421
 -14419680.208 8 -16061694.49028  20620357.194
  14893170.595 8  -2173997.73328  20789240.179
    796477.605 5    991416.20425  24883302.338
 -18870907.299 8 -15684140.77127  20992701.915
  -3363119.200 7  -1202864.47226  21841468.956
 92  8 29  0 36  0.0000000  0  7G11G 3G21G23G26G28G17
  -9074670.751 6  -7092591.87825  23688974.514
  19678937.997 5  14087609.68323  24566567.319
 -14456373.303 8 -16090286.48728  20613373.379
  14931504.231 8  -2144127.35928  20796532.570
    891244.450 5   1065260.37225  24901349.425
 -18894724.871 8 -15702699.89827  20988167.494
  -3294075.975 7  -1149064.59926  21854609.039
 92  8 29  0 36 30.0000000  0  7G11G 3G21G23G26G28G17
  -9180675.727 6  -7175193.05525  23668801.510
  19803826.913 5  14184925.63323  24590338.103
 -14492720.591 8 -16118609.03428  20606461.154
  14970127.673 8  -2114031.16728  20803882.372
    986229.747 5   1139274.84025  24919420.254
 -18917892.332 8 -15720752.47127  20983761.354
  -3224744.846 7  -1095040.34326  21867803.595
 92  8 29  0 37  0.0000000  0  7G11G 3G21G23G26G28G17
  -9286526.298 6  -7257673.95625  23648660.673
  19928877.541 5  14282367.49123  24614136.048
 -14528709.605 8 -16146652.40928  20599612.005
  15009031.779 8  -2083716.27828  20811284.458
   1081415.044 5   1213445.07725  24937535.573
 -18940411.433 8 -15738299.80727  20979474.052
  -3155119.181 7  -1040786.62226  21881053.072
 92  8 29  0 37 30.0000000  0  6G11G 3G21G23G28G17
  -9392224.865 6  -7340036.46025  23628547.387
  20054082.370 5  14379929.65323  24637954.019
 -14564355.336 8 -16174428.25728  20592825.004
  15048211.382 8  -2053186.73228  20818741.016
 -18962292.353 8 -15755349.85927  20975312.423
  -3085220.627 7   -986320.24526  21894354.624
 92  8 29  0 38  0.0000000  0  6G11G 3G21G23G28G17
  -9497764.474 6  -7422275.03225  23608463.571
  20179442.251 5  14477612.47023  24661804.158
 -14599649.420 8 -16201930.13928  20586113.220
  15087689.164 8  -2022424.83328  20826254.324
 -18983533.326 8 -15771901.26127  20971269.302
  -3015067.439 7   -931655.45526  21907702.673
 92  8 29  0 38 30.0000000  0  6G11G 3G21G23G28G17
  -9603146.349 6  -7504390.72725  23588408.654
  20304950.812 5  14575411.27523  24685686.825
 -14634579.531 8 -16229148.38928  20579464.453
  15127478.769 8  -1991419.93028  20833824.234
 -19004144.562 8 -15787961.95827  20967345.469
  -2944676.603 7   -876805.47526  21921099.918
 92  8 29  0 39  0.0000000  0  6G11G 3G21G23G28G17
  -9708367.659 6  -7586381.27125  23568384.827
  20430605.637 5  14673323.90022  24709608.074
 -14669159.296 8 -16256093.63828  20572883.679
  15167566.617 8  -1960182.65728  20841452.782
 -19024140.172 8 -15803542.94727  20963543.201
  -2874069.226 7   -821786.77126  21934534.907
 92  8 29  0 39 30.0000000  0  5G11G21G23G28G17
  -9813421.486 6  -7668241.33625  23548393.886
 -14703396.728 8 -16282772.13328  20566367.630
  15207947.032 8  -1928717.40128  20849139.671
 -19043520.370 8 -15818644.39127  20959846.910
  -2803238.133 7   -766593.74126  21948008.600
 92  8 29  0 40  0.0000000  0  5G11G21G23G28G17
  -9918301.590 6  -7749966.03825  23528436.552
 -14737270.072 8 -16309166.92628  20559923.291
  15248614.110 8  -1897028.77628  20856875.516
 -19062290.210 8 -15833270.22427  20956284.296
  -2732153.502 7   -711203.13226  21961541.141
 92  8 29  0 40 30.0000000  0  5G11G21G23G28G17
 -10023002.151 6  -7831550.78125  23508516.753
 -14770778.142 8 -16335277.09328  20553546.106
  15289549.519 8  -1865131.03228  20864663.944
 -19080447.475 8 -15847418.73927  20952828.888
  -2660793.757 7   -655598.16426  21975117.273
 92  8 29  0 41  0.0000000  0  5G11G21G23G28G17
 -10127519.854 6  -7912993.08925  23488621.086
 -14803927.785 8 -16361107.96028  20547238.713
  15330740.865 8  -1833033.89828  20872507.444
 -19097994.924 8 -15861092.06727  20949486.292
  -2589139.081 6   -599763.40126  21988755.192
 92  8 29  0 41 30.0000000  0  5G11G21G23G28G17
 -10231847.897 6  -7994287.63925  23468773.746
 -14836706.013 8 -16386649.42828  20541000.781
  15372201.123 8  -1800727.20728  20880394.504
 -19114918.723 8 -15874279.43327  20946266.791
  -2517172.169 7   -543685.29726  22002449.801
 92  8 29  0 42  0.0000000  0  5G11G21G23G28G17
 -10335986.467 6  -8075434.48025  23448950.869
 -14869114.205 8 -16411902.54328  20534832.611
  15413938.414 8  -1768204.63828  20888334.957
 -19131197.801 8 -15886964.42727  20943170.805
  -2444912.947 6   -487379.43726  22016196.484
 92  8 29  0 42 30.0000000  0  5G11G21G23G28G17
 -10439937.014 6  -8156434.84025  23429172.841
 -14901172.000 8 -16436882.62628  20528732.045
  15455946.641 8  -1735470.97528  20896330.721
 -19146815.907 8 -15899134.36527  20940197.133
  -2372393.454 6   -430870.78526  22029999.169
 92  8 29  0 43  0.0000000  0  5G11G21G23G28G17
 -10543696.773 6  -8237286.56025  23409427.071
 -14932875.075 8 -16461586.30328  20522700.700
  15498233.490 8  -1702520.19228  20904377.511
 -19161779.114 8 -15910794.00127  20937349.704
  -2299634.253 6   -374175.33526  22043843.525
 92  8 29  0 43 30.0000000  0  5G11G21G23G28G17
 -10647267.356 6  -8317990.91425  23389713.978
 -14964223.974 8 -16486014.00028  20516734.290
  15540791.736 8  -1669357.92628  20912476.824
 -19176077.646 8 -15921935.72027  20934627.049
  -2226656.113 6   -317309.29126  22057731.021
 92  8 29  0 44  0.0000000  0  5G11G21G23G28G17
 -10750644.049 6  -8398544.07225  23370045.824
 -14995220.834 8 -16510167.37728  20510835.304
  15583629.519 8  -1635977.83228  20920628.690
 -19189713.054 8 -15932560.70227  20932036.603
  -2153466.912 6   -260278.77726  22071658.928
 92  8 29  0 44 30.0000000  0  5G11G21G23G28G17
 -10853823.642 6  -8478943.73325  23350415.114
 -15025864.081 8 -16534045.21829  20505004.521
  15626754.484 8  -1602373.98828  20928833.410
 -19202710.396 8 -15942688.49627  20929561.516
  -2080061.110 6   -203079.50026  22085632.795
 92  8 29  0 45  0.0000000  0  5G11G21G23G28G17
 -10956801.806 6  -8559186.41825  23330815.373
 -15056151.080 8 -16557645.45829  20499240.261
  15670176.698 8  -1568538.50828  20937097.369
 -19215076.161 8 -15952324.17727  20927207.336
  -2006421.204 6   -145697.76626  22099642.216
 92  8 29  0 45 30.0000000  0  5G11G21G23G28G17
 -11059572.330 6  -8639267.26125  23311256.253
 -15086092.346 8 -16580976.29529  20493542.586
  15713896.681 8  -1534470.99728  20945417.479
 -19226792.734 8 -15961453.95627  20924979.908
  -1932526.792 6    -88117.74825  22113706.799
 92  8 29  0 46  0.0000000  0  5G11G21G23G28G17
 -11162137.459 6  -8719188.05825  23291743.062
 -15115693.496 8 -16604042.10429  20487907.717
  15757905.705 8  -1500178.25528  20953789.603
 -19237876.406 8 -15970090.58427  20922869.099
  -1858373.463 6    -30335.98525  22127817.281
 92  8 29  0 46 30.0000000  0  5G11G21G23G28G17
 -11264497.364 6  -8798948.99025  23272266.775
 -15144950.893 8 -16626840.06929  20482344.648
  15802182.136 8  -1465677.16328  20962216.649
 -19248325.587 8 -15978232.80927  20920882.554
  -1783954.133 6     27653.08725  22141969.973
 92  8 29  0 47  0.0000000  0  5G11G21G23G28G17
 -11366646.995 6  -8878546.04725  23252823.076
 -15173859.740 8 -16649366.42729  20476844.506
  15846702.882 8  -1430985.69228  20970689.204
 -19258128.665 8 -15985871.57527  20919013.948
  -1709256.028 6     85859.36025  22156191.588
 92  8 29  0 47 30.0000000  0  5G11G21G23G28G17
 -11468583.555 6  -8957977.02625  23233428.512
 -15202408.521 8 -16671612.21229  20471411.517
  15891452.511 8  -1396115.85828  20979203.010
 -19267289.817 8 -15993010.12027  20917272.514
  -1634280.472 6    144281.82025  22170458.591
 92  8 29  0 48  0.0000000  0  5G11G21G23G28G17
 -11570304.944 6  -9037240.40425  23214069.744
 -15230583.473 8 -16693566.71429  20466045.891
  15936429.712 8  -1361068.69528  20987766.072
 -19275817.870 8 -15999655.38027  20915649.587
  -1559034.954 6    202914.66525  22184776.589
 92  8 29  0 48 30.0000000  0  5G11G21G23G28G17
 -11671809.605 6  -9116334.90725  23194754.685
 -15258387.136 8 -16715231.88129  20460758.392
  15981639.368 8  -1325840.43228  20996366.548
 -19283709.870 8 -16005804.97728  20914147.387
  -1483526.489 6    261752.39625  22199146.571
 92  8 29  0 49  0.0000000  0  5G11G21G23G28G17
 -11773098.672 6  -9195261.41325  23175479.769
 -15285832.838 8 -16736618.15229  20455534.508
  16027089.863 8  -1290424.46128  21005013.192
 -19290976.442 8 -16011467.24128  20912768.402
  -1407771.604 6    320782.13525  22213561.012
 92  8 29  0 49 30.0000000  0  5G11G21G23G28G17
 -11874165.101 6  -9274014.42325  23156244.486
 -15312917.076 8 -16757722.73129  20450380.086
  16072805.789 7  -1254801.67028  21013717.006
 -19297598.502 8 -16016627.30328  20911501.719
  -1331782.718 6    379994.21525  22228017.394
 92  8 29  0 50  0.0000000  0  5G11G21G23G28G17
 -11975005.423 6  -9352591.21625  23137057.678
 -15339650.442 8 -16778553.92429  20445293.598
  16118788.796 7  -1218970.77927  21022462.462
 -19303581.999 8 -16021289.74628  20910368.503
  -1255569.890 6    439380.80425  22242524.231
 92  8 29  0 50 30.0000000  0  5G11G21G23G28G17
 -12075622.522 6  -9430994.14425  23117909.964
 -15366044.141 8 -16799120.42929  20440270.605
  16165024.752 7  -1182942.76228  21031263.769
 -19308942.134 8 -16025466.47528  20909347.350
  -1179142.948 6    498934.21125  22257062.216
 92  8 29  0 51  0.0000000  0  5G11G21G23G28G17
 -12176005.369 6  -9509214.43825  23098805.180
 -15392093.755 8 -16819418.81629  20435312.757
  16211511.669 7  -1146719.19828  21040108.186
 -19313670.256 8 -16029150.70328  20908445.305
  -1102483.697 6    558668.67125  22271655.604
 92  8 29  0 51 30.0000000  0  5G11G21G23G28G17
 -12276152.906 6  -9587251.43425  23079750.671
 -15417797.102 8 -16839447.39729  20430424.102
  16258227.673 7  -1110317.13527  21048998.562
 -19317764.045 8 -16032340.69428  20907665.125
  -1025578.253 6    618594.97125  22286295.579
 92  8 29  0 52  0.0000000  0  5G11G21G23G28G17
 -12376065.534 7  -9665105.40525  23060737.923
 -15443163.110 8 -16859213.10629  20425597.533
  16305163.219 7  -1073744.01127  21057931.118
 -19321249.484 8 -16035056.62228  20907004.682
   -948415.760 6    678721.55025  22300975.426
 92  8 29  0 52 30.0000000  0  5G11G21G23G28G17
 -12475739.828 6  -9742773.63425  23041769.995
 -15468193.474 8 -16878717.26629  20420833.171
  16352330.968 7  -1036989.91027  21066904.026
 -19324101.426 8 -16037278.89928  20906462.237
   -870988.824 6    739054.17325  22315707.617
 92  8 29  0 53  0.0000000  0  5G11G21G23G28G17
 -12575168.251 7  -9820250.25825  23022852.701
 -15492876.826 8 -16897951.03429  20416136.683
  16399743.332 7  -1000045.22527  21075928.169
 -19326293.206 8 -16038986.79727  20906043.427
   -793289.838 6    799598.80725  22330492.452
 92  8 29  0 53 30.0000000  0  5G11G21G23G28G17
 -12674344.474 7  -9897530.41825  23003978.727
 -15517200.083 8 -16916904.22929  20411506.808
  16447416.630 7   -962897.21627  21085001.597
 -19327823.665 8 -16040179.36827  20905752.988
   -715335.357 6    860342.51825  22345330.620
 92  8 29  0 54  0.0000000  0  5G11G21G23G28G17
 -12773266.080 6  -9974612.16325  22985155.028
 -15541169.235 8 -16935581.47929  20406946.065
  16495370.062 7   -925530.93427  21094125.091
 -19328693.230 8 -16040856.96128  20905587.323
   -637139.936 6    921273.98825  22360208.600
 92  8 29  0 54 30.0000000  0  5G11G21G23G28G17
 -12871925.156 6 -10051489.29525  22966380.346
 -15564773.046 8 -16953974.03229  20402453.585
  16543601.896 7   -887947.67627  21103305.606
 -19328876.602 8 -16040999.85227  20905553.057
   -558711.242 6    982387.21725  22375128.941
 92  8 29  0 55  0.0000000  0  5G11G21G23G28G17
 -12970316.784 6 -10128158.04325  22947659.296
 -15588002.842 8 -16972075.16529  20398031.287
  16592099.961 7   -850157.00527  21112533.277
 -19328399.113 8 -16040627.78927  20905645.393
   -480050.042 6   1043681.61925  22390098.268
 92  8 29  0 55 30.0000000  0  5G11G21G23G28G17
 -13068435.411 6 -10204614.09425  22928987.322
 -15610875.784 8 -16989898.23029  20393683.127
  16640861.863 7   -812160.75227  21121811.374
 -19327270.277 8 -16039748.19828  20905857.346
   -401157.166 6   1105156.53625  22405115.741
 92  8 29  0 56  0.0000000  0  5G11G21G23G28G17
 -13166274.463 6 -10280852.27225  22910369.251
 -15633397.912 8 -17007447.91029  20389395.765
  16689881.568 7   -773963.56627  21131141.725
 -19325483.326 8 -16038355.75928  20906200.698
   -322016.124 6   1166824.84825  22420175.905
 92  8 29  0 56 30.0000000  0  5G11G21G23G28G17
 -13263831.189 6 -10356870.43325  22891801.066
 -15655563.908 8 -17024720.11129  20385178.315
  16739139.464 7   -735580.80727  21140512.218
 -19323042.937 8 -16036454.17028  20906666.306
   -242625.489 6   1228687.64425  22435281.338
 92  8 29  0 57  0.0000000  0  5G11G21G23G28G17
 -13361109.128 7 -10432671.37825  22873291.790
 -15677389.207 8 -17041726.83429  20381025.590
  16788631.902 7   -697015.29827  21149932.686
 -19319966.332 8 -16034056.81628  20907245.595
   -162988.542 6   1290742.35325  22450433.748
 92  8 29  0 57 30.0000000  0  5G11G21G23G28G17
 -13458071.732 6 -10508226.59825  22854840.823
 -15698842.794 8 -17058443.90629  20376940.258
  16838397.159 7   -658237.19827  21159399.892
 -19316206.138 8 -16031126.78928  20907963.988
    -83071.358 6   1353015.41925  22465640.241
 92  8 29  0 58  0.0000000  0  5G11G21G23G28G17
 -13554702.654 7 -10583523.37925  22836449.965
 -15719901.795 8 -17074853.50229  20372935.660
  16888437.421 7   -619244.77927  21168925.318
 -19311753.692 8 -16027657.35528  20908809.552
     -2856.911 6   1415520.16025  22480912.028
 92  8 29  0 58 30.0000000  0  5G11G21G23G28G17
 -13651022.778 6 -10658577.96125  22818120.294
 -15740592.299 8 -17090975.96429  20368996.447
  16938726.875 7   -580058.21327  21178493.104
 -19306638.554 8 -16023671.54227  20909782.649
     77629.329 6   1478236.63625  22496225.877
 92  8 29  0 59  0.0000000  0  5G11G21G23G28G17
 -13747031.139 6 -10733389.64625  22799851.181
 -15760916.215 8 -17106812.78029  20365129.154
  16989277.122 7   -540668.42027  21188114.733
 -19300859.363 8 -16019168.26527  20910887.864
    158381.247 6   1541160.17725  22511595.187
 92  8 29  0 59 30.0000000  0  5G11G21G23G28G17
 -13842731.463 6 -10807961.26225  22781641.248
 -15780871.326 8 -17122362.20729  20361329.765
  17040075.141 8   -501085.56627  21197780.822
 -19294424.995 8 -16014154.50027  20912110.807
    239390.263 6   1604284.06625  22527006.918
 92  8 29  1  0  0.0000000  0  5G11G21G23G28G17
 -13938115.648 6 -10882286.54925  22763487.945
 -15800441.362 8 -17137611.58429  20357607.781
  17091125.545 8   -461306.05327  21207494.727
 -19287330.234 7 -16008626.11127  20913458.014
    320663.293 6   1667613.61125  22542471.082
 92  8 29  1  0 30.0000000  0  5G11G21G23G28G17
 -14033187.545 6 -10956368.50925  22745397.419
 -15819617.610 8 -17152554.09829  20353960.296
  17142434.541 8   -421325.03027  21217257.139
 -19279573.785 8 -16002582.12027  20914936.920
    402183.990 6   1731136.17725  22557981.654
 92  8 29  1  1  0.0000000  0  4G11G23G28G17
 -14127949.062 7 -11030208.62225  22727365.113
  17194000.339 7   -381143.89927  21227070.905
 -19271153.830 8 -15996021.12627  20916538.052
    483934.363 6   1794837.73225  22573541.632
 92  8 29  1  1 30.0000000  0  5G11G21G23G28G17
 -14222403.625 7 -11103809.50025  22709391.326
  21991136.49518    -19421.42931  20346883.186
  17245804.236 8   -340777.22827  21236930.239
 -19262081.153 8 -15988951.52127  20918261.739
    565925.311 6   1858726.73025  22589147.748
 92  8 29  1  2  0.0000000  0  5G11G21G23G28G17
 -14316551.293 7 -11177171.27025  22691477.737
  21973124.105 8    -33448.86521  20343457.338
  17297844.615 7   -300226.30627  21246828.936
 -19252348.340 8 -15981367.52327  20920114.966
    648149.867 6   1922797.76825  22604788.281
 92  8 29  1  2 30.0000000  0  5G11G21G23G28G17
 -14410391.162 6 -11250293.22125  22673619.760
  21955470.180 8    -47200.80422  20340097.713
  17350119.779 7   -259492.43627  21256781.147
 -19241956.080 8 -15973269.64727  20922091.857
    730589.709 6   1987036.57025  22620483.315
 92  8 29  1  3  0.0000000  0  5G11G21G23G28G17
 -14503918.913 6 -11323171.93125  22655818.653
  21938154.425 8    -60689.90022  20336801.285
  17402623.051 7   -218580.80127  21266772.660
 -19230911.005 8 -15964663.11427  20924195.861
    813264.586 6   2051458.50525  22636206.980
 92  8 29  1  3 30.0000000  0  5G11G21G23G28G17
 -14597138.088 7 -11395810.20225  22638082.392
  21921168.214 8    -73925.03625  20333569.103
  17455341.618 7   -177501.40927  21276801.257
 -19219229.520 8 -15955560.65827  20926415.824
    896174.561 6   2116063.60425  22651990.903
 92  8 29  1  4  0.0000000  0  5G11G21G23G28G17
 -14690043.568 7 -11468204.05525  22620403.151
  21904505.051 8    -86909.30726  20330398.588
  17508284.716 7   -136247.07227  21286877.641
 -19206910.137 8 -15945961.13427  20928763.409
    979302.593 6   2180838.66125  22667811.940
 92  8 29  1  4 30.0000000  0  5G11G21G23G28G17
 -14782635.257 7 -11540353.37825  22602781.350
  21888155.729 8    -99649.03527  20327289.171
  17561444.397 7    -94823.96427  21296993.328
 -19193970.273 8 -15935878.13427  20931222.966
   1062652.091 6   2245786.26325  22683670.901
 92  8 29  1  5  0.0000000  0  5G11G21G23G28G17
 -14874908.609 7 -11612254.63825  22585222.356
  21872130.530 8   -112136.19828  20324237.613
  17614812.968 7    -53238.07927  21307149.907
 -19180420.030 8 -15925319.51027  20933799.412
   1146245.204 6   2310923.70325  22699585.204
 92  8 29  1  5 30.0000000  0  5G11G21G23G28G17
 -14966858.836 7 -11683904.12325  22567729.136
  21856444.148 8   -124359.34528  20321248.772
  17668396.168 7    -11484.93827  21317343.031
 -19166242.100 8 -15914271.78927  20936507.947
   1230064.214 6   2376237.19225  22715525.919
 92  8 29  1  6  0.0000000  0  5G11G21G23G28G17
 -15058486.550 7 -11755302.32825  22550289.849
  21841094.158 8   -136320.36728  20318332.181
  17722192.998 7     30434.62827  21327580.613
 -19151427.457 7 -15902727.91427  20939319.880
   1314104.579 6   2441723.13825  22731513.671
 92  8 29  1  6 30.0000000  0  5G11G21G23G28G17
 -15149784.680 7 -11826443.66925  22532917.806
  21826093.115 8   -148009.47829  20315479.057
  17776204.106 7     72521.19927  21337861.816
 -19135965.074 7 -15890679.30927  20942262.583
   1398381.886 6   2507393.71725  22747555.325
 92  8 29  1  7  0.0000000  0  5G11G21G23G28G17
 -15240748.309 7 -11897324.36125  22515609.078
  21811453.302 8   -159417.12029  20312693.325
  17830440.744 7    114783.50927  21348179.713
 -19119849.071 8 -15878121.39027  20945329.730
   1482889.046 6   2573243.41325  22763634.844
 92  8 29  1  7 30.0000000  0  5G11G21G23G28G17
 -15331367.495 7 -11967936.70225  22498362.288
  21797180.659 8   -170538.64629  20309975.527
  17884912.776 7    157229.22327  21358549.504
 -19103059.672 8 -15865038.74527  20948524.228
   1567616.056 6   2639264.41125  22779753.035
 92  8 29  1  8  0.0000000  0  5G11G21G23G28G17
 -15421640.493 7 -12038279.23625  22481184.840
  21783266.896 8   -181380.53329  20307329.199
  17939607.319 7    199848.31827  21368954.820
 -19085614.613 7 -15851445.20827  20951844.340
   1652568.742 6   2705461.28025  22795927.947
 92  8 29  1  8 30.0000000  0  5G11G21G23G28G17
 -15511561.976 7 -12108347.86525  22464069.119
  21769700.590 8   -191951.66929  20304745.797
  17994522.517 7    242639.38927  21379404.866
 -19067523.030 8 -15837347.89527  20955284.698
   1737749.725 6   2771835.99025  22812138.205
 92  8 29  1  9  0.0000000  0  5G11G21G23G28G17
 -15601131.161 7 -12178141.98525  22447028.166
  21756471.586 8   -202259.97829  20302229.429
  18049648.424 7    285594.60927  21389895.174
 -19048797.804 8 -15822756.79627  20958852.348
   1823144.207 6   2838377.12925  22828384.198
 92  8 29  1  9 30.0000000  0  5G11G21G23G28G17
 -15690349.318 7 -12247662.60225  22430050.889
  21743567.462 8   -212315.13529  20299773.409
  18104965.442 7    328698.75427  21400420.527
 -19029436.889 8 -15807670.38627  20962535.838
   1908749.387 6   2905082.38025  22844670.754
 92  8 29  1 10  0.0000000  0  5G11G21G23G28G17
 -15779214.976 7 -12316908.49725  22413139.416
  21730980.911 8   -222122.81029  20297380.256
  18160468.175 7    371947.63027  21410984.374
 -19009456.017 8 -15792100.88427  20966336.907
   1994575.336 6   2971959.69425  22861009.293
 92  8 29  1 10 30.0000000  0  5G11G21G23G28G17
 -15867715.559 7 -12385869.94325  22396298.215
  21718725.317 8   -231672.63729  20295044.333
  18216165.781 7    415348.34427  21421587.464
 -18988848.306 8 -15776042.94127  20970257.503
   2080633.339 6   3039017.84525  22877381.558
 92  8 29  1 11  0.0000000  0  5G11G21G23G28G17
 -15955847.213 7 -12454543.95925  22379527.855
  21706822.517 8   -240947.53629  20292783.688
  18272052.933 7    458896.75127  21432217.595
 -18967606.957 8 -15759491.25427  20974302.123
   2166930.081 6   3106261.99225  22893803.859
 92  8 29  1 11 30.0000000  0  5G11G21G23G28G17
 -16043605.325 7 -12522926.86225  22362827.976
  21695278.396 8   -249942.94629  20290583.721
  18328135.062 7    502597.07827  21442889.726
 -18945724.446 7 -15742439.93827  20978464.711
   2253482.914 6   3173705.71725  22910278.114
 92  8 29  1 12  0.0000000  0  5G11G21G23G28G17
 -16130988.455 7 -12591017.55925  22346197.050
  21684093.951 8   -258658.08529  20288455.674
  18384415.104 7    546451.65227  21453596.634
 -18923212.081 7 -15724897.84827  20982747.816
   2340289.275 6   3241347.02525  22926794.910
 92  8 29  1 12 30.0000000  0  5G11G21G23G28G17
 -16217994.572 7 -12658814.49625  22329642.270
  21673274.795 8   -267088.58629  20286395.651
  18440894.823 7    590461.80227  21464348.481
 -18900064.091 7 -15706860.47027  20987152.337
   2427329.683 6   3309170.66325  22943358.683
 92  8 29  1 13  0.0000000  0  5G11G21G23G28G17
 -16304625.364 7 -12726318.99125  22313157.013
  21662816.578 8   -275237.84029  20284406.707
  18497588.862 7    634638.94027  21475134.953
 -18876269.777 7 -15688319.44427  20991680.762
   2514584.939 6   3377161.70125  22959959.631
 92  8 29  1 13 30.0000000  0  5G11G21G23G28G17
 -16390879.942 7 -12793530.29826  22296746.074
  21652707.177 8   -283115.29429  20282485.787
  18554503.085 7    678987.67227  21485965.496
 -18851841.062 8 -15669284.10027  20996331.082
   2602033.652 6   3445303.53825  22976605.277
 92  8 29  1 14  0.0000000  0  5G11G21G23G28G17
 -16476757.007 7 -12860447.46726  22280402.079
  21642943.944 8   -290722.99629  20280625.755
  18611633.370 7    723504.76227  21496836.929
 -18826782.666 7 -15649758.10127  21001101.710
   2689657.831 6   3513582.04225  22993282.132
 92  8 29  1 14 30.0000000  0  5G11G21G23G28G17
 -16562253.609 7 -12927068.16426  22264130.603
  21633525.194 8   -298062.28529  20278833.626
  18668987.484 7    768196.24227  21507752.403
 -18801087.912 7 -15629736.22627  21005988.687
   2777460.017 6   3581999.28325  23009989.596
 92  8 29  1 15  0.0000000  0  5G11G21G23G28G17
 -16647367.341 7 -12993390.51226  22247936.684
  21624444.278 8   -305138.31629  20277106.431
  18726547.227 7    813047.97027  21518707.749
 -18774760.151 7 -15609221.11327  21010998.279
   2865461.497 6   3650571.82625  23026732.735
 92  8 29  1 15 30.0000000  0  5G11G21G23G28G17
 -16732095.461 7 -13059412.38726  22231813.816
  21615697.522 8   -311953.96529  20275441.834
  18784283.426 7    858037.21127  21529694.273
 -18747818.999 7 -15588228.00727  21016126.259
   2953669.149 6   3719304.99625  23043516.615
 92  8 29  1 16  0.0000000  0  5G11G21G23G28G17
 -16816437.284 7 -13125133.27426  22215763.977
  21607283.374 8   -318510.45029  20273838.783
  18842188.906 7    903158.33127  21540711.286
 -18720254.863 7 -15566749.48327  21021367.230
   3042097.641 6   3788210.24025  23060341.028
 92  8 29  1 16 30.0000000  0  5G11G21G23G28G17
 -16900392.700 7 -13190553.04026  22199787.767
  21599203.062 8   -324806.77129  20272301.448
  18900252.260 7    948402.47927  21551759.807
 -18692072.391 7 -15544789.13227  21026736.123
   3130749.805 6   3857289.84125  23077215.296
 92  8 29  1 17  0.0000000  0  5G11G21G23G28G17
 -16983957.690 7 -13255668.56126  22183884.616
  21591463.724 8   -330837.42729  20270830.696
  18958464.071 7    993762.31127  21562837.079
 -18663280.931 7 -15522354.25027  21032209.494
   3219616.268 6   3926536.37125  23094126.709
 92  8 29  1 17 30.0000000  0  5G11G21G23G28G17
 -17067130.242 7 -13320478.32326  22168056.114
  21584063.126 8   -336604.13229  20269420.862
  19016857.102 7   1039263.35027  21573949.486
 -18633870.411 7 -15499436.97827  21037807.879
   3308675.396 6   3995933.03325  23111074.546
 92  8 29  1 18  0.0000000  0  5G11G21G23G28G17
 -17149901.786 7 -13384975.59026  22152306.637
  21576999.149 8   -342108.53029  20268079.111
  19075450.013 7   1084920.13126  21585100.686
 -18603825.800 7 -15476025.61227  21043525.430
   3397935.356 6   4065486.21225  23128059.588
 92  8 29  1 18 30.0000000  0  5G11G21G23G28G17
 -17232272.760 7 -13449160.71626  22136630.819
  21570258.833 8   -347360.68929  20266790.993
  19134241.849 7   1130731.94627  21596289.900
 -18573166.186 7 -15452135.02727  21049358.912
   3487379.125 6   4135182.65225  23145081.234
 92  8 29  1 19  0.0000000  0  5G11G21G23G28G17
 -17314239.134 7 -13513030.59526  22121036.755
  21563831.028 8   -352369.38329  20265571.527
  19193242.803 7   1176706.69727  21607516.228
 -18541891.793 7 -15427765.39027  21055307.214
   3577012.834 6   4205027.00325  23162133.129
 92  8 29  1 19 30.0000000  0  5G11G21G23G28G17
 -17395791.022 7 -13576577.47626  22105516.319
  21557710.935 8   -357138.28029  20264406.683
  19252461.220 7   1222850.89826  21618782.938
 -18509998.600 7 -15402913.57227  21061382.059
   3666855.371 6   4275034.11725  23179234.910
 92  8 29  1 20  0.0000000  0  5G11G21G23G28G17
 -17476929.717 7 -13639802.38926  22090072.271
  21551902.407 8   -361664.39829  20263302.188
  19311857.244 7   1269133.49226  21630086.133
 -18477517.522 7 -15377603.65727  21067561.681
   3756911.212 6   4345207.51525  23196376.443
 92  8 29  1 20 30.0000000  0  5G11G21G23G28G17
 -17557652.076 7 -13702702.89526  22074715.283
  21546421.823 8   -365934.98829  20262259.270
  19371431.025 7   1315554.62126  21641422.635
 -18444453.479 7 -15351839.48427  21073854.714
   3847174.423 6   4415542.40225  23213542.169
 92  8 29  1 21  0.0000000  0  5G11G21G23G28G17
 -17637950.845 7 -13765273.34926  22059435.041
  21541276.076 8   -369944.66429  20261279.938
  19431180.165 7   1362112.36926  21652791.604
 -18410789.093 7 -15325607.52427  21080257.591
   3937661.416 6   4486051.69125  23230768.274
 92  8 29  1 21 30.0000000  0  5G11G21G23G28G17
 -17717825.036 7 -13827512.94826  22044232.116
  21536475.614 8   -373685.27329  20260365.181
  19491094.916 7   1408799.17326  21664195.290
 -18376535.578 7 -15298916.48627  21086777.328
   4028353.698 6   4556721.00825  23248028.974
 92  8 29  1 22  0.0000000  0  5G11G21G23G28G17
 -17797270.203 7 -13889418.24626  22029115.081
  21532029.258 8   -377149.95829  20259519.946
  19551171.191 7   1455611.82426  21675628.535
 -18341677.909 7 -15271754.67027  21093411.855
   4119239.008 6   4627540.66725  23265319.564
 92  8 29  1 22 30.0000000  0  5G11G21G23G28G17
 -17876282.490 7 -13950986.26526  22014080.099
  21527924.300 8   -380348.62429  20258737.248
  19611424.552 7   1502562.51026  21687091.249
 -18306203.699 7 -15244112.44327  21100161.382
   4210313.766 6   4698507.97025  23282646.040
 92  8 29  1 23  0.0000000  0  6G11G21G12G23G28G17
 -17954850.895 7 -14012208.36026  21999131.488
  21524154.674 8   -383285.99329  20258018.376
  -2143790.26415   -523876.57333  24569644.479
  19671855.170 7   1549651.27426  21698592.637
 -18270113.208 7 -15215989.99827  21107031.306
   4301578.718 6   4769623.46625  23300013.107
 92  8 29  1 23 30.0000000  0  6G11G21G12G23G28G17
 -18032978.409 7 -14073086.93126  21984261.992
  21520719.243 8   -385962.94429  20257366.387
  -2214874.977 5   -579267.15224  24556108.670
  19732466.790 7   1596881.09426  21710127.212
 -18233428.486 7 -15187404.53127  21114010.235
   4393013.266 6   4840871.12225  23317408.654
 92  8 29  1 24  0.0000000  0  6G11G21G12G23G28G17
 -18110659.183 7 -14133617.39026  21969482.883
  21517615.644 8   -388381.32129  20256775.016
  -2285567.276 5   -634351.87525  24542666.246
  19793266.529 7   1644257.49926  21721694.494
 -18196133.411 7 -15158343.41527  21121108.571
   4484629.484 6   4912260.33225  23334840.386
 92  8 29  1 24 30.0000000  0  6G11G21G12G23G28G17
 -18187891.841 7 -14193798.65726  21954784.719
  21514839.859 8   -390544.25229  20256246.213
  -2355865.445 5   -689129.57225  24529280.303
  19854264.473 7   1691788.38626  21733303.837
 -18158239.247 7 -15128815.52027  21128317.590
   4576430.938 6   4983793.91825  23352320.565
 92  8 29  1 25  0.0000000  0  6G11G21G12G23G28G17
 -18264678.319 7 -14253632.24326  21940171.216
  21512399.693 8   -392445.68229  20255782.703
  -2425771.117 5   -743601.36924  24515982.648
  19915453.895 7   1739468.43726  21744946.847
 -18119751.436 7 -15098825.03427  21135641.190
   4668421.070 6   5055474.50525  23369826.166
 92  8 29  1 25 30.0000000  0  6G11G21G12G23G28G17
 -18341013.894 7 -14313114.51526  21925645.851
  21510310.176 8   -394073.88029  20255388.626
  -2495279.221 5   -797763.69723  24502755.445
  19976845.207 7   1787305.79626  21756627.061
 -18080656.320 7 -15068361.32027  21143082.009
   4760610.611 6   5127310.45725  23387369.241
 92  8 29  1 26  0.0000000  0  6G11G21G12G23G28G17
 -18416896.052 7 -14372243.43926  21911208.146
  21508564.049 8   -395434.47629  20255054.028
  -2564387.124 5   -851613.83624  24489607.268
  20038419.860 7   1835286.04626  21768345.318
 -18040948.109 7 -15037419.86927  21150637.498
   4853001.683 6   5199303.44425  23404945.294
 92  8 29  1 26 30.0000000  0  6G11G21G12G23G28G17
 -18492315.446 7 -14431011.75526  21896854.263
  21507157.065 8   -396530.82829  20254784.065
  -2633085.082 5   -905144.56124  24476536.616
  20100170.823 7   1883403.67026  21780097.003
 -18000640.832 7 -15006011.61227  21158311.136
   4945605.645 6   5271462.36325  23422573.959
 92  8 29  1 27  0.0000000  0  6G11G21G12G23G28G17
 -18567267.389 7 -14489415.86226  21882589.509
  21506087.442 8   -397364.29129  20254584.613
  -2701368.052 5   -958351.94425  24463537.286
  20162085.601 7   1931648.92426  21791878.816
 -17959734.574 7 -14974136.63727  21166090.241
   5038420.747 6   5343785.78925  23440226.879
 92  8 29  1 27 30.0000000  0  6G11G21G12G23G28G17
 -18641753.365 8 -14547456.83826  21868417.180
  21505340.771 8   -397946.09329  20254438.974
  -2769237.377 5  -1011236.97324  24450619.888
  20224152.271 7   1980012.52526  21803690.010
 -17918234.942 7 -14941799.27627  21173988.033
   5131425.273 6   5416256.79025  23457935.319
 92  8 29  1 28  0.0000000  0  6G11G21G12G23G28G17
 -18715763.383 7 -14605126.95026  21854333.380
  21504914.957 8   -398277.89029  20254358.659
  -2836682.666 5  -1063791.59624  24437781.246
  20286359.260 7   2028485.50526  21815528.034
 -17876146.159 7 -14909002.86227  21181997.858
   5224625.699 6   5488880.48525  23475667.863
 92  8 29  1 28 30.0000000  0  6G11G21G12G23G28G17
 -18789295.534 7 -14662424.70226  21840341.646
  21504820.701 8   -398351.32829  20254340.282
  -2903701.835 5  -1116013.94023  24425012.186
  20348721.674 7   2077079.57426  21827395.738
 -17833469.131 7 -14875748.05127  21190124.092
   5318024.677 6   5561658.90125  23493439.530
 92  8 29  1 29  0.0000000  0  6G11G21G12G23G28G17
 -18862341.815 7 -14719343.84026  21826438.921
  21505080.782 8   -398148.64729  20254387.829
  -2970286.381 5  -1167897.88323  24412369.099
  20411258.336 7   2125809.39026  21839299.088
 -17790178.976 7 -14842015.47227  21198357.652
   5411617.765 5   5634588.51125  23511245.194
 92  8 29  1 29 30.0000000  0  6G11G21G12G23G28G17
 -18934898.656 7 -14775881.60026  21812633.268
  21505697.811 8   -397667.84629  20254505.947
  -3036432.727 5  -1219440.38524  24399779.314
  20473973.802 7   2174678.57426  21851230.318
 -17746291.008 7 -14807817.09327  21206708.911
   5505408.438 6   5707672.08725  23529097.535
 92  8 29  1 30  0.0000000  0  6G11G21G12G23G28G17
 -19006961.677 7 -14832034.55226  21798921.031
  21506675.475 8   -396906.01929  20254693.348
  -3102136.140 5  -1270637.70925  24387271.883
  20536882.889 7   2223698.60726  21863202.260
 -17701810.089 7 -14773156.65827  21215175.709
   5599410.221 6   5780920.22525  23546989.838
 92  8 29  1 30 30.0000000  0  6G11G21G12G23G28G17
 -19078528.078 7 -14887800.57526  21785300.530
  21507997.777 8   -395875.64029  20254947.092
  -3167393.520 5  -1321487.50924  24374855.559
  20600001.103 7   2272881.60626  21875214.494
 -17656729.684 7 -14738029.08227  21223753.101
   5693620.807 6   5854331.03725  23564914.609
 92  8 29  1 31  0.0000000  0  6G11G21G12G23G28G17
 -19149593.196 7 -14943175.94926  21771777.222
  21509648.138 8   -394589.64629  20255261.184
  -3232199.953 5  -1371985.99223  24362526.894
  20663315.174 7   2322217.22526  21887261.804
 -17611058.111 7 -14702440.86727  21232444.834
   5788036.399 5   5927901.60225  23582880.242
 92  8 29  1 31 30.0000000  0  6G11G21G12G23G28G17
 -19220158.926 8 -14998162.18426  21758348.889
  21511604.284 8   -393065.36829  20255633.257
  -3296557.047 5  -1422134.39623  24350276.504
  20726809.299 7   2371693.16426  21899341.311
 -17564816.095 7 -14666408.14427  21241244.043
   5882653.124 6   6001628.87025  23600889.974
 92  8 29  1 32  0.0000000  0  6G11G21G12G23G28G17
 -19290222.641 7 -15052757.26926  21745016.968
  21513870.479 8   -391299.49529  20256067.027
  -3360462.081 5  -1471930.37524  24338123.877
  20790474.843 7   2421302.64126  21911460.092
 -17517979.104 7 -14629911.80627  21250159.091
   5977466.366 5   6075509.29625  23618921.861
 92  8 29  1 32 30.0000000  0  6G11G21G12G23G28G17
 -19359781.821 8 -15106959.18126  21731780.681
  21516455.650 8   -389285.07129  20256554.159
  -3423912.154 5  -1521371.86625  24326034.777
  20854295.151 7   2471032.70426  21923600.097
 -17470548.519 7 -14592952.92727  21259182.664
   6072467.228 6   6149535.88425  23637009.149
 92  8 29  1 33  0.0000000  0  6G11G21G12G23G28G17
 -19428917.703 8 -15160831.28326  21718622.670
  21519310.367 8   -387060.62329  20257097.143
  -3486988.130 5  -1570521.88425  24314041.939
  20918183.771 7   2520816.02726  21935758.331
 -17422624.778 7 -14555609.77027  21268303.190
   6167564.430 5   6223637.54925  23655096.767
 92  8 29  1 33 30.0000000  0  6G11G21G12G23G28G17
 -19497712.190 8 -15214437.36526  21705533.852
  21522366.128 8   -384679.51029  20257680.330
  -3549772.149 5  -1619444.38924  24302096.649
  20982068.911 7   2570596.64126  21947916.384
 -17374284.358 7 -14517941.93127  21277499.354
   6262667.552 5   6297743.87625  23673206.990
 92  8 29  1 34  0.0000000  0  6G11G21G12G23G28G17
 -19565999.043 8 -15267647.87126  21692537.699
  21525788.997 8   -382012.33429  20258333.877
  -3612097.253 5  -1668009.47524  24290232.182
  21046122.177 7   2620508.24526  21960102.677
 -17325358.144 7 -14479817.61827  21286809.438
   6357941.291 5   6371983.11425  23691339.967
 92  8 29  1 34 30.0000000  0  6G11G21G12G23G28G17
 -19633774.283 8 -15320459.73426  21679641.646
  21529575.626 8   -379061.71129  20259050.321
  -3673959.627 5  -1716213.78924  24278462.660
  21110347.688 7   2670554.07926  21972330.612
 -17275871.150 7 -14441256.35127  21296224.930
   6453387.622 5   6446356.80425  23709499.205
 92  8 29  1 35  0.0000000  0  6G11G21G12G23G28G17
 -19701035.753 8 -15372871.24126  21666842.547
  21533707.567 8   -375842.00929  20259839.165
  -3735356.652 5  -1764055.50525  24266773.272
  21174750.642 7   2720738.19426  21984584.119
 -17225818.431 7 -14402254.25327  21305753.174
   6549008.666 5   6520866.71625  23727689.802
 92  8 29  1 35 30.0000000  0  6G11G21G12G23G28G17
 -19767782.242 8 -15424881.49226  21654140.191
  21538151.480 8   -372379.22729  20260682.182
  -3796287.072 5  -1811533.67525  24255178.619
  21239315.650 7   2771048.57526  21996874.531
 -17175188.848 7 -14362802.63927  21315387.304
   6644813.129 5   6595519.50625  23745915.175
 92  8 29  1 36  0.0000000  0  6G11G21G12G23G28G17
 -19834009.424 8 -15476487.05926  21641537.665
  21542908.353 8   -368672.55629  20261589.354
  -3856746.174 5  -1858644.65124  24243682.208
  21304031.238 7   2821476.27226  22009183.679
 -17124002.348 7 -14322917.06927  21325126.602
   6740808.854 5   6670321.28325  23764184.797
 92  8 29  1 36 30.0000000  0  6G11G21G12G23G28G17
 -19899718.175 8 -15527688.65426  21629033.891
  21547987.370 8   -364714.88329  20262553.606
  -3916734.879 5  -1905389.09724  24232254.839
  21368890.324 7   2872015.81226  22021526.195
 -17072277.332 7 -14282611.89527  21334973.105
   6836988.293 5   6745266.27225  23782489.525
 92  8 29  1 37  0.0000000  0  6G11G21G12G23G28G17
 -19964906.122 8 -15578484.44026  21616629.079
  21553383.209 8   -360510.32929  20263582.464
  -3976250.382 5  -1951764.66625  24220928.590
  21433900.550 7   2922673.12826  22033897.520
 -17020003.190 7 -14241878.82727  21344918.271
   6933338.258 5   6820344.15725  23800825.401
 92  8 29  1 37 30.0000000  0  6G11G21G12G23G28G17
 -20029570.657 8 -15628872.36526  21604323.978
  21559102.217 8   -356053.94329  20264671.610
  -4035289.804 5  -1997769.28525  24209700.493
  21499060.716 7   2973447.27426  22046296.726
 -16967191.170 7 -14200726.62827  21354968.993
   7029849.135 5   6895547.35625  23819195.064
 92  8 29  1 38  0.0000000  0  6G11G21G12G23G28G17
 -20093707.750 8 -15678849.30426  21592117.268
  21565157.718 8   -351335.36529  20265820.175
  -4093849.081 5  -2043399.82925  24198546.655
  21564377.427 7   3024343.39326  22058723.963
 -16913845.611 7 -14159158.69227  21365121.914
   7126515.987 5   6970872.09825  23837588.021
 92  8 29  1 38 30.0000000  0  6G11G21G12G23G28G17
 -20157319.126 8 -15728416.59226  21580013.777
  21571528.256 8   -346371.30529  20267034.604
  -4151929.762 5  -2088657.54224  24187489.200
  21629848.373 7   3075359.72926  22071184.477
 -16859943.665 7 -14117157.20727  21375375.565
   7223331.629 5   7046312.82625  23856006.850
 92  8 29  1 39  0.0000000  0  6G11G21G12G23G28G17
 -20220403.948 8 -15777573.57726  21568008.498
  21578198.080 8   -341174.03329  20268306.653
  -4209530.742 5  -2133541.33125  24176542.878
  21695465.079 7   3126489.62926  22083671.822
 -16805472.736 7 -14074712.32827  21385744.007
   7320300.155 5   7121872.70225  23874467.140
 92  8 29  1 39 30.0000000  0  6G11G21G12G23G28G17
 -20282955.464 8 -15826314.98526  21556105.419
  21585179.167 8   -335734.22029  20269633.445
  -4266645.149 5  -2178045.95425  24165673.632
  21761218.979 7   3177726.40926  22096184.020
 -16750431.500 7 -14031823.10327  21396215.158
   7417446.673 5   7197571.19025  23892936.844
 92  8 29  1 40  0.0000000  0  6G11G21G12G23G28G17
 -20344975.126 8 -15874641.98026  21544301.780
  21592477.624 8   -330047.11629  20271023.163
  -4323274.141 5  -2222172.33325  24154897.173
  21827110.837 7   3229070.68726  22108726.287
 -16694825.205 7 -13988493.56027  21406798.042
   7514771.933 5   7273409.06925  23911473.941
 92  8 29  1 40 30.0000000  0  6G11G21G12G23G28G17
 -20406457.422 8 -15922550.23427  21532603.789
  21600099.348 8   -324108.10329  20272471.400
  -4379412.177 5  -2265916.17825  24144206.394
  21893147.913 7   3280528.16626  22121288.701
 -16638659.724 7 -13944728.27427  21417489.421
   7612264.441 5   7349377.19125  23930028.516
 92  8 29  1 41  0.0000000  0  6G11G21G12G23G28G17
 -20467400.003 8 -15970037.92827  21521004.998
  21608059.262 8   -317905.55729  20273986.281
  -4435056.753 5  -2309275.67825  24133620.902
  21959332.798 7   3332100.80426  22133881.902
 -16581966.425 7 -13900551.69327  21428273.915
   7709918.253 5   7425471.04025  23948611.541
 92  8 29  1 41 30.0000000  0  6G11G21G12G23G28G17
 -20527801.545 8 -16017104.03327  21509513.144
  21616362.692 8   -311435.34929  20275567.297
  -4490206.319 5  -2352249.21525  24123124.958
  22025673.870 7   3383795.11926  22146507.182
 -16524757.907 7 -13855973.65927  21439162.347
   7807722.321 5   7501681.98725  23967205.239
 92  8 29  1 42  0.0000000  0  6G11G21G12G23G28G17
 -20587655.173 8 -16063743.20227  21498122.559
  21625000.128 8   -304704.87529  20277210.459
  -4544853.782 5  -2394831.62425  24112733.972
  22092179.510 7   3435617.65326  22159168.257
 -16467040.019 7 -13810998.70827  21450142.156
   7905662.246 5   7577998.73025  23985850.082
 92  8 29  1 42 30.0000000  0  6G11G21G12G23G28G17
 -20646964.968 8 -16109958.59127  21486835.074
  21633945.159 8   -297734.70929  20278913.340
  -4599003.168 5  -2437025.84925  24102434.002
  22158832.788 7   3487555.28426  22171846.780
 -16408823.997 7 -13765635.58627  21461223.954
   8003742.572 5   7654424.83224  24004524.454
 92  8 29  1 43  0.0000000  0  6G11G21G12G23G28G17
 -20705729.058 8 -16155748.77327  21475653.804
  21643185.918 8   -290534.10829  20280676.090
  -4652652.447 5  -2478830.52425  24092220.403
  22225625.376 7   3539601.43826  22184560.199
 -16350101.488 7 -13719877.83227  21472395.690
   8101986.018 5   7730978.19624  24023219.181
 92  8 29  1 43 30.0000000  0  6G11G21G12G23G28G17
 -20763941.330 8 -16201108.97227  21464575.633
  21652709.918 8   -283112.81129  20282484.648
  -4705795.315 5  -2520240.51825  24082112.780
  22292544.719 7   3591746.34725  22197294.723
 -16290854.985 7 -13673711.74727  21483673.342
   8200400.569 5   7807664.85525  24041938.193
 92  8 29  1 44  0.0000000  0  6G11G21G12G23G28G17
 -20821597.909 8 -16246036.14727  21453604.519
  21662513.169 8   -275473.91129  20284349.717
  -4758427.675 5  -2561252.61125  24072091.348
  22359566.790 7   3643971.29925  22210048.164
 -16231080.639 7 -13627134.35427  21495042.492
   8298992.862 5   7884489.98524  24060695.337
 92  8 29  1 44 30.0000000  0  6G11G21G12G23G28G17
 -20878693.556 8 -16290526.22927  21442739.680
  21672613.948 8   -267603.17929  20286269.438
  -4810544.382 5  -2601862.94125  24062171.635
  22426693.332 7   3696277.69126  22222821.511
 -16170773.907 7 -13580142.13927  21506519.716
   8397768.341 5   7961457.78724  24079496.342
 92  8 29  1 45  0.0000000  0  6G11G21G12G23G28G17
 -20935225.051 8 -16334576.73227  21431983.577
  21683020.298 8   -259494.32129  20288252.805
  -4862141.849 5  -2642068.84825  24052357.300
  22493930.280 7   3748670.07625  22235613.235
 -16109934.306 7 -13532734.68626  21518097.191
   8496703.351 5   8038549.98924  24098318.991
 92  8 29  1 45 30.0000000  0  6G11G21G12G23G28G17
 -20991191.552 8 -16378186.97027  21421332.850
  21693736.922 8   -251143.70929  20290291.783
  -4913219.110 5  -2681869.24025  24042643.484
  22561289.681 7   3801157.87925  22248434.609
 -16048579.726 7 -13484925.93827  21529773.268
   8595776.338 5   8115749.69924  24117166.223
 92  8 29  1 46  0.0000000  0  6G11G21G12G23G28G17
 -21046585.941 8 -16421351.39527  21410791.757
  21704783.352 8   -242536.09829  20292395.067
  -4963768.959 5  -2721258.63025  24033024.373
  22628802.643 7   3853765.38525  22261280.326
 -15986713.351 7 -13436718.40327  21541550.135
   8694989.951 5   8193058.90124  24136056.146
 92  8 29  1 46 30.0000000  0  6G11G21G12G23G28G17
 -21101412.474 8 -16464073.38027  21400355.922
  21716159.967 8   -233671.20429  20294560.468
  -5013795.606 5  -2760240.35725  24023501.436
  22696489.448 7   3906508.32925  22274159.230
 -15924351.011 7 -13388124.39927  21553415.381
   8794328.908 5   8270465.90324  24154957.311
 92  8 29  1 47  0.0000000  0  6G11G21G12G23G28G17
 -21155668.106 8 -16506350.47627  21390033.408
  21727852.659 8   -224560.01429  20296782.710
  -5063295.609 5  -2798811.82125  24014077.700
  22764350.388 7   3959386.92825  22287074.140
 -15861489.802 7 -13339141.66827  21565374.762
   8893792.351 5   8347969.79824  24173896.460
 92  8 29  1 47 30.0000000  0  6G11G21G12G23G28G17
 -21209343.847 8 -16548175.70927  21379819.029
  21739874.587 8   -215192.26929  20299070.006
  -5112260.299 5  -2836966.06325  24004772.382
  22832387.448 7   4012402.80025  22300021.546
 -15798117.820 7 -13289760.92827  21577438.470
   8993406.352 5   8425590.98524  24192848.050
 92  8 29  1 48  0.0000000  0  6G11G21G12G23G28G17
 -21262438.624 8 -16589548.25827  21369716.263
  21752226.026 8   -205567.77129  20301418.970
  -5160688.285 5  -2874702.09825  23995541.982
  22900584.033 7   4065542.99625  22313000.042
 -15734229.174 7 -13239977.60526  21589592.176
   9093175.803 5   8503333.42924  24211825.002
 92  8 29  1 48 30.0000000  0  6G11G21G12G23G28G17
 -21314954.122 8 -16630469.40027  21359722.802
  21764885.631 8   -195703.13629  20303827.922
  -5208580.956 5  -2912020.93425  23986430.929
  22968915.283 7   4118788.09925  22326008.366
 -15669827.636 7 -13189794.62326  21601847.242
   9193082.879 5   8581183.07424  24230841.497
 92  8 29  1 49  0.0000000  0  6G11G21G12G23G28G17
 -21366887.933 8 -16670937.28327  21349839.694
  21777845.552 8   -185604.50529  20306296.563
  -5255935.986 5  -2948921.00125  23977418.778
  23037373.770 7   4172132.33825  22339027.213
 -15604917.200 7 -13139215.07727  21614200.370
   9293130.759 5   8659142.34224  24249879.188
 92  8 29  1 49 30.0000000  0  6G11G21G12G23G28G17
 -21418236.938 8 -16710949.47227  21340068.018
  21791116.468 8   -175263.52029  20308820.336
  -5302749.984 5  -2985399.35925  23968503.700
  23105954.791 7   4225572.11025  22352081.766
 -15539510.246 7 -13088248.67027  21626647.723
   9393329.164 5   8737219.01124  24268933.487
 92  8 29  1 50  0.0000000  0  6G11G21G12G23G28G17
 -21468998.256 8 -16750503.73227  21330409.545
  21804688.612 8   -164687.81929  20311402.239
  -5349020.231 5  -3021454.04625  23959700.415
  23174649.685 7   4279100.56425  22365152.477
 -15473624.064 7 -13036908.81326  21639186.033
   9493672.307 5   8815408.46524  24288044.207
 92  8 29  1 50 30.0000000  0  6G11G21G12G23G28G17
 -21519173.751 8 -16789601.49727  21320859.026
  21818552.015 8   -153885.17329  20314041.881
  -5394748.248 5  -3057086.17225  23951013.988
  23243457.273 7   4332716.83525  22378247.232
 -15407273.529 7 -12985207.10626  21651814.011
   9594163.471 5   8893713.15824  24307168.657
 92  8 29  1 51  0.0000000  0  6G11G21G12G23G28G17
 -21568761.799 8 -16828241.49927  21311424.648
  21832720.254 8   -142844.98029  20316736.056
  -5439932.447 5  -3092294.62625  23942402.779
  23312367.667 7   4386413.23325  22391361.023
 -15340457.513 7 -12933142.70126  21664527.730
   9694813.056 5   8972141.31224  24326310.196
 92  8 29  1 51 30.0000000  0  6G11G21G12G23G28G17
 -21617762.120 8 -16866423.56127  21302100.383
  21847191.795 8   -131568.46229  20319494.327
  -5484572.444 5  -3127079.03225  23933911.608
  23381355.854 7   4440170.27125  22404490.854
 -15273167.204 7 -12880708.73126  21677329.317
   9795603.316 5   9050679.17224  24345497.123
 92  8 29  1 52  0.0000000  0  6G11G21G12G23G28G17
 -21666173.006 8 -16904146.30627  21292889.439
  21861963.111 8   -120058.33129  20322302.483
  -5528666.353 5  -3161437.83125  23925518.528
  23450418.799 7   4493985.54225  22417632.556
 -15205399.682 7 -12827902.90226  21690224.800
   9896506.579 5   9129305.07124  24364699.969
 92  8 29  1 52 30.0000000  0  6G11G21G12G23G28G17
 -21713991.205 8 -16941407.20227  21283786.931
  21877048.633 8   -108303.38229  20325173.625
  -5572210.908 5  -3195368.55825  23917238.770
  23519567.727 7   4547867.78825  22430788.498
 -15137151.548 7 -12774722.55326  21703213.428
   9997512.456 5   9208010.84924  24383906.323
 92  8 29  1 53  0.0000000  0  6G11G21G12G23G28G17
 -21761211.883 8 -16978202.51627  21274803.200
  21892461.579 8    -96293.29029  20328107.844
  -5615200.997 5  -3228867.25725  23909050.479
  23588812.312 7   4601824.59725  22443967.045
 -15068424.840 7 -12721169.31426  21716292.234
  10098621.384 5   9286797.01524  24403165.320
 92  8 29  1 53 30.0000000  0  6G11G21G12G23G28G17
 -21807835.739 8 -17014532.78027  21265928.954
  21908196.118 8    -84032.61029  20331101.092
  -5657637.535 5  -3261934.70325  23900973.590
  23658179.332 7   4655876.82325  22457169.695
 -14999244.026 7 -12667262.22026  21729457.620
  10199845.451 5   9365672.85324  24422410.497
 92  8 29  1 54  0.0000000  0  6G11G21G12G23G28G17
 -21853859.769 8 -17050395.64127  21257169.018
  21924260.913 8    -71514.59829  20334158.885
  -5699517.141 5  -3294568.10625  23893008.524
  23727699.488 7   4710048.31825  22470391.352
 -14929629.827 7 -12613017.39626  21742703.859
  10301209.248 5   9444657.50123  24441714.163
 92  8 29  1 54 30.0000000  0  6G11G21G12G23G28G17
 -21899278.731 8 -17085787.02227  21248527.800
  21940650.649 8    -58743.36329  20337270.521
  -5740834.610 5  -3326763.46125  23885149.945
  23797390.547 7   4764353.00325  22483659.476
 -14859578.550 7 -12558432.03926  21756035.360
  10402732.672 5   9523766.69524  24461043.252
 92  8 29  1 55  0.0000000  0  6G11G21G12G23G28G17
 -21944088.720 8 -17120703.88927  21240000.384
  21957339.382 8    -45739.15429  20340456.655
  -5781586.111 5  -3358517.76425  23877386.279
  23867250.198 7   4818789.10925  22496952.064
 -14789080.522 7 -12503498.57726  21769450.023
  10504409.297 5   9602995.17024  24480380.106
 92  8 29  1 55 30.0000000  0  6G11G21G12G23G28G17
 -21988286.438 8 -17155143.65827  21231591.565
  21974305.742 8    -32518.60029  20343679.094
  -5821767.978 5  -3389828.29825  23869736.475
  23937260.161 7   4873342.30925  22510273.942
 -14718126.478 7 -12448209.73226  21782952.286
  10606214.200 5   9682323.54723  24499754.523
 92  8 29  1 56  0.0000000  0  5G11G21G12G23G28
 -22031841.509 8 -17189082.65527  21223303.323
  21991570.001 8    -19065.93929  20346965.629
  -5861350.109 5  -3420671.55025  23862218.130
  24007427.729 6   4928018.29825  22523624.869
 -14646674.573 7 -12392532.94626  21796549.883
 92  8 29  1 56 30.0000000  0  5G11G21G12G23G28
 -22074739.751 8 -17222509.86727  21215140.364
  22009133.587 8     -5380.02629  20350309.544
  -5900318.058 6  -3451036.08225  23854796.408
  24077754.040 6   4982817.98725  22537006.975
 -14574703.409 7 -12336451.57326  21810239.186
 92  8 29  1 57  0.0000000  0  6G11G21G12G23G28G17
 -22116976.565 8 -17255421.65627  21207103.558
  22027014.183 8      8552.91929  20353713.957
  -5938667.125 5  -3480918.37625  23847499.160
  24148224.951 6   5037730.39225  22550418.700
 -14502220.215 7 -12279971.17526  21824039.592
 -12566515.20915     41142.53631  24558015.350
 92  8 29  1 57 30.0000000  0  6G11G21G12G23G28G17
 -22158546.585 8 -17287813.87027  21199194.193
  22045243.585 8     22757.64529  20357180.967
  -5976391.990 5  -3510314.36025  23840325.366
  24218849.288 6   5092762.33825  22563859.445
 -14429238.374 7 -12223102.23826  21837925.289
     13654.42815     23652.13731  24577496.703
 92  8 29  1 58  0.0000000  0  6G11G21G12G23G28G17
 -22199465.923 8 -17319699.06927  21191404.836
  22063825.409 8     37236.98729  20360718.218
  -6013508.510 5  -3539236.31125  23833259.288
  24289624.572 6   5147911.84925  22577328.641
 -14355780.154 7 -12165862.12326  21851906.770
    116147.282 5    103512.68821  24596990.738
 92  8 29  1 58 30.0000000  0  5G11G21G12G23G28
 -22239937.300 8 -17351235.19827  21183703.767
  22082558.613 8     51834.29329  20364280.832
  -6050219.502 5  -3567842.21325  23826267.228
  24360341.683 6   5203016.10025  22590784.975
 -14282046.073 7 -12108407.01926  21865933.309
 92  8 29  1 59  0.0000000  0  5G11G21G12G23G28
 -22279791.354 8 -17382290.29327  21176120.247
  22101608.352 8     66678.25129  20367905.772
  -6086355.611 5  -3596000.16425  23819395.386
  24431159.453 6   5258198.76325  22604261.785
 -14207869.159 7 -12050606.86226  21880052.425
 92  8 29  1 59 30.0000000  0  5G11G21G12G23G28
 -22319002.159 8 -17412844.17127  21168657.154
  22120985.501 8     81777.32929  20371594.089
  -6121890.834 5  -3623689.85125  23812629.939
  24502106.261 6   5313481.94125  22617761.709
 -14133224.534 7 -11992442.26526  21894253.833
 92  8 29  2  0  0.0000000  0  6G11G21G12G23G28G17
 -22357567.157 8 -17442894.81327  21161319.763
  22140682.604 8     97125.72329  20375341.285
  -6156822.426 5  -3650909.32325  23805974.547
  24573174.401 6   5368859.69025  22631278.452
 -14058111.531 7 -11933912.69826  21908549.557
     13726.87215     26726.23431  24675115.363
